[[{"header":{"parameterUnit":"m.s-1","parameterCategory":1,"la1":30.6,"la2":29.2853,"lo1":-89.7004,"lo2":-87.6739,"dy":0.0162,"dx":0.0183,"nx":112,"ny":82,"refTime":"2024-07-26T12:00:00:Z","depth":0,"parameterNumber":2,"parameterNumberName":"U-component_of_WINDS"},"data":[0.0,0.0,0.0,0.0,0.0,0.0,0.0,0.0,0.0,0.0,0.0,0.0,0.0,0.0,0.0,0.0,0.0,0.0,0.0,0.0,0.0,0.0,0.0,0.0,0.0,0.0,0.0,0.0,0.0,0.0,0.0,0.0,0.0,0.0,0.0,0.0,0.0,0.0,0.0,0.0,0.0,0.0,0.0,0.0,0.0,0.0,0.0,0.0,0.0,0.0,0.0,0.0,0.0,0.0,0.0,0.0,0.0,0.0,0.0,0.0,0.0,0.0,0.0,0.0,0.0,0.0,0.0,0.0,0.0,0.0,0.0,0.0,0.0,0.0,0.0,0.0,0.0,0.0,0.0,0.0,0.0,0.0,0.0,0.0,0.0,0.0,0.0,0.0,0.0,0.0,0.0,-0.9875,-1.1738,-1.2905,-1.2905,-1.248,-1.1316,-0.9221,0.0,0.0,0.0,0.0,0.0,0.0,0.0,0.0,0.0,0.0,0.0,0.0,0.0,0.0,0.0,0.0,0.0,0.0,0.0,0.0,0.0,0.0,0.0,0.0,0.0,0.0,0.0,0.0,0.0,0.0,0.0,0.0,0.0,0.0,0.0,0.0,0.0,0.0,0.0,0.0,0.0,0.0,0.0,0.0,0.0,0.0,0.0,0.0,0.0,0.0,0.0,0.0,0.0,0.0,0.0,0.0,0.0,0.0,0.0,0.0,0.0,0.0,0.0,0.0,0.0,0.0,0.0,0.0,0.0,0.0,0.0,0.0,0.0,0.0,0.0,0.0,0.0,0.0,0.0,0.0,0.0,0.0,0.0,0.0,0.0,0.0,0.0,0.0,0.0,0.0,0.0,0.0,0.0,0.0,0.0,0.0,0.0,0.0,0.0,0.0,0.0,0.0,0.0,0.0,-0.9268,-1.157,-1.2461,-1.2905,-1.2905,-1.248,-1.1433,-0.963,0.0,0.0,0.0,0.0,0.0,0.0,0.0,0.0,0.0,0.0,0.0,0.0,0.0,0.0,0.0,0.0,0.0,0.0,0.0,0.0,0.0,0.0,0.0,0.0,0.0,0.0,0.0,0.0,0.0,0.0,0.0,0.0,0.0,0.0,0.0,0.0,0.0,0.0,0.0,0.0,0.0,0.0,0.0,0.0,0.0,0.0,0.0,0.0,0.0,0.0,0.0,0.0,0.0,0.0,0.0,0.0,0.0,0.0,0.0,0.0,0.0,0.0,0.0,0.0,0.0,0.0,0.0,0.0,0.0,0.0,0.0,0.0,0.0,0.0,0.0,0.0,0.0,0.0,0.0,0.0,0.0,0.0,0.0,0.0,0.0,0.0,0.0,0.0,0.0,0.0,0.0,0.0,0.0,0.0,0.0,0.0,0.0,0.0,0.0,0.0,0.0,0.0,0.0,-0.8965,-0.9961,-1.2334,-1.2764,-1.2905,-1.2905,-1.2279,-1.1133,-0.9387,-0.848,0.0,0.0,0.0,0.0,0.0,0.0,0.0,0.0,0.0,0.0,0.0,0.0,0.0,0.0,0.0,0.0,0.0,0.0,0.0,0.0,0.0,0.0,0.0,0.0,0.0,0.0,0.0,0.0,0.0,0.0,0.0,0.0,0.0,0.0,0.0,0.0,0.0,0.0,0.0,0.0,0.0,0.0,0.0,0.0,0.0,0.0,0.0,0.0,0.0,0.0,0.0,0.0,0.0,0.0,0.0,0.0,0.0,0.0,0.0,0.0,0.0,0.0,0.0,0.0,0.0,0.0,0.0,0.0,0.0,0.0,0.0,0.0,0.0,0.0,0.0,0.0,0.0,0.0,0.0,0.0,0.0,0.0,0.0,0.0,0.0,0.0,0.0,0.0,0.0,0.0,0.0,0.0,0.0,0.0,0.0,0.0,0.0,0.0,0.0,0.0,0.0,0.0,-1.0049,-1.0811,-1.27,-1.2905,-1.2905,-1.2905,-1.1995,-1.0743,-0.9111,-0.809,0.0,0.0,0.0,0.0,0.0,0.0,0.0,0.0,0.0,0.0,0.0,0.0,0.0,0.0,0.0,0.0,0.0,0.0,0.0,0.0,0.0,0.0,0.0,0.0,0.0,0.0,0.0,0.0,0.0,0.0,0.0,0.0,0.0,0.0,0.0,0.0,0.0,0.0,0.0,0.0,0.0,0.0,0.0,0.0,0.0,0.0,0.0,0.0,0.0,0.0,0.0,0.0,0.0,0.0,0.0,0.0,0.0,0.0,0.0,0.0,0.0,0.0,0.0,0.0,0.0,0.0,0.0,0.0,0.0,0.0,0.0,0.0,0.0,0.0,0.0,0.0,0.0,0.0,0.0,0.0,0.0,0.0,0.0,0.0,0.0,0.0,0.0,0.0,0.0,0.0,0.0,0.0,0.0,0.0,0.0,0.0,0.0,0.0,0.0,0.0,0.0,0.0,-1.0479,-1.1819,-1.2798,-1.2905,-1.2905,-1.2905,-1.1699,-1.04,-0.9082,-0.7832,0.0,0.0,0.0,0.0,0.0,0.0,0.0,0.0,0.0,0.0,0.0,0.0,0.0,0.0,0.0,0.0,0.0,0.0,0.0,0.0,0.0,0.0,0.0,0.0,0.0,0.0,0.0,0.0,0.0,0.0,0.0,0.0,0.0,0.0,0.0,0.0,0.0,0.0,0.0,0.0,0.0,0.0,0.0,0.0,0.0,0.0,0.0,0.0,0.0,0.0,0.0,0.0,0.0,0.0,0.0,0.0,0.0,0.0,0.0,0.0,0.0,0.0,0.0,0.0,0.0,0.0,0.0,0.0,0.0,0.0,0.0,0.0,0.0,0.0,0.0,0.0,0.0,0.0,0.0,0.0,0.0,0.0,0.0,0.0,0.0,0.0,0.0,0.0,0.0,0.0,0.0,0.0,0.0,0.0,0.0,0.0,0.0,0.0,0.0,0.0,0.0,0.0,-1.0048,-1.133,0.0,-1.2905,-1.2905,-1.2905,-1.1937,-1.0674,-0.9102,0.0,0.0,0.0,0.0,0.0,0.0,0.0,0.0,0.0,0.0,0.0,0.0,0.0,0.0,0.0,0.0,0.0,0.0,0.0,0.0,0.0,0.0,0.0,0.0,0.0,0.0,0.0,0.0,0.0,0.0,0.0,0.0,0.0,0.0,0.0,0.0,0.0,0.0,0.0,0.0,0.0,0.0,0.0,0.0,0.0,0.0,0.0,0.0,0.0,0.0,0.0,0.0,0.0,0.0,0.0,0.0,0.0,0.0,0.0,0.0,0.0,0.0,0.0,0.0,0.0,0.0,0.0,0.0,0.0,0.0,0.0,0.0,0.0,0.0,0.0,0.0,0.0,0.0,0.0,0.0,0.0,0.0,0.0,0.0,0.0,0.0,0.0,0.0,0.0,0.0,0.0,0.0,0.0,0.0,0.0,0.0,0.0,0.0,0.0,0.0,0.0,0.0,-0.8818,-0.999,-1.1271,0.0,-1.2905,-1.2905,-1.2905,-1.1848,-1.0557,-0.9102,0.0,0.0,0.0,0.0,0.0,0.0,0.0,0.0,0.0,0.0,0.0,0.0,0.0,0.0,0.0,0.0,0.0,0.0,0.0,0.0,0.0,0.0,0.0,0.0,0.0,0.0,0.0,0.0,0.0,0.0,0.0,0.0,0.0,0.0,0.0,0.0,0.0,0.0,0.0,0.0,0.0,0.0,0.0,0.0,0.0,0.0,0.0,0.0,0.0,0.0,0.0,0.0,0.0,0.0,0.0,0.0,0.0,0.0,0.0,0.0,0.0,0.0,0.0,0.0,0.0,0.0,0.0,0.0,0.0,0.0,0.0,0.0,0.0,0.0,0.0,0.0,0.0,0.0,0.0,0.0,0.0,0.0,0.0,0.0,0.0,0.0,0.0,0.0,0.0,0.0,0.0,0.0,0.0,0.0,0.0,0.0,0.0,0.0,0.0,0.0,0.0,0.0,-0.8896,-1.0518,-1.1917,-1.2817,-1.2905,-1.2905,-1.2905,-1.131,-0.995,0.0,0.0,0.0,0.0,0.0,0.0,0.0,0.0,0.0,0.0,0.0,0.0,0.0,0.0,0.0,0.0,0.0,0.0,0.0,0.0,0.0,0.0,0.0,0.0,0.0,0.0,0.0,0.0,0.0,0.0,0.0,0.0,0.0,0.0,0.0,0.0,0.0,0.0,0.0,0.0,0.0,0.0,0.0,0.0,0.0,0.0,0.0,0.0,0.0,0.0,0.0,0.0,0.0,0.0,0.0,0.0,0.0,0.0,0.0,0.0,0.0,0.0,0.0,0.0,0.0,0.0,0.0,0.0,0.0,0.0,0.0,0.0,0.0,0.0,0.0,0.0,0.0,0.0,0.0,0.0,0.0,0.0,0.0,0.0,0.0,0.0,0.0,0.0,0.0,0.0,0.0,0.0,0.0,0.0,0.0,0.0,0.0,0.0,0.0,0.0,0.0,0.0,0.0,-0.8896,-1.0518,-1.1917,-1.2817,-1.2905,-1.2905,-1.2905,-1.1858,-1.0577,-0.9102,0.0,0.0,0.0,0.0,0.0,0.0,0.0,0.0,0.0,0.0,0.0,0.0,0.0,0.0,0.0,0.0,0.0,0.0,0.0,0.0,0.0,0.0,0.0,0.0,0.0,0.0,0.0,0.0,0.0,0.0,0.0,0.0,0.0,0.0,0.0,0.0,0.0,0.0,0.0,0.0,0.0,0.0,0.0,0.0,0.0,0.0,0.0,0.0,0.0,0.0,0.0,0.0,0.0,0.0,0.0,0.0,0.0,0.0,0.0,0.0,0.0,0.0,0.0,0.0,0.0,0.0,0.0,0.0,0.0,0.0,0.0,0.0,0.0,0.0,0.0,0.0,0.0,0.0,0.0,0.0,0.0,0.0,0.0,0.0,0.0,0.0,0.0,0.0,0.0,0.0,0.0,0.0,0.0,0.0,0.0,0.0,0.0,0.0,0.0,0.0,0.0,0.0,-0.8896,-1.0518,-1.1917,-1.2817,-1.2905,-1.2905,-1.2905,-1.2093,-1.0919,-0.9338,0.0,0.0,0.0,0.0,0.0,0.0,0.0,0.0,0.0,0.0,0.0,0.0,0.0,0.0,0.0,0.0,0.0,0.0,0.0,0.0,0.0,0.0,0.0,0.0,0.0,0.0,0.0,0.0,0.0,0.0,0.0,0.0,0.0,0.0,0.0,0.0,0.0,0.0,0.0,0.0,0.0,0.0,0.0,0.0,0.0,0.0,0.0,0.0,0.0,0.0,0.0,0.0,0.0,0.0,0.0,0.0,0.0,0.0,0.0,0.0,0.0,0.0,0.0,0.0,0.0,0.0,0.0,0.0,0.0,0.0,0.0,0.0,0.0,0.0,0.0,0.0,0.0,0.0,0.0,0.0,0.0,0.0,0.0,0.0,0.0,0.0,0.0,0.0,0.0,0.0,0.0,0.0,0.0,0.0,0.0,0.0,0.0,0.0,0.0,0.0,0.0,0.0,-0.8896,-1.0518,-1.1917,-1.2817,-1.2905,-1.2905,-1.2905,-1.2132,-1.1085,-0.9757,0.0,0.0,0.0,0.0,0.0,0.0,0.0,0.0,0.0,0.0,0.0,0.0,0.0,0.0,0.0,0.0,0.0,0.0,0.0,0.0,0.0,0.0,0.0,0.0,0.0,0.0,0.0,0.0,0.0,0.0,0.0,0.0,0.0,0.0,0.0,0.0,0.0,0.0,0.0,0.0,0.0,0.0,0.0,0.0,0.0,0.0,0.0,0.0,0.0,0.0,0.0,0.0,0.0,0.0,0.0,0.0,0.0,0.0,0.0,0.0,-0.9166,0.0,0.0,0.0,0.0,0.0,0.0,0.0,0.0,0.0,0.0,0.0,0.0,0.0,0.0,0.0,0.0,0.0,0.0,0.0,0.0,0.0,0.0,0.0,0.0,0.0,0.0,0.0,0.0,0.0,0.0,0.0,0.0,0.0,0.0,0.0,0.0,0.0,0.0,0.0,0.0,0.0,-0.8896,-1.0518,-1.1917,-1.2817,-1.2905,-1.2905,-1.2905,-1.2393,-1.1511,-1.0225,-0.9258,0.0,0.0,0.0,0.0,0.0,0.0,0.0,0.0,0.0,0.0,0.0,0.0,0.0,0.0,0.0,0.0,0.0,0.0,0.0,0.0,0.0,0.0,0.0,0.0,0.0,0.0,0.0,0.0,0.0,0.0,0.0,0.0,0.0,0.0,0.0,0.0,0.0,0.0,0.0,0.0,0.0,0.0,0.0,0.0,0.0,0.0,0.0,0.0,0.0,0.0,0.0,0.0,0.0,0.0,0.0,0.0,0.0,0.0,0.0,0.0,-0.9954,0.0,0.0,0.0,0.0,0.0,0.0,0.0,0.0,0.0,0.0,0.0,0.0,0.0,0.0,0.0,0.0,0.0,0.0,0.0,0.0,0.0,0.0,0.0,0.0,0.0,0.0,0.0,0.0,0.0,0.0,0.0,0.0,0.0,0.0,0.0,0.0,0.0,0.0,0.0,0.0,-0.9182,-1.0811,-1.2139,-1.2837,-1.2905,-1.2905,-1.2905,-1.248,-1.1736,-1.0654,-0.9775,0.0,0.0,0.0,0.0,0.0,0.0,0.0,0.0,0.0,0.0,0.0,0.0,0.0,0.0,0.0,0.0,0.0,0.0,0.0,0.0,0.0,0.0,0.0,0.0,0.0,0.0,0.0,0.0,0.0,0.0,0.0,0.0,0.0,0.0,0.0,0.0,0.0,0.0,0.0,0.0,0.0,0.0,0.0,0.0,0.0,0.0,0.0,0.0,0.0,0.0,0.0,0.0,0.0,-1.3279,-1.3812,-1.3838,-1.3838,-1.4072,-1.4328,-1.2217,-1.1817,-1.2523,-1.1344,0.0,0.0,0.0,0.0,0.0,0.0,0.0,0.0,0.0,0.0,0.0,0.0,0.0,0.0,0.0,0.0,0.0,0.0,0.0,0.0,0.0,0.0,-1.0342,-1.0576,-1.0996,-1.0937,-0.9402,0.0,0.0,0.0,0.0,0.0,0.0,0.0,0.0,0.0,0.0,0.0,-0.962,-1.118,-1.2369,-1.2856,-1.2905,-1.2905,-1.2905,-1.2549,-1.1979,-1.117,-1.0312,-0.9334,0.0,0.0,0.0,0.0,0.0,0.0,0.0,0.0,0.0,0.0,0.0,0.0,0.0,0.0,0.0,0.0,0.0,0.0,0.0,0.0,0.0,0.0,0.0,0.0,0.0,0.0,0.0,0.0,0.0,0.0,0.0,0.0,-0.9063,-1.013,0.0,0.0,0.0,0.0,0.0,0.0,0.0,0.0,0.0,0.0,0.0,0.0,0.0,-1.2406,-1.3928,-1.4556,-1.472,-1.4402,-1.5309,-1.5526,-1.5156,-1.5156,-1.54,-1.5821,-1.5478,0.0,-1.4199,-1.3172,0.0,0.0,0.0,0.0,0.0,0.0,0.0,0.0,0.0,0.0,0.0,0.0,0.0,0.0,0.0,0.0,0.0,0.0,0.0,0.0,0.0,0.0,-1.2798,-1.2106,-1.2554,-1.29,-1.1911,-1.0556,-0.9466,-0.9301,-0.8711,0.0,0.0,0.0,0.0,0.0,0.0,0.0,-1.0107,-1.1365,-1.2369,-1.2856,-1.2905,-1.2905,-1.2905,-1.2856,-1.2588,-1.2067,-1.1209,-1.0517,-1.0064,-0.8434,0.0,0.0,0.0,0.0,0.0,0.0,0.0,0.0,0.0,0.0,0.0,0.0,0.0,0.0,0.0,0.0,0.0,0.0,0.0,0.0,0.0,0.0,0.0,0.0,0.0,0.0,0.0,0.0,0.0,-0.855,-0.9956,-1.1073,-1.0909,-1.0616,0.0,0.0,0.0,0.0,0.0,0.0,0.0,0.0,0.0,-1.3138,-1.3481,-1.4222,-1.5434,-1.6099,-1.6217,-1.5889,-1.6949,-1.7119,-1.6523,-1.6768,-1.7111,-1.7522,-1.7522,-1.7645,-1.7695,-1.5843,-1.4788,-1.4276,0.0,0.0,0.0,0.0,-1.312,-1.3369,-1.4188,-1.4407,-1.4352,-1.4283,0.0,0.0,0.0,0.0,0.0,0.0,0.0,-1.3648,-1.3702,-1.423,-1.4591,-1.4012,-1.419,-1.4246,-1.3455,-1.2681,-1.1784,-1.0566,-1.0049,-0.957,-0.8857,0.0,0.0,0.0,0.0,-1.0303,-1.0939,-1.1956,-1.2666,-1.2886,-1.2905,-1.2905,-1.2905,-1.2905,-1.2695,-1.2233,-1.1631,-1.1012,-1.0368,-0.9113,-0.8039,0.0,0.0,0.0,0.0,0.0,0.0,0.0,0.0,0.0,0.0,0.0,0.0,0.0,0.0,0.0,0.0,0.0,0.0,0.0,0.0,0.0,0.0,0.0,0.0,0.0,0.0,0.0,0.0,-0.9855,-1.106,-1.2479,-1.2748,-1.272,0.0,0.0,0.0,0.0,0.0,0.0,-1.2882,-1.3628,-1.4411,-1.5192,-1.5484,-1.6028,-1.6854,-1.746,-1.7617,-1.7393,-1.8284,-1.8412,-1.7915,-1.8193,-1.8486,-1.8779,-1.8779,-1.9532,-2.0621,-1.8137,-1.7009,-1.6804,-1.6171,-1.5577,-1.5185,-1.5835,-1.5939,-1.598,-1.7436,-1.7715,-1.7385,-1.7258,-1.6625,-1.569,-1.4333,0.0,0.0,0.0,0.0,-1.5678,-1.6009,-1.6071,-1.595,-1.5593,-1.559,-1.5488,-1.4829,-1.4546,-1.3818,-1.1927,-1.1484,-1.1074,-0.9991,0.0,0.0,0.0,0.0,-1.123,-1.1702,-1.2426,-1.2905,-1.2905,-1.2905,-1.2968,-1.3128,-1.3128,-1.306,-1.2858,-1.219,-1.1587,-1.1053,-0.9959,-0.8991,-0.8223,0.0,0.0,0.0,0.0,0.0,0.0,0.0,0.0,0.0,0.0,0.0,0.0,0.0,0.0,0.0,0.0,0.0,0.0,0.0,0.0,0.0,0.0,0.0,0.0,0.0,0.0,0.0,0.0,0.0,-1.5229,-1.5221,0.0,0.0,0.0,0.0,-1.3828,-1.5269,-1.6062,-1.5903,-1.6698,-1.7499,-1.8254,-1.8004,-1.8188,-1.8953,-1.9114,-1.9177,-1.916,-1.9216,-1.9226,-1.9199,-1.9209,-1.9245,-1.9262,-1.9262,-2.0276,-2.1733,-1.9448,-1.8897,-1.9407,-1.8298,-1.8183,-1.8644,-1.8692,-1.907,-1.9546,-1.9634,-1.9647,-1.9735,-2.0288,-1.971,-1.8594,-1.7501,-1.7174,0.0,0.0,-1.7186,-1.7195,-1.7219,-1.7076,-1.683,-1.6427,-1.6624,-1.6774,-1.6376,-1.5683,-1.4795,-1.3594,-1.3057,-1.2627,-1.2125,0.0,-1.0957,-1.141,-1.1528,-1.1712,-1.2116,-1.2598,-1.2905,-1.2905,-1.2905,-1.3128,-1.3708,-1.3755,-1.4003,-1.4527,-1.3249,-1.2626,-1.3049,-1.13,-1.0102,-0.9598,-0.9101,0.0,0.0,0.0,0.0,0.0,0.0,0.0,0.0,0.0,0.0,0.0,0.0,0.0,0.0,0.0,0.0,0.0,0.0,0.0,0.0,0.0,0.0,0.0,0.0,0.0,0.0,0.0,0.0,-1.6581,-1.7287,0.0,-1.7593,-1.7737,-1.7654,-1.7182,-1.7435,-1.7693,-1.7882,-1.7843,-1.8325,-1.948,-1.9714,-2.0225,-2.1093,-2.0551,-2.0267,-2.0267,-1.9604,-1.9287,-1.9287,-1.9287,-1.9945,-2.1051,-2.1051,-2.2081,-2.3739,-2.2912,-2.2292,-2.1786,-2.0688,-2.0373,-2.0578,-2.0578,-2.0715,-2.0891,-2.0891,-2.0891,-2.0865,-2.0742,-2.0427,-1.9936,-1.9171,-1.9233,-1.9447,-1.9045,-1.9208,-1.939,-1.9006,-1.8864,-1.864,-1.8033,-1.7996,-1.7919,-1.7322,-1.658,-1.5855,-1.5182,-1.4076,-1.3145,-1.2715,-1.2383,-1.2139,-1.2012,-1.2227,-1.2494,-1.2627,-1.2807,-1.2905,-1.2905,-1.2905,-1.2992,-1.319,-1.3576,-1.3736,-1.3622,-1.3195,-1.288,-1.268,-1.1454,-1.0563,-1.0097,-0.9123,-0.7938,0.0,0.0,0.0,0.0,0.0,0.0,0.0,0.0,0.0,0.0,0.0,0.0,0.0,0.0,0.0,0.0,0.0,0.0,0.0,0.0,0.0,0.0,0.0,0.0,0.0,0.0,-1.6292,-1.7752,-1.8907,-1.9556,-1.9523,-2.0213,-2.0444,-1.9953,-2.0111,-2.0289,-2.0449,-2.0074,-2.027,-2.1228,-2.1086,-2.1296,-2.1921,-2.1134,-2.0902,-2.1218,-2.0537,-2.039,-2.072,-2.0353,-2.0881,-2.201,-2.201,-2.2889,-2.4365,-2.4541,-2.4342,-2.3847,-2.2975,-2.2611,-2.2585,-2.241,-2.2334,-2.2309,-2.2108,-2.2046,-2.1945,-2.1393,-2.1245,-2.1144,-2.0539,-2.0639,-2.0893,-2.0476,-2.0666,-2.088,-2.0476,-2.0363,-2.0207,-1.9531,-1.9376,-1.9182,-1.8483,-1.7759,-1.7148,-1.69,-1.5272,-1.3799,-1.3379,-1.3184,-1.2998,-1.2681,-1.2793,-1.2905,-1.2905,-1.2905,-1.2905,-1.2905,-1.3079,-1.3286,-1.3501,-1.3873,-1.4118,-1.4172,-1.3568,-1.3135,-1.2974,-1.1849,-1.0992,-1.052,-0.9388,-0.852,-0.7901,0.0,0.0,0.0,0.0,0.0,0.0,0.0,0.0,0.0,0.0,0.0,0.0,0.0,0.0,0.0,0.0,0.0,0.0,0.0,0.0,0.0,0.0,0.0,-1.5047,-1.643,-1.789,-1.8945,-2.0075,-2.0779,-2.0792,-2.1757,-2.2273,-2.2013,-2.3225,-2.3862,-2.3535,-2.3492,-2.3504,-2.3561,-2.2209,-2.1533,-2.158,-2.1002,-2.1175,-2.2145,-2.2059,-2.2537,-2.35,-2.2478,-2.2065,-2.2103,-2.2103,-2.2664,-2.3627,-2.4097,-2.4803,-2.5573,-2.5034,-2.4788,-2.4725,-2.4217,-2.4017,-2.3941,-2.3333,-2.3133,-2.3045,-2.2493,-2.2305,-2.2234,-2.1707,-2.1543,-2.1543,-2.1518,-2.1506,-2.1506,-2.1493,-2.1493,-2.1355,-2.0842,-2.0704,-2.0541,-1.9949,-1.924,-1.8688,-1.8688,-1.6645,-1.4741,-1.4282,-1.3861,-1.3602,-1.3602,-1.3239,0.0,-1.2949,-1.2915,-1.2905,-1.2905,-1.3443,-1.405,-1.4629,-1.4698,-1.5208,-1.6364,-1.4434,-1.3515,-1.4074,-1.2585,-1.1495,-1.0948,-1.0087,-0.9675,-0.9709,0.0,0.0,0.0,0.0,0.0,0.0,0.0,0.0,0.0,0.0,0.0,0.0,0.0,0.0,0.0,0.0,0.0,0.0,0.0,0.0,0.0,-1.6559,-1.7777,-1.6845,-1.8492,-2.005,-2.0727,-2.1782,-2.2623,-2.3037,-2.3715,-2.4098,-2.4013,-2.3794,-2.377,-2.3982,-2.341,-2.3537,-2.4564,-2.4201,-2.4553,-2.5672,-2.4022,-2.3928,-2.5315,-2.3411,-2.3068,-2.4078,-2.3375,-2.3478,-2.4192,-2.4192,-2.4731,-2.5674,-2.5817,-2.6009,-2.6172,-2.5197,-2.4788,-2.4775,-2.4612,-2.4562,-2.4519,-2.3954,-2.3766,-2.3665,-2.3058,-2.2882,-2.2844,-2.2694,-2.2656,-2.2569,-2.2196,-2.2083,-2.1995,-2.1594,-2.1493,-2.1443,-2.1333,-2.0981,-2.0641,-2.049,-1.9548,-1.8688,-1.8688,-1.7673,-1.6716,-1.6266,-1.5876,-1.5596,-1.5596,-1.4751,0.0,-1.4135,-1.3415,-1.2905,-1.2905,-1.3443,-1.3873,-1.4027,-1.4846,-1.517,-1.4718,-1.4522,-1.4337,-1.4107,-1.3301,-1.2464,-1.1633,-1.1055,-1.0433,0.0,0.0,0.0,0.0,0.0,0.0,0.0,0.0,0.0,0.0,0.0,0.0,0.0,0.0,0.0,0.0,0.0,0.0,0.0,0.0,0.0,0.0,-1.8606,-1.9911,-1.951,-2.0552,-2.1556,-2.2121,-2.292,-2.3684,-2.4293,-2.4833,-2.5146,-2.5146,-2.4904,-2.4957,-2.547,-2.5015,-2.5218,-2.6274,-2.5877,-2.6081,-2.7004,-2.5414,-2.5287,-2.659,-2.5062,-2.4899,-2.5851,-2.5127,-2.511,-2.5671,-2.5445,-2.5684,-2.6216,-2.6436,-2.6499,-2.6436,0.0,0.0,0.0,0.0,-2.4976,-2.477,-2.4456,-2.4343,-2.4293,-2.3923,-2.3659,-2.3471,-2.3471,-2.3296,-2.3045,-2.2719,-2.2631,-2.2556,-2.2259,-2.2184,-2.2121,-2.1895,-2.1594,-2.132,-2.1081,-2.0256,-1.9556,-1.9556,-1.8976,0.0,-1.8218,-1.7335,-1.6655,-1.6655,-1.5698,-1.4977,-1.4977,-1.4193,-1.3658,-1.3658,-1.419,-1.4549,-1.4549,-1.5197,0.0,0.0,0.0,-1.4631,-1.4123,-1.3797,0.0,0.0,0.0,0.0,0.0,0.0,0.0,0.0,-0.9632,-0.9482,0.0,0.0,0.0,0.0,0.0,0.0,0.0,0.0,0.0,0.0,0.0,0.0,0.0,0.0,0.0,0.0,-2.0263,-2.1794,-2.2422,-2.2498,-2.2656,-2.3145,-2.3791,-2.4368,-2.4825,-2.5385,-2.5724,-2.5787,-2.6298,-2.6826,-2.7344,0.0,0.0,0.0,0.0,-2.6788,-2.6848,-2.5897,-2.597,-2.697,-2.6759,-2.7198,-2.8161,-2.7211,-2.6752,-2.6728,-2.626,-2.6056,-2.6093,-2.6427,-2.6549,-2.6499,-2.6499,-2.6499,-2.6436,-2.5921,-2.5398,-2.4996,-2.4901,0.0,0.0,-2.4813,-2.4494,-2.4079,-2.4017,-2.364,-2.3195,-2.312,-2.3108,-2.3108,-2.3108,-2.3108,-2.2982,-2.2493,-2.233,-2.2184,-2.1681,-2.1131,-2.0691,-2.0691,-2.02,-1.9798,-1.9798,-1.8424,-1.7311,-1.7311,-1.645,-1.5776,-1.572,-1.516,-1.4765,-1.4709,-1.5231,0.0,-1.561,-1.5654,-1.5906,-1.6378,-1.5453,-1.47,-1.4293,-1.4337,-1.4337,-1.4274,-1.4274,-1.4475,-1.4896,-1.4959,-1.4469,-1.3429,-1.1263,-1.0645,0.0,0.0,0.0,0.0,0.0,0.0,0.0,0.0,0.0,0.0,0.0,0.0,0.0,0.0,0.0,-2.0514,-2.1581,-2.251,-2.3527,-2.3665,-2.3715,-2.3816,-2.4695,-2.5322,-2.5435,-2.5996,-2.6512,-2.6952,-2.709,-2.7369,-2.7921,-2.7946,-2.7996,-2.8109,-2.7914,-2.8039,-2.8437,-2.7411,-2.7666,-2.9171,-2.7809,0.0,-2.8712,-2.8113,-2.7828,-2.7779,-2.7716,-2.7666,-2.7629,-2.7272,-2.6901,-2.6499,-2.6499,-2.6499,-2.6474,-2.6361,-2.626,-2.6109,-2.5598,-2.5448,-2.5372,-2.4926,-2.4713,-2.455,-2.413,-2.3916,0.0,-2.3233,-2.3108,-2.3108,-2.3108,-2.3108,-2.3083,-2.297,-2.2606,-2.2284,-2.2171,-2.1395,-2.0691,-2.0691,-2.02,-1.9798,-1.9798,-1.9492,-1.9275,-1.9275,-1.8304,-1.7452,-1.7001,-1.6016,-1.5193,-1.4743,-1.5231,-1.561,-1.561,-1.6051,-1.6193,-1.5881,-1.5653,-1.5491,-1.5379,-1.5806,-1.5831,-1.5399,-1.5399,-1.5236,-1.4896,-1.5336,-1.5429,-1.5168,-1.338,-1.237,0.0,0.0,0.0,0.0,0.0,0.0,0.0,0.0,0.0,0.0,0.0,-1.6873,-1.7953,0.0,-2.0715,-2.2083,-2.3012,-2.3735,-2.433,-2.4632,-2.4795,-2.4795,-2.5272,-2.5711,-2.6034,-2.6575,-2.7014,-2.7291,-2.7544,-2.7934,-2.8486,-2.8511,-2.8649,-2.8938,-2.895,-2.9076,-2.9365,-2.8829,-2.8964,-2.9792,-2.8964,-2.8829,-2.9352,-2.9076,-2.895,-2.8925,-2.8649,-2.8511,-2.8473,-2.7921,-2.7369,-2.6901,-2.6901,-2.6738,-2.6499,-2.6499,-2.6499,-2.6449,-2.616,-2.6059,-2.6021,-2.5724,-2.5448,-2.5159,-2.4883,-2.4431,-2.3941,-2.3653,-2.3333,-2.3108,-2.3108,-2.3108,-2.3108,-2.3108,-2.2895,-2.2694,-2.2694,-2.2071,-2.1405,-2.1157,-2.0654,-2.0137,-1.9849,-1.9798,-1.9798,-1.9798,-1.9094,-1.8449,-1.8179,-1.74,-1.6645,-1.6121,-1.631,-1.6379,-1.6076,-1.6337,-1.6387,-1.612,-1.6107,-1.6107,-1.6107,-1.635,-1.6362,-1.612,-1.6107,-1.5969,-1.5693,-1.5969,-1.5948,-1.5627,-1.4484,-1.3762,0.0,0.0,0.0,0.0,0.0,0.0,0.0,0.0,-1.6141,-1.7112,-1.8456,-1.9635,-2.02,-2.1481,-2.2656,-2.3321,-2.4199,-2.4825,-2.4926,-2.5335,-2.5636,-2.5749,-2.5762,-2.5984,-2.6449,-2.7002,-2.7318,-2.7431,-2.7959,-2.8511,-2.9026,-2.9051,-2.9315,-2.9779,-2.9792,-2.9792,-2.9792,-2.9792,-2.9792,-2.9792,-2.9792,-2.9792,-2.9792,-2.9792,-2.9792,-2.9767,-2.9302,-2.9001,-2.8863,-2.8411,-2.7946,-2.7444,-2.7444,-2.714,-2.6637,-2.6537,-2.6499,-2.6499,-2.6499,-2.6499,-2.6499,-2.6499,-2.6172,-2.5737,-2.5636,-2.4996,-2.4268,-2.4054,-2.3665,-2.3246,-2.3133,-2.3108,-2.3108,-2.3108,-2.3108,-2.3108,-2.3108,-2.2669,-2.2184,-2.1732,-2.1144,-2.0541,-2.0049,-1.9874,-1.9798,-1.9798,-1.9421,-1.9121,-1.902,-1.8619,-1.8116,-1.7473,-1.741,-1.7149,-1.655,-1.65,-1.65,-1.65,-1.65,-1.65,-1.65,-1.65,-1.65,-1.65,-1.65,-1.65,-1.65,-1.65,-1.6238,-1.5764,-1.5287,-1.4858,-1.2287,-1.2162,-1.2705,-1.4726,-1.5279,-1.6141,0.0,0.0,-1.9434,-2.0101,-2.0767,-2.138,-2.1933,-2.2556,-2.3358,-2.4424,-2.4713,-2.4983,-2.5435,-2.5561,-2.5787,-2.6336,-2.6399,-2.6424,-2.6487,-2.7002,-2.7494,-2.7971,-2.8524,-2.9089,-2.9666,-2.9691,-2.9729,-2.9792,-2.9792,-2.9792,-2.9792,-2.9792,-2.9792,-2.9792,-2.9792,-2.9792,-2.9792,-2.9792,-2.9792,-2.9792,-2.9729,-2.9402,-2.8888,-2.8825,-2.8511,-2.8009,-2.8009,-2.767,-2.7165,-2.6675,-2.6499,-2.6499,-2.6499,-2.6499,-2.6499,-2.6499,-2.6449,-2.6298,-2.5749,-2.5511,-2.5222,-2.4268,-2.3954,-2.3791,-2.3233,-2.3108,-2.3108,-2.3108,-2.3108,-2.3108,-2.3108,-2.2669,-2.2297,-2.2234,-2.138,-2.0679,-2.0603,-2.0137,-1.9798,-1.9798,-1.9748,-1.9547,-1.9058,-1.8945,-1.8506,-1.7524,-1.741,-1.7149,-1.655,-1.65,-1.65,-1.65,-1.65,-1.65,-1.65,-1.65,-1.65,-1.65,-1.65,-1.65,-1.65,-1.65,-1.6466,-1.6402,-1.6337,-1.5444,-1.4757,0.0,0.0,0.0,-1.7877,-1.8982,-2.0377,-2.0754,-2.0941,-2.1506,-2.2071,-2.2493,-2.2719,-2.3484,-2.4249,0.0,-2.536,-2.5883,-2.6097,-2.5812,-2.5686,-2.5959,-2.5996,-2.6122,-2.6461,-2.7291,-2.7858,-2.8084,-2.8925,-2.9528,-2.9779,-2.9792,-2.9792,-2.9792,-2.9792,-2.9792,-2.9792,-2.9792,-2.9792,-2.9792,-2.9792,-2.9792,-2.9792,-2.9792,-2.9792,-2.9792,-2.9792,-2.9654,-2.9428,-2.9428,-2.9101,-2.8586,-2.8586,-2.8047,-2.7256,-2.7065,-2.6776,-2.6499,-2.6499,-2.6499,-2.6499,-2.6499,-2.6499,-2.6449,-2.621,-2.5862,-2.5498,-2.5059,-2.4481,-2.3941,-2.3703,-2.3358,-2.3108,-2.3108,-2.3108,-2.3108,-2.3108,-2.292,-2.2669,-2.2343,-2.1945,-2.1418,-2.0805,-2.049,-2.0188,-1.9849,-1.9798,-1.9723,-1.9484,-1.9472,-1.9033,-1.7978,-1.7599,-1.7149,-1.655,-1.65,-1.65,-1.65,-1.65,-1.65,-1.65,-1.65,-1.65,-1.65,-1.65,-1.65,-1.65,-1.65,-1.65,-1.65,-1.6139,-1.5565,-1.6647,0.0,0.0,-1.8769,-2.0012,-2.1182,-2.1345,-2.1782,-2.2297,-2.2698,-2.2945,-2.3158,-2.3308,-2.401,-2.4695,-2.4983,-2.5699,-2.6311,-2.6474,-2.5996,-2.5649,-2.5812,-2.5686,-2.5858,-2.6436,-2.7318,-2.7946,-2.8097,-2.9001,-2.9616,-2.9779,-2.9792,-2.9792,-2.9792,-2.9792,-2.9792,-2.9792,-2.9792,-2.9792,-2.9792,-2.9792,-2.9792,-2.9792,-2.9792,-2.9792,-2.9792,-2.9792,-2.9792,-2.9792,-2.9792,-2.9541,-2.9126,-2.9126,-2.8586,-2.772,-2.757,-2.7102,-2.6499,-2.6499,-2.6499,-2.6499,-2.6499,-2.6499,-2.6499,-2.6499,-2.6197,-2.5799,-2.5636,-2.5034,-2.4368,-2.4079,-2.369,-2.3308,-2.3145,-2.3108,-2.3108,-2.3108,-2.3108,-2.2995,-2.2594,-2.2393,-2.2008,-2.1081,-2.0792,-2.049,-1.9886,-1.9798,-1.9798,-1.9798,-1.9673,-1.9296,-1.8505,-1.7802,-1.7212,-1.6798,-1.6588,-1.65,-1.65,-1.65,-1.65,-1.65,-1.65,-1.65,-1.65,-1.65,-1.65,-1.65,-1.65,-1.65,-1.65,-1.621,-1.5993,0.0,0.0,-1.8593,-2.0214,-2.143,-2.2397,-2.2907,-2.3471,-2.3929,-2.3954,-2.3484,-2.3283,-2.3866,-2.4004,-2.4356,-2.5398,-2.5598,-2.5824,-2.6411,-2.5996,-2.5799,-2.6399,-2.5971,-2.5858,0.0,-2.7002,-2.7532,-2.8059,-2.8599,-2.9202,-2.9767,-2.9792,-2.9792,-2.9792,-2.9792,-2.9792,-2.9792,-2.9792,-2.9792,-2.9792,-2.9792,-2.9792,-2.9792,-2.9792,-2.9792,-2.9792,-2.9792,-2.9792,-2.9792,-2.9792,-2.9779,-2.9767,-2.9767,-2.9402,-2.8775,-2.8285,-2.7394,-2.6499,-2.6499,-2.6499,-2.6499,-2.6499,-2.6499,-2.6499,-2.6499,-2.6487,-2.6348,-2.5749,-2.5573,-2.531,-2.4268,-2.3979,-2.3841,-2.3233,-2.3108,-2.3108,-2.3108,-2.3108,-2.3095,-2.3083,-2.2644,-2.2133,-2.1556,-2.1043,-2.049,-1.9886,-1.9798,-1.9798,-1.9798,-1.9334,-1.9008,-1.8983,-1.8028,-1.7398,-1.7373,-1.6835,-1.65,-1.65,-1.65,-1.65,-1.65,-1.65,-1.65,-1.65,-1.65,-1.65,-1.65,-1.65,-1.65,-1.6513,-1.7064,-1.6995,0.0,0.0,-2.0602,-2.1531,-2.2598,-2.3577,-2.4098,-2.4117,-2.3891,-2.3471,-2.2945,-2.2506,-2.2359,-2.2937,-2.3634,-2.4418,-2.5134,-2.5799,-2.6411,-2.6336,-2.6135,-2.5946,-2.6084,0.0,0.0,0.0,0.0,-2.8059,-2.8612,-2.9176,-2.9767,-2.9792,-2.9792,-2.9792,-2.9792,-2.9792,-2.9792,-2.9792,-2.9792,-2.9792,-2.9792,-2.9792,-2.9792,-2.9792,-2.9792,-2.9792,-2.9792,-2.9792,-2.9792,-2.9792,-2.9792,-2.9792,-2.9792,-2.944,-2.8863,-2.8687,-2.7946,-2.6989,-2.6612,-2.6499,-2.6499,-2.6499,-2.6499,-2.6499,-2.6499,-2.6499,-2.6449,-2.626,-2.5921,-2.5435,-2.4732,-2.4268,-2.3853,-2.3246,-2.3108,-2.3108,-2.3108,-2.3108,-2.3108,-2.3108,-2.2957,-2.2656,-2.2133,-2.1581,-2.0918,-1.9949,-1.9798,-1.9798,-1.9798,-1.9648,-1.9384,-1.9045,-1.8669,-1.8329,-1.7953,-1.7413,-1.7087,-1.7087,-1.6713,-1.65,-1.65,-1.65,-1.65,-1.65,-1.65,-1.65,-1.65,-1.6911,-1.7087,-1.7099,-1.7664,-1.7798,0.0,-2.0978,-2.2008,-2.2975,-2.3891,-2.4619,-2.4782,-2.4393,-2.3778,-2.297,-2.2246,-2.1556,-2.0991,-2.1468,-2.2305,-2.3502,-2.4268,-2.5184,-2.66,-2.6612,-2.6499,-2.649,-2.6688,-2.6725,0.0,0.0,0.0,-2.8084,-2.8612,-2.9176,-2.9767,-2.9792,-2.9792,-2.9792,-2.9792,-2.9792,-2.9792,-2.9792,-2.9792,-2.9792,-2.9792,-2.9792,-2.9792,-2.9792,-2.9792,-2.9792,-2.9792,-2.9792,-2.9792,-2.9792,-2.9792,-2.9792,-2.9792,-2.9566,-2.9214,-2.8963,-2.8348,-2.7494,-2.6977,-2.6663,-2.6499,-2.6499,-2.6499,-2.6499,-2.6499,-2.6499,-2.6499,-2.6499,-2.6223,-2.5774,-2.5234,-2.4695,-2.4155,-2.3547,-2.3258,-2.3108,-2.3108,-2.3108,-2.3108,-2.3108,-2.3108,-2.2932,-2.238,-2.1694,-2.0981,-2.0225,-1.9936,-1.9798,-1.9798,-1.9798,-1.9673,-1.9309,-1.9108,-1.8857,-1.853,-1.799,-1.7677,-1.7677,-1.7325,-1.7124,-1.7124,-1.7124,-1.7124,-1.7124,-1.7124,-1.7124,-1.7102,-1.7501,-1.7677,-1.7712,-1.8242,-1.8481,-2.1716,-2.2343,-2.2836,-2.4424,-2.5209,-2.5423,-2.4933,-2.4356,-2.359,-2.246,-2.1343,-2.0427,0.0,0.0,-2.0552,-2.2669,-2.3108,-2.4148,-2.6904,-2.6889,-2.6964,0.0,0.0,0.0,0.0,0.0,0.0,-2.8147,0.0,-2.9176,-2.9767,-2.9792,-2.9792,-2.9792,-2.9792,-2.9792,-2.9792,-2.9792,-2.9792,-2.9792,-2.9792,-2.9792,-2.9792,-2.9792,-2.9792,-2.9792,-2.9792,-2.9792,-2.9792,-2.9792,-2.9792,-2.9792,-2.9792,-2.9792,-2.9729,-2.9176,-2.8587,-2.8072,-2.7544,-2.7002,-2.6499,-2.6499,-2.6499,-2.6499,-2.6499,-2.6499,-2.6499,-2.6499,-2.6499,-2.6361,-2.5749,-2.5209,-2.465,-2.413,-2.3521,-2.3108,-2.3108,-2.3108,-2.3108,-2.3108,-2.3108,-2.2932,-2.238,-2.1471,-2.0754,-2.0704,-2.02,-1.9836,-1.9798,-1.9798,-1.9798,-1.9798,-1.9334,-1.9045,-1.9045,-1.8555,-1.8242,-1.8242,-1.8229,-1.8204,-1.8204,-1.8204,-1.8204,-1.8204,-1.8204,-1.8204,-1.8204,-1.8229,-1.8242,-1.8254,-1.8795,-1.9045,-2.2159,-2.3226,-2.4349,-2.5197,-2.5209,-2.4983,-2.4825,-2.374,-2.2422,-2.1345,-2.0213,-1.9145,-1.8179,0.0,0.0,-2.1744,-2.3271,0.0,-2.7005,-2.7519,0.0,0.0,0.0,-2.8398,-2.8134,-2.8473,0.0,0.0,-2.8813,-2.9176,-2.9767,-2.9792,-2.9792,-2.9792,-2.9792,-2.9792,-2.9792,-2.9792,-2.9792,-2.9792,-2.9792,-2.9792,-2.9792,-2.9792,-2.9792,-2.9792,-2.9792,-2.9792,-2.9792,-2.9792,-2.9792,-2.9792,-2.9792,-2.9792,-2.9779,-2.9628,-2.9214,-2.8662,-2.8561,-2.7607,-2.6499,-2.6499,-2.6499,-2.6499,-2.6499,-2.6499,-2.6499,-2.6499,-2.6499,-2.6361,-2.5749,-2.5209,-2.465,-2.413,-2.3521,-2.3108,-2.3108,-2.3108,-2.3108,-2.3108,-2.3108,-2.2932,-2.238,-2.2083,-2.1606,-2.0817,-2.0566,-2.0314,-1.9861,-1.9798,-1.9798,-1.9798,-1.9685,-1.961,-1.961,-1.9096,-1.8795,-1.8795,-1.8406,-1.8204,-1.8204,-1.8204,-1.8204,-1.8204,-1.8204,-1.8204,-1.8204,-1.8594,-1.8795,-1.8807,-1.9359,-1.961,-2.3489,-2.4443,-2.5297,-2.5837,-2.5561,-2.4971,-2.4211,-2.2975,-2.143,-1.9623,-1.853,0.0,-1.6505,0.0,0.0,0.0,0.0,0.0,-2.6942,-2.7758,-2.8298,0.0,-2.9114,0.0,-2.8875,-2.9126,-2.9302,0.0,-2.9302,-2.9453,-2.9779,-2.9792,-2.9792,-2.9792,-2.9792,-2.9792,-2.9792,-2.9792,-2.9792,-2.9792,-2.9792,-2.9792,-2.9792,-2.9792,-2.9792,-2.9792,-2.9792,-2.9792,-2.9792,-2.9792,-2.9792,-2.9792,-2.9792,-2.9792,-2.9792,-2.9792,-2.9428,-2.8863,-2.8612,-2.7795,-2.6851,-2.6851,-2.6688,-2.6499,-2.6499,-2.6499,-2.6499,-2.6499,-2.6499,-2.6411,-2.6097,-2.5573,-2.5084,-2.477,-2.4092,-2.3484,-2.3484,-2.3283,-2.3108,-2.3108,-2.3108,-2.3007,-2.2694,-2.2472,-2.2096,-2.1481,-2.1006,-2.0578,-2.0251,-1.9962,-1.9798,-1.9798,-1.9798,-1.9798,-1.9798,-1.9509,-1.9334,-1.9334,-1.9083,-1.8907,-1.8907,-1.8907,-1.8907,-1.8907,-1.8907,-1.8907,-1.8907,-1.9183,-1.9334,-1.9346,-1.966,-1.9798,-2.4971,-2.5598,-2.5812,-2.6273,-2.5896,-2.4958,-2.3258,-2.1945,-2.0326,-1.779,0.0,-1.5982,-1.4972,0.0,-1.7277,-1.9359,0.0,-2.3452,-2.6751,-2.7645,-2.8411,-2.9553,-2.9741,-2.9792,-2.9792,-2.9792,-2.9792,-2.9792,-2.9792,-2.9792,-2.9792,-2.9792,-2.9792,-2.9792,-2.9792,-2.9792,-2.9792,-2.9792,-2.9792,-2.9792,-2.9792,-2.9792,-2.9792,-2.9792,-2.9792,-2.9792,-2.9792,-2.9792,-2.9792,-2.9792,-2.9792,-2.9792,-2.9792,-2.9792,-2.9792,-2.9792,-2.9428,-2.8825,-2.8386,-2.7808,-2.7268,-2.7241,-2.6889,-2.6499,-2.6499,-2.6499,-2.6499,-2.6499,-2.6499,-2.6499,-2.6499,-2.6059,-2.5573,-2.5511,-2.4732,-2.3979,-2.3904,-2.3459,-2.3108,-2.3108,-2.3108,-2.3108,-2.3108,-2.2706,-2.2397,-2.2322,-2.1458,-2.0779,-2.0704,-2.0189,-1.9798,-1.9798,-1.9798,-1.9798,-1.9798,-1.9798,-1.9798,-1.9798,-1.9798,-1.9798,-1.9798,-1.9798,-1.9798,-1.9798,-1.9798,-1.9798,-1.9798,-1.9798,-1.9798,-1.9798,-1.9798,-1.9798,-2.4813,-2.5624,-2.6248,-2.5837,-2.5008,-2.3841,-2.2159,-2.0213,0.0,0.0,0.0,-1.4984,-1.4349,-1.5877,0.0,-1.892,0.0,0.0,0.0,0.0,-2.7833,0.0,0.0,0.0,0.0,0.0,0.0,0.0,0.0,-2.9792,-2.9792,-2.9792,-2.9792,-2.9792,-2.9792,-2.9792,-2.9792,-2.9792,-2.9792,-2.9792,-2.9792,-2.9792,-2.9792,-2.9792,-2.9792,-2.9792,-2.9792,-2.9792,-2.9792,-2.9792,-2.9792,-2.9792,-2.9792,-2.9792,-2.9792,-2.9792,-2.9428,-2.8875,-2.8787,-2.8122,-2.7241,-2.6788,-2.6575,-2.6499,-2.6499,-2.6499,-2.6499,-2.6499,-2.6499,-2.6499,-2.6499,-2.6059,-2.5485,-2.5059,-2.4469,-2.3866,-2.3358,-2.317,-2.3108,-2.3108,-2.3108,-2.3108,-2.3108,-2.302,-2.2807,-2.2385,-2.1757,-2.1207,-2.0754,-2.0189,-1.9798,-1.9798,-1.9798,-1.9798,-1.9798,-1.9798,-1.9798,-1.9798,-1.9798,-1.9798,-1.9798,-1.9798,-1.9798,-1.9798,-1.9798,-1.9798,-1.9798,-1.9798,-1.9798,-1.9798,-1.9798,-1.9798,-2.5071,-2.5824,-2.6361,-2.5737,-2.4569,-2.3037,-2.1066,0.0,0.0,0.0,0.0,-1.3848,-1.3312,0.0,0.0,0.0,0.0,0.0,0.0,0.0,0.0,0.0,0.0,0.0,0.0,0.0,0.0,0.0,0.0,-2.9792,-2.9792,-2.9792,-2.9792,-2.9792,-2.9792,-2.9792,-2.9792,-2.9792,-2.9792,-2.9792,-2.9792,-2.9792,-2.9792,-2.9792,-2.9792,-2.9792,-2.9792,-2.9792,-2.9792,-2.9792,-2.9792,-2.9792,-2.9792,-2.9792,-2.9792,-2.9792,-2.9428,-2.885,-2.8562,-2.7959,-2.7228,-2.6675,-2.6499,-2.6499,-2.6499,-2.6499,-2.6499,-2.6499,-2.6499,-2.6499,-2.6499,-2.6285,-2.59,-2.536,-2.4594,-2.3841,-2.3233,-2.3108,-2.3108,-2.3108,-2.3108,-2.3108,-2.3108,-2.3108,-2.3007,-2.2757,-2.202,-2.1421,-2.1157,-2.0338,-1.9798,-1.9798,-1.9798,-1.9798,-1.9798,-1.9798,-1.9798,-1.9798,-1.9798,-1.9798,-1.9798,-1.9798,-1.9798,-1.9798,-1.9798,-1.9798,-1.9798,-1.9798,-1.9798,-1.9798,-1.9798,-1.9798,-2.5016,-2.5749,-2.6172,-2.5573,-2.418,-2.2343,-2.0124,-1.784,0.0,0.0,0.0,-1.2902,-1.2475,0.0,0.0,0.0,0.0,0.0,0.0,0.0,0.0,0.0,0.0,0.0,0.0,0.0,0.0,0.0,0.0,0.0,-2.9792,-2.9792,-2.9792,-2.9792,-2.9792,-2.9792,-2.9792,-2.9792,-2.9792,-2.9792,-2.9792,-2.9792,-2.9792,-2.9792,-2.9792,-2.9792,-2.9792,-2.9792,-2.9792,-2.9792,-2.9792,-2.9792,-2.9792,-2.9792,-2.9792,-2.9792,-2.9352,-2.865,-2.826,-2.767,-2.7065,-2.6637,-2.6499,-2.6499,-2.6499,-2.6499,-2.6499,-2.6499,-2.6499,-2.6499,-2.6499,-2.6399,-2.6135,-2.541,-2.4519,-2.369,-2.3195,-2.3108,-2.3108,-2.3108,-2.3108,-2.3108,-2.3108,-2.3108,-2.3108,-2.3108,-2.2297,-2.1619,-2.1506,-2.0614,-1.9936,-1.9811,-1.9798,-1.9798,-1.9798,-1.9798,-1.9798,-1.9798,-1.9798,-1.9798,-1.9798,-1.9798,-1.9798,-1.9798,-1.9798,-1.9798,-1.9798,-1.9798,-1.9798,-1.9798,-1.9798,-1.9798,-2.4153,-2.4895,-2.5548,-2.4988,-2.3597,-2.1779,-1.9572,0.0,0.0,0.0,-1.2797,-1.245,-1.24,0.0,0.0,0.0,0.0,0.0,0.0,0.0,0.0,0.0,0.0,0.0,0.0,0.0,0.0,0.0,0.0,0.0,-2.9792,-2.9792,-2.9792,-2.9792,-2.9792,-2.9792,-2.9792,-2.9792,-2.9792,-2.9792,-2.9792,-2.9792,-2.9792,-2.9792,-2.9792,-2.9792,-2.9792,-2.9792,-2.9792,-2.9792,-2.9792,-2.9792,-2.9792,-2.9792,-2.9792,-2.9792,-2.9114,-2.8172,-2.8122,-2.7419,-2.6562,-2.6512,-2.6499,-2.6499,-2.6499,-2.6499,-2.6499,-2.6499,-2.6499,-2.6499,-2.6499,-2.6097,-2.541,-2.4381,-2.3634,-2.317,-2.3108,-2.3108,-2.3108,-2.3108,-2.3108,-2.3108,-2.3108,-2.3108,-2.3108,-2.3108,-2.2594,-2.2058,-2.1556,-2.0981,-2.0415,-1.9861,-1.9798,-1.9798,-1.9798,-1.9798,-1.9798,-1.9798,-1.9798,-1.9798,-1.9798,-1.9798,-1.9798,-1.9798,-1.9798,-1.9798,-1.9798,-1.9798,-1.9798,-1.9798,-1.9798,-1.9798,-2.3376,-2.4261,-2.4996,-2.4456,-2.2811,-2.0828,-1.8957,0.0,0.0,-1.2952,-1.2551,-1.24,-1.24,-1.3031,-1.3986,0.0,-1.5739,0.0,0.0,0.0,0.0,0.0,0.0,0.0,0.0,0.0,0.0,0.0,0.0,0.0,-2.9792,-2.9792,-2.9792,-2.9792,-2.9792,-2.9792,-2.9792,-2.9792,-2.9792,-2.9792,-2.9792,-2.9792,-2.9792,-2.9792,-2.9792,-2.9792,-2.9792,-2.9792,-2.9792,-2.9792,-2.9792,-2.9792,-2.9792,-2.9792,-2.9754,-2.9402,-2.8775,-2.8059,-2.772,-2.714,-2.6499,-2.6499,-2.6499,-2.6499,-2.6499,-2.6499,-2.6499,-2.6499,-2.6499,-2.6499,-2.6499,-2.5799,-2.5021,-2.4594,-2.376,-2.3108,-2.3108,-2.3108,-2.3108,-2.3108,-2.3108,-2.3108,-2.3108,-2.3108,-2.3108,-2.3108,-2.2631,-2.2121,-2.1556,-2.1031,-2.0465,-1.9861,-1.9798,-1.9798,-1.9798,-1.9798,-1.9798,-1.9798,-1.9798,-1.9798,-1.9798,-1.9798,-1.9798,-1.9798,-1.9798,-1.9798,-1.9798,-1.9798,-1.9798,-1.9798,-1.9798,-1.9798,-2.2483,-2.3334,-2.396,-2.3602,-2.1945,-2.0013,0.0,0.0,-1.377,-1.263,-1.24,-1.24,-1.24,-1.2852,-1.3516,0.0,-1.4802,-1.5801,-1.8393,0.0,0.0,0.0,0.0,0.0,0.0,0.0,0.0,0.0,0.0,-2.9792,-2.9792,-2.9792,-2.9792,-2.9792,-2.9792,-2.9792,-2.9792,-2.9792,-2.9792,-2.9792,-2.9792,-2.9792,-2.9792,-2.9792,-2.9792,-2.9792,-2.9792,-2.9792,-2.9792,-2.9792,-2.9792,-2.9792,-2.9792,-2.9691,-2.949,-2.9076,-2.8473,-2.7808,-2.7419,-2.6952,-2.6499,-2.6499,-2.6499,-2.6499,-2.6499,-2.6499,-2.6499,-2.6499,-2.6499,-2.6449,-2.6285,-2.5523,-2.475,-2.4587,-2.381,-2.3108,-2.3108,-2.3108,-2.3108,-2.3108,-2.3108,-2.3108,-2.3108,-2.3108,-2.3108,-2.3108,-2.2782,-2.2347,-2.1807,-2.1282,-2.0717,-2.0125,-1.9911,-1.9798,-1.9798,-1.9798,-1.9798,-1.9798,-1.9798,-1.9798,-1.9798,-1.9798,-1.9798,-1.9798,-1.9798,-1.9798,-1.9798,-1.9798,-1.9798,-1.9798,-1.9798,-1.9798,-2.1351,-2.1911,-2.2305,-2.2334,-2.1054,-1.9384,0.0,-1.5696,-1.377,-1.263,-1.24,-1.24,-1.24,-1.2852,-1.3403,-1.4009,-1.4551,-1.5676,0.0,0.0,0.0,0.0,0.0,0.0,0.0,0.0,0.0,0.0,0.0,0.0,-2.9792,-2.9792,-2.9792,-2.9792,-2.9792,-2.9792,-2.9792,-2.9792,-2.9792,-2.9792,-2.9792,-2.9792,-2.9792,-2.9792,-2.9792,-2.9792,-2.9792,-2.9792,-2.9792,-2.9792,-2.9792,-2.9792,-2.9792,-2.944,-2.89,-2.8888,-2.8235,-2.7329,-2.7281,-2.6952,-2.6499,-2.6499,-2.6499,-2.6499,-2.6499,-2.6499,-2.6499,-2.6499,-2.6499,-2.6361,-2.5749,-2.5222,-2.4682,-2.4142,-2.3521,-2.3108,-2.3108,-2.3108,-2.3108,-2.3108,-2.3108,-2.3108,-2.3108,-2.3108,-2.3108,-2.3108,-2.3095,-2.2895,-2.2343,-2.182,-2.1295,-2.0742,-2.015,-1.9798,-1.9798,-1.9798,-1.9798,-1.9798,-1.9798,-1.9798,-1.9798,-1.9798,-1.9798,-1.9798,-1.9798,-1.9798,-1.9798,-1.9798,-1.9798,-1.9798,-1.9798,-1.9798,-1.9139,-2.004,-2.0764,-1.9763,-1.8757,-1.7705,-1.6519,-1.4814,-1.3378,-1.301,-1.2663,-1.2513,-1.2889,-1.3085,-1.3767,-1.5467,-1.5881,0.0,0.0,0.0,0.0,0.0,0.0,0.0,0.0,0.0,0.0,0.0,0.0,-2.9792,-2.9792,-2.9792,-2.9792,-2.9792,-2.9792,-2.9792,-2.9792,-2.9792,-2.9792,-2.9792,-2.9792,-2.9792,-2.9792,-2.9792,-2.9792,-2.9792,-2.9792,-2.9792,-2.9792,-2.9792,-2.9792,-2.9792,-2.9792,-2.944,-2.885,-2.8511,-2.7908,-2.7266,-2.6889,-2.6637,-2.6499,-2.6499,-2.6499,-2.6499,-2.6499,-2.6499,-2.6499,-2.6499,-2.6499,-2.6449,-2.6273,-2.5511,-2.475,-2.4607,-2.3797,-2.3108,-2.3108,-2.3108,-2.3108,-2.3108,-2.3108,-2.3108,-2.3108,-2.3108,-2.3108,-2.3108,-2.3108,-2.2907,-2.2355,-2.1832,-2.1307,-2.0754,-2.015,-1.9798,-1.9798,-1.9798,-1.9798,-1.9798,-1.9798,-1.9798,-1.9798,-1.9798,-1.9798,-1.9798,-1.9798,-1.9798,-1.9798,-1.9798,-1.9798,-1.9798,-1.9798,-1.9798,0.0,-1.8168,-1.8654,-1.7997,-1.7234,-1.6358,-1.532,-1.4111,-1.3085,-1.2689,-1.2488,-1.25,-1.2852,-1.306,-1.3729,-1.5329,-1.5756,0.0,0.0,0.0,0.0,0.0,0.0,0.0,0.0,0.0,0.0,0.0,0.0,-2.9792,-2.9792,-2.9792,-2.9792,-2.9792,-2.9792,-2.9792,-2.9792,-2.9792,-2.9792,-2.9792,-2.9792,-2.9792,-2.9792,-2.9792,-2.9792,-2.9792,-2.9792,-2.9792,0.0,-2.9792,-2.9666,-2.9465,-2.9465,-2.8988,-2.826,-2.7921,-2.7444,-2.6952,-2.6612,-2.6499,-2.6499,-2.6499,-2.6499,-2.6499,-2.6499,-2.6499,-2.6499,-2.6499,-2.6499,-2.6499,-2.6499,-2.5636,-2.4788,-2.4788,-2.3935,-2.3108,-2.3108,-2.3108,-2.3108,-2.3108,-2.3108,-2.3108,-2.3108,-2.3108,-2.3108,-2.3108,-2.3108,-2.2982,-2.2631,-2.1958,-2.1355,-2.1043,-2.0275,-1.9798,-1.9798,-1.9798,-1.9798,-1.9798,-1.9798,-1.9798,-1.9798,-1.9798,-1.9798,-1.9798,-1.9798,-1.9798,-1.9798,-1.9798,-1.9798,-1.9798,-1.9798,-1.9798,0.0,-1.6304,-1.6218,-1.6702,-1.6147,-1.5207,-1.4166,-1.3463,0.0,-1.1789,-1.2002,-1.2391,-1.2504,-1.2927,-1.3504,-1.4274,0.0,0.0,0.0,0.0,0.0,0.0,0.0,0.0,0.0,0.0,0.0,0.0,-2.9792,-2.9792,-2.9792,-2.9792,-2.9792,-2.9792,-2.9792,-2.9792,-2.9792,-2.9792,-2.9792,-2.9792,-2.9792,-2.9792,-2.9792,-2.9792,-2.9792,0.0,-2.9792,-2.9792,-2.9792,-2.9792,-2.9453,-2.8888,-2.8888,-2.8247,-2.7281,-2.7281,-2.6964,-2.6499,-2.6499,-2.6499,-2.6499,-2.6499,-2.6499,-2.6499,-2.6499,-2.6499,-2.6499,-2.6499,-2.6499,-2.6499,-2.6499,-2.5636,-2.4788,-2.4788,-2.3935,-2.3108,-2.3108,-2.3108,-2.3108,-2.3108,-2.3108,-2.3108,-2.3108,-2.3108,-2.3108,-2.3108,-2.3108,-2.3108,-2.3108,-2.2209,-2.1531,-2.1493,-2.0514,-1.9849,-1.9798,-1.9798,-1.9798,-1.9798,-1.9798,-1.9798,-1.9798,-1.9798,-1.9798,-1.9798,-1.9798,-1.9798,-1.9798,-1.9798,-1.9798,-1.9798,-1.9798,-1.9798,-1.3465,0.0,-1.4824,-1.3533,-1.3313,-1.3198,0.0,-1.1726,0.0,0.0,0.0,-1.2181,-1.3468,-1.3808,-1.4607,0.0,0.0,0.0,0.0,0.0,0.0,0.0,0.0,0.0,0.0,0.0,0.0,0.0,-2.9792,-2.9792,-2.9792,-2.9792,-2.9792,-2.9792,-2.9792,-2.9792,-2.9792,-2.9792,-2.9792,-2.9792,-2.9792,-2.9792,-2.9792,-2.9792,-2.9792,-2.9792,-2.9792,-2.9792,-2.9792,-2.9792,-2.9453,-2.8888,-2.8888,-2.8247,-2.7281,-2.7281,-2.6964,-2.6499,-2.6499,-2.6499,-2.6499,-2.6499,-2.6499,-2.6499,-2.6499,-2.6499,-2.6499,-2.6499,-2.6499,-2.6499,-2.6499,-2.5636,-2.4788,-2.4788,-2.3935,-2.3108,-2.3108,-2.3108,-2.3108,-2.3108,-2.3108,-2.3108,-2.3108,-2.3108,-2.3108,-2.3108,-2.3108,-2.3108,-2.3108,-2.2506,-2.1958,-2.1531,-2.0905,-2.0314,-1.9836,-1.9798,-1.9798,-1.9798,-1.9798,-1.9798,-1.9798,-1.9798,-1.9798,-1.9798,-1.9798,-1.9798,-1.9798,-1.9798,-1.9798,-1.9798,-1.9798,-1.9798,-1.2235,-1.3386,-1.424,-1.3284,-1.3177,-1.313,-1.2472,0.0,0.0,0.0,0.0,0.0,-1.3458,0.0,0.0,0.0,0.0,0.0,0.0,0.0,0.0,0.0,0.0,0.0,0.0,0.0,0.0,-2.9792,-2.9792,-2.9792,-2.9792,-2.9792,-2.9792,-2.9792,-2.9792,-2.9792,-2.9792,-2.9792,-2.9792,-2.9792,-2.9792,-2.9792,-2.9792,-2.9792,-2.9792,-2.9792,-2.9792,-2.9792,-2.9779,-2.9503,-2.9063,-2.8524,-2.8273,-2.7657,-2.6939,-2.6939,-2.6751,-2.6499,-2.6499,-2.6499,-2.6499,-2.6499,-2.6499,-2.6499,-2.6499,-2.6499,-2.6499,-2.6499,-2.6499,-2.6499,-2.6499,-2.5636,-2.4788,-2.4788,-2.3935,-2.3108,-2.3108,-2.3108,-2.3108,-2.3108,-2.3108,-2.3108,-2.3108,-2.3108,-2.3108,-2.3108,-2.3108,-2.3108,-2.3108,-2.2619,-2.2196,-2.1895,-2.1408,-2.0943,-2.0602,-2.0577,-2.0363,-1.9836,-1.9798,-1.9798,-1.9798,-1.9798,-1.9798,-1.9798,-1.9798,-1.9798,-1.9798,-1.9798,-1.9798,-1.9798,-1.9798,-1.9936,-1.2044,-1.3214,-1.4285,-1.3972,-1.3979,-1.3907,0.0,0.0,0.0,0.0,0.0,0.0,0.0,0.0,0.0,0.0,0.0,0.0,0.0,0.0,0.0,0.0,0.0,0.0,0.0,0.0,0.0,-2.9528,-2.9528,-2.9528,-2.9528,-2.9528,-2.9578,-2.9654,-2.9666,-2.9704,-2.9792,-2.9792,-2.9792,-2.9792,-2.9792,-2.9792,-2.9792,-2.9792,-2.9792,-2.9779,-2.9691,-2.9666,-2.9616,-2.9038,-2.8473,-2.7934,-2.7469,-2.6977,-2.6499,-2.6499,-2.6499,-2.6499,-2.6499,-2.6499,-2.6499,-2.6499,-2.6499,-2.6499,-2.6499,-2.6499,-2.6499,-2.6499,-2.6436,-2.6361,-2.6361,-2.5511,-2.4662,-2.4662,-2.386,-2.3108,-2.3108,-2.3108,-2.3108,-2.3108,-2.3108,-2.3108,-2.3108,-2.3108,-2.3108,-2.3108,-2.3108,-2.3108,-2.3108,-2.2694,-2.2397,-2.2322,-2.1895,-2.1581,-2.1493,-2.1493,-2.1079,-2.0125,-1.9974,-1.9899,-1.9798,-1.9798,-1.9798,-1.9798,-1.9798,-1.9798,-1.9798,-1.9798,-1.9798,-1.9798,-1.9886,-2.02,-1.3184,-1.4488,-1.4991,-1.2691,-1.3266,-1.4078,0.0,0.0,0.0,0.0,0.0,0.0,0.0,0.0,0.0,0.0,0.0,0.0,0.0,0.0,0.0,0.0,0.0,0.0,0.0,0.0,-2.836,-2.836,-2.836,-2.836,-2.836,-2.836,-2.8586,-2.9013,-2.9026,-2.9302,-2.9792,-2.9792,-2.9792,-2.9792,-2.9792,-2.9792,-2.9792,-2.9792,-2.9792,-2.9767,-2.9277,-2.9026,-2.8976,-2.8461,-2.7908,-2.7394,-2.7318,-2.6977,-2.6499,-2.6499,-2.6499,-2.6499,-2.6499,-2.6499,-2.6499,-2.6499,-2.6499,-2.6499,-2.6499,-2.6499,-2.6499,-2.6499,-2.6135,-2.5724,-2.5724,-2.4933,-2.4117,-2.4117,-2.3584,-2.3108,-2.3108,-2.3108,-2.3108,-2.3108,-2.3108,-2.3108,-2.3108,-2.3108,-2.3108,-2.3108,-2.3108,-2.3108,-2.3108,-2.3032,-2.2794,-2.2359,-2.2234,-2.1995,-2.1531,-2.1493,-2.1446,-2.1242,-2.0817,-2.0339,-1.9823,-1.9798,-1.9798,-1.9798,-1.9798,-1.9798,-1.9798,-1.9798,-1.9798,-1.9811,-2.0327,-2.0603,-1.2018,-1.3257,-1.4108,-1.2913,-1.4097,-1.5411,0.0,0.0,0.0,0.0,0.0,0.0,0.0,0.0,0.0,0.0,0.0,0.0,0.0,0.0,0.0,0.0,0.0,0.0,0.0,-2.8109,-2.8109,-2.8109,-2.8109,-2.8109,-2.8109,-2.8109,-2.8222,-2.8473,-2.8486,-2.8612,-2.8875,-2.8875,-2.9189,-2.9792,-2.9792,-2.9628,-2.9327,-2.9327,-2.9164,-2.8863,-2.8599,-2.8486,-2.8448,-2.7896,-2.7507,-2.7291,-2.6989,-2.6713,-2.6499,-2.6499,-2.6499,-2.6499,-2.6499,-2.6499,-2.6499,-2.6499,-2.6499,-2.6499,-2.6499,-2.6499,-2.6499,-2.6499,-2.6084,-2.5598,-2.5598,-2.4795,-2.4004,-2.4004,-2.3521,-2.3108,-2.3108,-2.3108,-2.3108,-2.3108,-2.3108,-2.3108,-2.3108,-2.3108,-2.3108,-2.3108,-2.3108,-2.3108,-2.3108,-2.3108,-2.3007,-2.2757,-2.2732,-2.2631,-2.2397,-2.2343,-2.2121,-2.1531,-2.1282,-2.088,-2.0314,-2.0302,-2.0125,-1.9811,-1.9798,-1.9798,-1.9798,-2.0138,-2.0302,-2.0314,-2.088,-2.1295,-1.1365,-1.2331,-1.3301,-1.3737,0.0,0.0,0.0,0.0,0.0,0.0,0.0,0.0,0.0,0.0,0.0,0.0,0.0,0.0,0.0,0.0,0.0,0.0,0.0,0.0,-2.772,-2.772,-2.772,-2.772,-2.772,-2.772,-2.772,-2.772,-2.777,-2.7908,-2.7908,-2.7971,-2.8109,-2.8109,-2.8549,-2.9402,-2.9402,-2.9164,-2.87,-2.87,-2.8511,-2.8097,-2.7971,-2.7908,-2.7871,-2.7318,-2.7128,-2.7077,-2.6663,-2.6499,-2.6499,-2.6499,-2.6499,-2.6499,-2.6499,-2.6499,-2.6499,-2.6499,-2.6499,-2.6499,-2.6499,-2.6499,-2.6499,-2.6499,-2.6084,-2.5573,-2.5448,-2.4707,-2.3966,-2.3828,-2.3421,-2.3108,-2.3108,-2.3108,-2.3108,-2.3108,-2.3108,-2.3108,-2.3108,-2.3108,-2.3108,-2.3108,-2.3108,-2.3108,-2.3108,-2.3108,-2.3108,-2.3108,-2.3108,-2.3108,-2.3108,-2.3108,-2.2744,-2.1933,-2.1757,-2.1408,-2.0717,-2.0691,-2.0415,-1.9811,-1.9798,-1.9874,-2.0012,-2.0478,-2.0754,-2.0893,-2.1458,-2.1907,-1.308,-1.3396,-1.3515,-1.483,0.0,0.0,0.0,0.0,0.0,0.0,0.0,0.0,0.0,0.0,0.0,0.0,0.0,0.0,0.0,0.0,0.0,0.0,0.0,0.0,-2.6612,-2.6612,-2.6612,-2.6612,-2.6612,-2.6612,-2.6612,-2.6612,-2.6851,-2.7318,-2.7379,-2.7595,-2.8097,-2.8109,-2.8147,-2.8222,-2.8222,-2.821,-2.816,-2.816,-2.8147,-2.8084,-2.7557,-2.7379,-2.7341,-2.6788,-2.6549,-2.6549,-2.6512,-2.6499,-2.6499,-2.6499,-2.6499,-2.6499,-2.6499,-2.6499,-2.6499,-2.6499,-2.6499,-2.6499,-2.6499,-2.6499,-2.6499,-2.6499,-2.6084,-2.5485,-2.5008,-2.4443,-2.3866,-2.3296,-2.3133,-2.3108,-2.3108,-2.3108,-2.3108,-2.3108,-2.3108,-2.3108,-2.3108,-2.3108,-2.3108,-2.3108,-2.3108,-2.3108,-2.3108,-2.3108,-2.3108,-2.3108,-2.3108,-2.3108,-2.3108,-2.3108,-2.307,-2.2995,-2.2506,-2.1782,-2.0729,-2.0691,-2.0415,-1.9811,-1.9798,-2.0075,-2.0629,-2.0679,-2.0955,-2.1471,-2.1995,-2.2272,-1.163,-1.2254,-1.2922,-1.428,0.0,0.0,0.0,0.0,0.0,0.0,0.0,0.0,0.0,0.0,0.0,0.0,0.0,0.0,0.0,0.0,0.0,0.0,0.0,-2.6499,-2.6499,-2.6499,-2.6499,-2.6499,-2.6499,-2.6499,-2.6499,-2.6499,-2.6587,-2.6801,-2.6801,-2.6901,-2.7115,-2.7115,-2.7115,-2.7128,-2.777,-2.7921,-2.7595,-2.7595,-2.7406,-2.7102,-2.6901,-2.6801,-2.6788,-2.6575,-2.6499,-2.6499,-2.6499,-2.6499,-2.6499,-2.6499,-2.6499,-2.6499,-2.6499,-2.6499,-2.6499,-2.6499,-2.6499,-2.6499,-2.6499,-2.6499,-2.6411,-2.6059,-2.5774,-2.5548,-2.536,-2.4657,-2.3941,-2.3715,-2.3358,-2.3108,-2.3108,-2.3108,-2.3108,-2.3108,-2.3108,-2.3108,-2.3108,-2.3108,-2.3108,-2.3108,-2.3108,-2.3108,-2.3108,-2.3108,-2.3108,-2.3108,-2.3108,-2.3108,-2.3108,-2.3108,-2.3108,-2.3108,-2.2907,-2.2456,-2.1719,-2.1355,-2.1106,-2.0853,-2.0541,-2.0641,-2.1207,-2.1518,-2.1794,-2.202,-2.2543,-2.2794,-1.1256,-1.2119,-1.3233,0.0,0.0,0.0,0.0,0.0,0.0,0.0,0.0,0.0,0.0,0.0,0.0,0.0,0.0,0.0,0.0,0.0,0.0,0.0,-2.6499,-2.6499,-2.6499,-2.6499,-2.6499,-2.6499,-2.6499,-2.6499,-2.6499,-2.6499,-2.6499,-2.6499,-2.6499,-2.6499,-2.6499,-2.6499,-2.6499,-2.6499,-2.7218,-2.7394,-2.7052,-2.7052,-2.6851,-2.6499,-2.6499,-2.6499,-2.6499,-2.6499,-2.6499,-2.6499,-2.6499,-2.6499,-2.6499,-2.6499,-2.6499,-2.6499,-2.6499,-2.6499,-2.6499,-2.6499,-2.6499,-2.6499,-2.6499,-2.6499,-2.6373,-2.5762,-2.5598,-2.5561,-2.5398,-2.4682,-2.3954,-2.3766,-2.3396,-2.3108,-2.3108,-2.3108,-2.3108,-2.3108,-2.3108,-2.3108,-2.3108,-2.3108,-2.3108,-2.3108,-2.3108,-2.3108,-2.3108,-2.3108,-2.3108,-2.3108,-2.3108,-2.3108,-2.3108,-2.3108,-2.3108,-2.3108,-2.3108,-2.2857,-2.2305,-2.1945,-2.1669,-2.1493,-2.1144,-2.1232,-2.1744,-2.2133,-2.2397,-2.2556,-2.2932,-2.3108,-1.2621,-1.3542,0.0,0.0,0.0,0.0,0.0,0.0,0.0,0.0,0.0,0.0,0.0,0.0,0.0,0.0,0.0,0.0,0.0,0.0,0.0,0.0,-2.6499,-2.6499,-2.6499,-2.6499,-2.6499,-2.6499,-2.6499,-2.6499,-2.6499,-2.6499,-2.6499,-2.6499,-2.6499,-2.6499,-2.6499,-2.6499,-2.6499,-2.6499,-2.6499,-2.6499,-2.6499,-2.6499,-2.6499,-2.6499,-2.6499,-2.6499,-2.6499,-2.6499,-2.6499,-2.6499,-2.6499,-2.6499,-2.6499,-2.6499,-2.6499,-2.6499,-2.6499,-2.6499,-2.6499,-2.6499,-2.6499,-2.6499,-2.6499,-2.6499,-2.6361,-2.5749,-2.5586,-2.546,-2.4913,-2.4406,-2.3841,-2.3246,-2.3108,-2.3108,-2.3108,-2.3108,-2.3108,-2.3108,-2.3108,-2.3108,-2.3108,-2.3108,-2.3108,-2.3108,-2.3108,-2.3108,-2.3108,-2.3108,-2.3108,-2.3108,-2.3108,-2.3108,-2.3108,-2.3108,-2.3108,-2.3108,-2.3108,-2.2857,-2.2347,-2.2309,-2.2058,-2.1546,-2.1493,-2.1769,-2.2322,-2.2322,-2.2569,-2.3108,-2.3108,-2.3108,-1.2621,0.0,0.0,0.0,0.0,0.0,0.0,0.0,0.0,0.0,0.0,0.0,0.0,0.0,0.0,0.0,0.0,0.0,0.0,0.0,0.0,0.0,-2.6499,-2.6499,-2.6499,-2.6499,-2.6499,-2.6499,-2.6499,-2.6499,-2.6499,-2.6499,-2.6499,-2.6499,-2.6499,-2.6499,-2.6499,-2.6499,-2.6499,-2.6499,-2.6499,-2.6499,-2.6499,-2.6499,-2.6499,-2.6499,-2.6499,-2.6499,-2.6499,-2.6499,-2.6499,-2.6499,-2.6499,-2.6499,-2.6499,-2.6499,-2.6499,-2.6499,-2.6499,-2.6499,-2.6499,-2.6499,-2.6499,-2.6499,-2.6499,-2.621,-2.5737,-2.5197,-2.477,-2.4343,-2.3747,-2.3484,-2.3421,-2.369,-2.3396,-2.3108,-2.3108,-2.3108,-2.3108,-2.3108,-2.3108,-2.3108,-2.3108,-2.3108,-2.3108,-2.3108,-2.3108,-2.3108,-2.3108,-2.3108,-2.3108,-2.3108,-2.3108,-2.3108,-2.3108,-2.3108,-2.3108,-2.3108,-2.3108,-2.3032,-2.2869,-2.2493,-2.2393,-2.2606,-2.2259,-2.2334,-2.2857,-2.2857,-2.2945,-2.3108,-2.3108,-2.3108,-1.367,0.0,0.0,0.0,0.0,0.0,0.0,0.0,0.0,0.0,0.0,0.0,0.0,0.0,0.0,0.0,0.0,0.0,0.0,0.0,0.0,-2.5812,-2.5812,-2.5812,-2.5812,-2.5812,-2.5812,-2.5812,-2.5812,-2.5812,-2.5812,-2.6034,-2.6147,-2.6147,-2.6373,-2.6499,-2.6499,-2.6499,-2.6499,-2.6499,-2.6499,-2.6499,-2.6499,-2.6499,-2.6499,-2.6499,-2.6499,-2.6499,-2.6499,-2.6499,-2.6499,-2.6499,-2.6499,-2.6499,-2.6499,-2.6499,-2.6499,-2.6499,-2.6499,-2.6499,-2.6499,-2.6499,-2.6336,-2.6147,-2.6147,-2.5724,-2.5172,-2.4644,-2.4255,-2.3866,-2.3258,-2.3108,-2.3195,-2.3547,-2.3358,-2.3108,-2.3108,-2.3108,-2.3108,-2.3108,-2.3108,-2.3108,-2.3108,-2.3108,-2.3108,-2.3108,-2.3108,-2.3108,-2.3108,-2.3108,-2.3108,-2.3108,-2.3108,-2.3108,-2.3108,-2.3108,-2.3108,-2.3108,-2.3108,-2.3108,-2.3108,-2.2782,-2.2769,-2.3095,-2.2782,-2.2669,-2.2782,-2.2995,-2.2995,-2.2782,-2.3007,-2.2995,0.0,0.0,0.0,0.0,0.0,0.0,0.0,0.0,0.0,0.0,0.0,0.0,0.0,0.0,0.0,0.0,0.0,0.0,-2.4745,-2.4852,0.0,-2.482,-2.4788,-2.4788,-2.4788,-2.4788,-2.482,-2.4917,-2.4904,-2.4904,-2.4904,-2.5423,-2.5709,-2.561,-2.6215,-2.6561,-2.6561,-2.6459,-2.6438,-2.6438,-2.6438,-2.6404,-2.6348,-2.6449,-2.6499,-2.6499,-2.6499,-2.6499,-2.6499,-2.6499,-2.6499,-2.6499,-2.6499,-2.6499,-2.6499,-2.6499,-2.6499,-2.6499,-2.6499,-2.6499,-2.6487,-2.6436,-2.6059,-2.5586,-2.5536,-2.5159,-2.4644,-2.4142,-2.3966,-2.3803,-2.3246,-2.3108,-2.3108,-2.3108,-2.3108,-2.3108,-2.3108,-2.3108,-2.3108,-2.3108,-2.3108,-2.3108,-2.3108,-2.3108,-2.3108,-2.3108,-2.3108,-2.3108,-2.3108,-2.3108,-2.3108,-2.3108,-2.3108,-2.3108,-2.3108,-2.3108,-2.3108,-2.3108,-2.3108,-2.3108,-2.3108,-2.3108,-2.3108,-2.3108,-2.3108,-2.2832,-2.2309,-2.2782,-2.2744,-2.2246,-2.2719,-2.2681,0.0,0.0,0.0,0.0,0.0,0.0,0.0,0.0,0.0,0.0,0.0,0.0,0.0,0.0,0.0,0.0,0.0,0.0,-2.4796,-2.5313,-2.5445,-2.4872,-2.4788,-2.4788,-2.4788,-2.4788,-2.5052,-2.5621,-2.5652,-2.5652,-2.5652,-2.6321,-2.6418,-2.5853,-2.6521,-2.6883,-2.6883,-2.6319,-2.6017,-2.6017,-2.6017,-2.5724,-2.5209,-2.6097,-2.6499,-2.6499,-2.6499,-2.6499,-2.6499,-2.6499,-2.6499,-2.6499,-2.6499,-2.6499,-2.6499,-2.6499,-2.6499,-2.6499,-2.6499,-2.6499,-2.6411,-2.5971,-2.5699,-2.5523,-2.5109,-2.4607,-2.4155,-2.4029,-2.3665,-2.3258,-2.3133,-2.3108,-2.3108,-2.3108,-2.3108,-2.3108,-2.3108,-2.3108,-2.3108,-2.3108,-2.3108,-2.3108,-2.3108,-2.3108,-2.3108,-2.3108,-2.3108,-2.3108,-2.3108,-2.3108,-2.3108,-2.3108,-2.3108,-2.3108,-2.3108,-2.3108,-2.3108,-2.3108,-2.3108,-2.3108,-2.3108,-2.3108,-2.3108,-2.3108,-2.3108,-2.2832,-2.2309,-2.2435,-2.2209,-2.1669,-2.1782,-2.1782,0.0,0.0,0.0,0.0,0.0,0.0,0.0,0.0,0.0,0.0,0.0,0.0,0.0,0.0,0.0,0.0,0.0,0.0,-2.506,-2.5402,-2.5402,-2.464,-2.4561,-2.4407,-2.4017,-2.3985,-2.4302,-2.5086,-2.5133,-2.5283,-2.5654,-2.6265,-2.6458,-2.6072,-2.6658,-2.7003,-2.7003,-2.6613,-2.6445,-2.6445,-2.6445,-2.603,-2.5326,-2.5595,-2.5674,-2.5674,-2.5674,-2.5674,-2.5699,-2.5971,-2.6084,-2.6109,-2.6386,-2.6323,-2.6084,-2.6084,-2.5921,-2.5674,-2.5674,-2.5674,-2.5624,-2.5322,-2.5046,-2.4782,-2.4506,-2.4029,-2.359,-2.359,-2.3333,-2.3108,-2.3108,-2.3108,-2.3108,-2.3108,-2.3108,-2.3108,-2.3108,-2.3108,-2.3108,-2.3108,-2.3108,-2.3108,-2.3108,-2.3108,-2.3108,-2.3108,-2.3108,-2.3108,-2.3108,-2.3108,-2.3108,-2.3108,-2.3108,-2.3108,-2.3108,-2.3108,-2.3108,-2.3108,-2.3108,-2.3108,-2.3108,-2.3108,-2.3108,-2.3108,-2.3108,-2.2706,-2.192,-2.2184,-2.1895,-2.1131,-2.1395,-2.1343,0.0,0.0,0.0,0.0,0.0,0.0,0.0,0.0,0.0,0.0,0.0,0.0,0.0,0.0,0.0,0.0,0.0,0.0,-2.5315,-2.5508,-2.5315,-2.4567,-2.4481,-2.4221,-2.356,-2.3501,-2.3767,-2.4423,-2.4595,-2.4908,-2.537,-2.6064,-2.6385,-2.6257,-2.6802,-2.711,-2.711,-2.6994,-2.6906,-2.6906,-2.6672,-2.6286,-2.5786,-2.4905,-2.46,-2.4788,-2.4788,-2.4788,-2.4825,-2.5285,-2.546,-2.5511,-2.6021,-2.5921,-2.546,-2.546,-2.5197,-2.4788,-2.4788,-2.4788,-2.4775,-2.4675,-2.4368,-2.3979,-2.3879,-2.3484,-2.3108,-2.3108,-2.3108,-2.3108,-2.3108,-2.3108,-2.3108,-2.3108,-2.3108,-2.3108,-2.3108,-2.3108,-2.3108,-2.3108,-2.3108,-2.3108,-2.3108,-2.3108,-2.3108,-2.3108,-2.3108,-2.3108,-2.3108,-2.3108,-2.3108,-2.3108,-2.3108,-2.3108,-2.3108,-2.3108,-2.3108,-2.3108,-2.3108,-2.3108,-2.3108,-2.3108,-2.3058,-2.2957,-2.2957,-2.2498,-2.1493,-2.1845,-2.1506,-2.0553,-2.0991,-2.0981,0.0,0.0,0.0,0.0,0.0,0.0,0.0,0.0,0.0,0.0,0.0,0.0,0.0,0.0,0.0,0.0,0.0,0.0,-2.5398,-2.596,-2.6095,-2.5342,-2.5259,-2.5203,-2.5119,-2.5091,-2.5147,-2.5259,-2.5837,-2.5987,-2.5425,-2.6674,-2.7125,-2.6465,-2.7161,-2.7517,-2.7517,-2.6874,-2.6553,-2.6553,-2.5267,-2.4924,-2.5408,-2.3986,-2.386,-2.4788,-2.4788,-2.4788,-2.48,-2.4863,-2.4888,-2.4901,-2.5008,-2.4996,-2.4888,-2.4888,-2.485,-2.4788,-2.4788,-2.4788,-2.4713,-2.4268,-2.4054,-2.3904,-2.3371,-2.3158,-2.3108,-2.3108,-2.3108,-2.3108,-2.3108,-2.3108,-2.3108,-2.3108,-2.3108,-2.3108,-2.3108,-2.3108,-2.3108,-2.3108,-2.3108,-2.3108,-2.3108,-2.3108,-2.3108,-2.3108,-2.3108,-2.3108,-2.3108,-2.3108,-2.3108,-2.3108,-2.3108,-2.3108,-2.3108,-2.3108,-2.3108,-2.3108,-2.3108,-2.3108,-2.3108,-2.3108,-2.2882,-2.2435,-2.2422,-2.2121,-2.1493,-2.1119,-2.0578,-1.9924,-1.9999,-1.9987,0.0,0.0,0.0,0.0,0.0,0.0,0.0,0.0,0.0,0.0,0.0,0.0,0.0,0.0,0.0,0.0,0.0,0.0,-2.6561,-2.6916,-2.6852,-2.6095,-2.6014,-2.5837,-2.5425,-2.5398,-2.5563,-2.5987,-2.631,-2.6522,-2.6628,-2.724,-2.7458,-2.7126,-2.7433,-2.76,-2.76,-2.728,-2.7126,-2.7126,-2.6455,-2.6094,-2.5987,-2.5301,-2.4572,-2.3847,-2.3847,-2.3847,-2.3873,-2.4217,-2.4356,-2.4393,-2.4662,-2.4874,-2.4913,-2.4501,-2.4423,-2.4468,-2.399,-2.3847,-2.381,-2.3559,-2.3484,-2.3434,-2.3183,-2.3108,-2.3108,-2.3108,-2.3108,-2.3108,-2.3108,-2.3108,-2.3108,-2.3108,-2.3108,-2.3108,-2.3108,-2.3108,-2.3108,-2.3108,-2.3108,-2.3108,-2.3108,-2.3108,-2.3108,-2.3108,-2.3108,-2.3108,-2.3108,-2.3108,-2.3108,-2.3108,-2.3108,-2.3108,-2.3108,-2.3108,-2.3108,-2.3108,-2.3108,-2.3108,-2.3108,-2.3108,-2.2844,-2.2322,-2.2309,-2.1895,-2.1056,-2.0817,-2.0402,-1.9798,-1.9798,-1.9798,0.0,0.0,0.0,0.0,0.0,0.0,0.0,0.0,0.0,0.0,0.0,0.0,0.0,0.0,0.0,0.0,0.0,0.0,0.0,-2.724,-2.7129,-2.6578,-2.6672,-2.6549,-2.6027,-2.5973,-2.6108,-2.6484,-2.6669,-2.693,-2.7306,-2.7484,-2.76,-2.76,-2.76,-2.76,-2.76,-2.76,-2.76,-2.76,-2.7408,-2.7034,-2.6484,-2.631,-2.5301,-2.3666,-2.3666,-2.3666,-2.3704,-2.3986,-2.4195,-2.4373,-2.4593,-2.4756,-2.482,-2.4274,-2.4034,-2.3914,-2.3305,-2.3108,-2.3108,-2.3108,-2.3108,-2.3108,-2.3108,-2.3108,-2.3108,-2.3108,-2.3108,-2.3108,-2.3108,-2.3108,-2.3108,-2.3108,-2.3108,-2.3108,-2.3108,-2.3108,-2.3108,-2.3108,-2.3108,-2.3108,-2.3108,-2.3108,-2.3108,-2.3108,-2.3108,-2.3108,-2.3108,-2.3108,-2.3108,-2.3108,-2.3108,-2.3108,-2.3108,-2.3108,-2.3108,-2.3108,-2.3108,-2.3108,-2.3108,-2.3108,-2.2782,-2.2121,-2.2108,-2.1631,-2.0691,-2.0541,-2.0251,-1.9798,-1.9798,-1.9798,0.0,0.0,0.0,0.0,0.0,0.0,0.0,0.0,0.0,0.0,0.0,0.0,0.0,0.0,0.0,0.0,0.0,0.0,0.0,-2.6243,-2.6647,-2.6583,-2.7161,-2.7524,-2.7484,-2.7484,-2.7214,-2.6537,-2.7152,-2.7255,-2.659,-2.7229,-2.76,-2.76,-2.76,-2.76,-2.76,-2.76,-2.76,-2.76,-2.6878,-2.6537,-2.6484,-2.5783,-2.5398,-2.5287,-2.5287,-2.5287,-2.5231,-2.4549,-2.4706,-2.5258,-2.4589,-2.4329,-2.4345,-2.4316,-2.3806,-2.3168,-2.3108,-2.3108,-2.3108,-2.3108,-2.3108,-2.3108,-2.3108,-2.3108,-2.3108,-2.3108,-2.3108,-2.3108,-2.3108,-2.3108,-2.3108,-2.3108,-2.3108,-2.3108,-2.3108,-2.3108,-2.3108,-2.3108,-2.3108,-2.3108,-2.3108,-2.3108,-2.3108,-2.3108,-2.3108,-2.3108,-2.3108,-2.3108,-2.3108,-2.3108,-2.3108,-2.3108,-2.3108,-2.3108,-2.3108,-2.3108,-2.3108,-2.3108,-2.3108,-2.3108,-2.2606,-2.1556,-2.1531,-2.127,-2.0691,-2.0138,-1.9823,-1.9798,-1.9798,-1.9798,0.0,0.0,0.0,0.0,0.0,0.0,0.0,0.0,0.0,0.0,0.0,0.0,0.0,0.0,0.0,0.0,0.0,0.0,0.0,-2.5809,-2.5959,-2.5959,-2.6168,-2.6318,-2.6318,-2.6318,-2.6206,-2.5923,-2.6158,-2.6206,-2.5938,-2.6158,-2.6497,-2.6956,-2.6971,-2.7165,-2.76,-2.76,-2.76,-2.76,-2.7331,-2.7203,-2.7203,-2.6916,-2.6811,-2.6811,-2.6811,-2.6269,-2.537,-2.5119,-2.5147,-2.5315,-2.4595,-2.4595,-2.4908,-2.3872,-2.3679,-2.3796,-2.3275,-2.3108,-2.3108,-2.3108,-2.3108,-2.3108,-2.3108,-2.3108,-2.3108,-2.3108,-2.3108,-2.3108,-2.3108,-2.3108,-2.3108,-2.3108,-2.3108,-2.3108,-2.3108,-2.3108,-2.3108,-2.3108,-2.3108,-2.3108,-2.3108,-2.3108,-2.3108,-2.3108,-2.3108,-2.3108,-2.3108,-2.3108,-2.3108,-2.3108,-2.3108,-2.3108,-2.3108,-2.3108,-2.3108,-2.3108,-2.3108,-2.3108,-2.3108,-2.3108,-2.2594,-2.1506,-2.1493,-2.1041,-2.0112,-1.9911,-1.9798,-1.9798,-1.9798,-1.9798,0.0,0.0,0.0,0.0,0.0,0.0,0.0,0.0,0.0,0.0,0.0,0.0,0.0,0.0,0.0,0.0,0.0,0.0,0.0,-2.5136,-2.5247,-2.5247,-2.5457,-2.5615,-2.5615,-2.5615,-2.5615,-2.5615,-2.5615,-2.5615,-2.5615,-2.5615,-2.5809,-2.6243,-2.6482,-2.6821,-2.727,-2.748,-2.76,-2.76,-2.76,-2.76,-2.76,-2.76,-2.76,-2.76,-2.76,-2.7045,-2.6135,-2.5864,-2.5755,-2.5701,-2.4951,-2.4823,-2.4894,-2.3884,-2.3649,-2.3826,-2.3275,-2.3108,-2.3125,-2.3424,-2.3305,-2.3155,-2.3424,-2.3305,-2.3108,-2.3108,-2.3108,-2.3108,-2.3108,-2.3108,-2.3108,-2.3108,-2.3108,-2.3108,-2.3108,-2.3108,-2.3108,-2.3108,-2.3108,-2.3108,-2.3108,-2.3108,-2.3108,-2.3108,-2.3108,-2.3108,-2.3108,-2.3108,-2.3108,-2.3108,-2.3108,-2.3108,-2.3108,-2.3108,-2.3108,-2.3108,-2.3108,-2.3108,-2.3108,-2.3108,-2.2594,-2.1506,-2.1493,-2.0928,-1.9798,-1.9798,-1.9798,-1.9798,-1.9798,-1.9911,0.0,0.0,0.0,0.0,0.0,0.0,0.0,0.0,0.0,0.0,0.0,0.0,0.0,0.0,0.0,0.0,0.0,0.0,0.0,-2.4156,-2.4575,-2.4575,-2.5128,-2.5555,-2.5555,-2.5555,-2.5555,-2.5555,-2.5555,-2.5555,-2.5555,-2.557,-2.5561,-2.5561,-2.6213,-2.6557,-2.6557,-2.7225,-2.754,-2.754,-2.754,-2.754,-2.757,-2.757,-2.7585,-2.76,-2.76,-2.76,-2.7534,-2.6826,-2.6537,-2.6457,-2.5728,-2.5007,-2.435,-2.435,-2.3826,-2.3168,-2.3168,-2.3168,-2.3305,-2.406,-2.3767,-2.3275,-2.4031,-2.3708,-2.3108,-2.3108,-2.3108,-2.3108,-2.3108,-2.3108,-2.3108,-2.3108,-2.3108,-2.3108,-2.3108,-2.3108,-2.3108,-2.3108,-2.3108,-2.3108,-2.3108,-2.3108,-2.3108,-2.3108,-2.3108,-2.3108,-2.3108,-2.3108,-2.3108,-2.3108,-2.3108,-2.3108,-2.3108,-2.3108,-2.3108,-2.3108,-2.3108,-2.3108,-2.3108,-2.3083,-2.2569,-2.1506,-2.1468,-2.0916,-1.9798,-1.9798,-1.9798,-1.9798,-1.9798,-2.0125,-0.9062,0.0,0.0,0.0,0.0,0.0,0.0,0.0,0.0,0.0,0.0,0.0,0.0,0.0,0.0,0.0,0.0,0.0,0.0,-2.3759,-2.3879,-2.3879,-2.4044,-2.4148,-2.4148,-2.4148,-2.4148,0.0,-2.4148,-2.4148,-2.4148,-2.4605,-2.4874,-2.4874,-2.554,-2.5884,-2.5884,-2.6063,-2.6153,-2.6153,-2.6153,-2.6408,-2.6881,-2.6881,-2.7151,-2.76,-2.76,-2.76,-2.7575,-2.7382,-2.7306,-2.7229,-2.6469,-2.6068,-2.5837,-2.5287,-2.4951,-2.4753,-2.4753,-2.4753,-2.4724,-2.4394,-2.4147,-2.3884,-2.3543,-2.3275,-2.3108,-2.3108,-2.3108,-2.3108,-2.3108,-2.3108,-2.3108,-2.3108,-2.3108,-2.3108,-2.3108,-2.3108,-2.3108,-2.3108,-2.3108,-2.3108,-2.3108,-2.3108,-2.3108,-2.3108,-2.3108,-2.3108,-2.3108,-2.3108,-2.3108,-2.3108,-2.3108,-2.3108,-2.3108,-2.3108,-2.3108,-2.3108,-2.3108,-2.3108,-2.3108,-2.2719,-2.2209,-2.1506,-2.1119,-2.0566,-1.9798,-1.9798,-1.9798,-1.9798,-1.9798,-1.9982,0.0,0.0,0.0,0.0,0.0,0.0,0.0,-1.4227,0.0,0.0,0.0,0.0,0.0,0.0,0.0,0.0,0.0,0.0,0.0,0.0,-2.2802,-2.2802,-2.2802,-2.2921,-2.3212,-2.3206,-2.3325,-2.358,-2.3595,-2.3595,-2.3595,-2.3984,-2.4171,-2.4171,-2.4829,-2.5173,-2.5173,-2.5457,-2.5615,-2.5615,-2.5615,-2.5809,-2.6183,-2.6183,-2.6393,-2.6791,-2.7061,-2.718,-2.721,-2.748,-2.7408,-2.71,-2.6669,-2.631,-2.5987,-2.5563,-2.5398,-2.5398,-2.5398,-2.5398,-2.5315,-2.4908,-2.4538,-2.4205,-2.3738,-2.3365,-2.3108,-2.3108,-2.3108,-2.3108,-2.3108,-2.3108,-2.3108,-2.3108,-2.3108,-2.3108,-2.3108,-2.3108,-2.3108,-2.3108,-2.3108,-2.3108,-2.3108,-2.3108,-2.3108,-2.3108,-2.3108,-2.3108,-2.3108,-2.3108,-2.3108,-2.3108,-2.3108,-2.3108,-2.3108,-2.3108,-2.3108,-2.3108,-2.3108,-2.2995,-2.2769,-2.2456,-2.1945,-2.1182,-2.0855,-2.0402,-1.9798,-1.9798,-1.9798,-1.9798,-1.9798,-2.0025,0.0,0.0,0.0,0.0,0.0,0.0,-1.4856,-1.4496,-1.4049,0.0,0.0,0.0,0.0,0.0,0.0,0.0,0.0,0.0,0.0,0.0,-2.1695,-2.1695,-2.1695,-2.1919,-2.2523,-2.2583,-2.2823,-2.3355,-2.346,-2.349,-2.349,-2.3565,-2.3595,-2.3595,-2.4171,-2.4485,-2.4485,-2.5068,-2.539,-2.539,-2.539,-2.5435,-2.5495,-2.5495,-2.554,-2.5621,-2.6228,-2.6482,-2.6527,-2.721,-2.7155,-2.6616,-2.6616,-2.6229,-2.5618,-2.5563,-2.5508,-2.5508,-2.5425,-2.5398,-2.5398,-2.5287,-2.4823,-2.4292,-2.4205,-2.3649,-2.3108,-2.3108,-2.3108,-2.3108,-2.3108,-2.3108,-2.3108,-2.3108,-2.3108,-2.3108,-2.3108,-2.3108,-2.3108,-2.3108,-2.3108,-2.3108,-2.3108,-2.3108,-2.3108,-2.3108,-2.3108,-2.3108,-2.3108,-2.3108,-2.3108,-2.3108,-2.3108,-2.3108,-2.3108,-2.3108,-2.3108,-2.3108,-2.3108,-2.2857,-2.2305,-2.2246,-2.1732,-2.0717,-2.0629,-2.0352,-1.9798,-1.9798,-1.9798,-1.9798,-1.9798,-2.006,-1.4558,-1.5053,-1.5621,-1.432,0.0,0.0,-1.2834,-1.2804,-1.3223,0.0,0.0,0.0,0.0,0.0,0.0,0.0,0.0,0.0,0.0,0.0,0.0,-2.1695,-2.1695,-2.1739,-2.1874,-2.1889,-2.1934,-2.2054,-2.2583,-2.2882,-2.2882,-2.3325,-2.3595,-2.3595,-2.3729,-2.3804,-2.3804,-2.3924,-2.3984,-2.3984,-2.3984,-2.4261,-2.4799,-2.4799,-2.5083,-2.5615,-2.5749,-2.5809,-2.5854,-2.6512,-2.7046,-2.7382,-2.7382,-2.7306,-2.7111,-2.6496,-2.6283,-2.6203,-2.5618,-2.5398,-2.5287,-2.4709,-2.4436,-2.4176,-2.3543,-2.3215,-2.3108,-2.3108,-2.3108,-2.3108,-2.3108,-2.3108,-2.3108,-2.3108,-2.3108,-2.3108,-2.3108,-2.3108,-2.3108,-2.3108,-2.3108,-2.3108,-2.3108,-2.3108,-2.3108,-2.3108,-2.3108,-2.3108,-2.3108,-2.3108,-2.3108,-2.3108,-2.3108,-2.3108,-2.3108,-2.3108,-2.3108,-2.3108,-2.3108,-2.2857,-2.2305,-2.1882,-2.1343,-2.0704,-2.0239,-1.9911,-1.9798,-1.9798,-1.9798,-1.9798,-1.9798,-1.9746,-1.6503,-1.6712,-1.6965,-1.5994,0.0,0.0,0.0,-1.3538,-1.357,-1.4588,0.0,0.0,0.0,0.0,0.0,0.0,0.0,0.0,0.0,0.0,0.0,-2.0711,-2.0711,-2.0827,-2.1171,-2.1201,-2.1335,-2.1665,-2.1994,-2.2209,-2.2209,-2.2823,-2.3152,-2.3152,-2.343,-2.3595,-2.3595,-2.3595,-2.3595,-2.3595,-2.3595,-2.3789,-2.4096,-2.4096,-2.4276,-2.4627,-2.4948,-2.5098,-2.5143,-2.5824,-2.6303,-2.6662,-2.7345,-2.76,-2.7575,-2.7163,-2.7034,-2.7008,-2.6628,-2.6508,-2.6375,-2.5646,-2.5147,-2.4696,-2.3943,-2.3424,-2.3108,-2.3108,-2.3108,-2.3108,-2.3108,-2.3108,-2.3108,-2.3108,-2.3108,-2.3108,-2.3108,-2.3108,-2.3108,-2.3108,-2.3108,-2.3108,-2.3108,-2.3108,-2.3108,-2.3108,-2.3108,-2.3108,-2.3108,-2.3108,-2.3108,-2.3108,-2.3108,-2.3108,-2.3108,-2.3108,-2.3108,-2.3108,-2.2844,-2.2443,-2.192,-2.1408,-2.0842,-2.0264,-1.9949,-1.9798,-1.9798,-1.9798,-1.9798,-1.9798,-1.9798,-1.9728,0.0,0.0,0.0,0.0,0.0,-1.6233,0.0,0.0,0.0,-1.5245,0.0,0.0,0.0,0.0,0.0,0.0,0.0,0.0,0.0,0.0,0.0,-1.9121,-1.9346,-1.972,-2.0255,-2.0195,-2.0434,-2.1246,-2.1201,-2.1231,-2.1485,-2.2149,-2.2568,-2.2703,-2.3182,-2.3475,-2.3595,-2.3595,-2.3595,-2.3595,-2.3595,-2.3595,-2.3595,-2.3595,-2.3595,-2.3625,-2.4171,-2.441,-2.4455,-2.5128,-2.5397,-2.554,-2.6746,-2.721,-2.72,-2.7061,-2.6996,-2.6971,-2.683,-2.6703,-2.6539,-2.6028,-2.5466,-2.4866,-2.425,-2.3632,-2.3108,-2.3108,-2.3108,-2.3108,-2.3108,-2.3108,-2.3108,-2.3108,-2.3108,-2.3108,-2.3108,-2.3108,-2.3108,-2.3108,-2.3108,-2.3108,-2.3108,-2.3108,-2.3108,-2.3108,-2.3108,-2.3108,-2.3108,-2.3108,-2.3108,-2.3108,-2.3108,-2.3108,-2.3108,-2.3108,-2.3058,-2.2957,-2.2531,-2.202,-2.1355,-2.0817,-2.0302,-1.9811,-1.9798,-1.9798,-1.9798,-1.9798,-1.9798,-1.9798,-1.9798,-1.9798,0.0,0.0,0.0,0.0,-1.8027,0.0,0.0,0.0,-1.5275,-1.4244,0.0,0.0,0.0,0.0,0.0,0.0,0.0,0.0,0.0,0.0,0.0,0.0,-1.8087,-1.8852,-1.8927,-1.8386,-1.8565,-1.9842,-1.9375,-1.957,-2.0748,-2.1455,-2.2104,-2.2673,-2.2763,-2.3062,-2.3595,-2.3595,-2.3595,-2.3595,-2.3595,-2.3595,-2.3595,-2.3595,-2.3595,-2.3595,-2.3684,-2.3714,-2.3774,-2.444,-2.4709,-2.4784,-2.5555,-2.5839,-2.5753,-2.5082,-2.4846,-2.4772,-2.4089,-2.3494,-2.3058,-2.3508,-2.3527,-2.3335,-2.3245,-2.3155,-2.3108,-2.3108,-2.3108,-2.3108,-2.3108,-2.3108,-2.3108,-2.3108,-2.3108,-2.3108,-2.3108,-2.3108,-2.3108,-2.3108,-2.3108,-2.3108,-2.3108,-2.3108,-2.3108,-2.3108,-2.3108,-2.3108,-2.3108,-2.3108,-2.3108,-2.3108,-2.3108,-2.3108,-2.3108,-2.3108,-2.2895,-2.2406,-2.2347,-2.1845,-2.083,-2.0239,-1.9874,-1.9798,-1.9798,-1.9798,-1.9798,-1.9798,-1.9798,-1.9798,-1.9798,-1.9798,0.0,0.0,0.0,0.0,0.0,0.0,-1.6249,0.0,-1.5739,0.0,0.0,0.0,0.0,0.0,0.0,0.0,0.0,0.0,0.0,0.0,0.0,0.0,0.0,0.0,-1.7519,-1.7654,-1.7938,-1.8508,-1.8267,-1.8536,-1.9495,-2.0543,-2.1261,-2.153,-2.2298,-2.2823,-2.3077,-2.3415,-2.3595,-2.3595,-2.3595,-2.3595,-2.3595,-2.3595,-2.3595,-2.3595,-2.3595,-2.3595,-2.3625,-2.3909,-2.4007,-2.4059,-2.4343,-2.4911,-2.5553,-2.5254,-2.5143,-2.5096,-2.4791,-2.4269,-2.364,-2.3085,-2.308,-2.3193,-2.2766,-2.2844,-2.3108,-2.3108,-2.3108,-2.3108,-2.3108,-2.3108,-2.3108,-2.3108,-2.3108,-2.3108,-2.3108,-2.3108,-2.3108,-2.3108,-2.3108,-2.3108,-2.3108,-2.3108,-2.3108,-2.3108,-2.3108,-2.3108,-2.3108,-2.3108,-2.3108,-2.3108,-2.3108,-2.3108,-2.3108,-2.3108,-2.2869,-2.2347,-2.1707,-2.1018,-2.02,-1.9924,-1.9798,-1.9798,-1.9798,-1.9798,-1.9798,-1.9798,-1.9798,-1.9798,-1.9798,-1.9798,-1.9708,0.0,0.0,0.0,0.0,0.0,0.0,0.0,0.0,0.0,0.0,0.0,0.0,0.0,0.0,0.0,0.0,0.0,0.0,0.0,0.0,0.0,0.0,0.0,0.0,-1.6398,-1.6652,-1.7369,-1.6921,-1.7235,-1.8627,-1.963,-2.0314,-2.0688,-2.1635,-2.2328,-2.2703,-2.3116,-2.343,-2.3595,-2.3595,-2.3595,-2.3595,-2.3595,-2.3595,-2.3595,-2.3595,-2.3595,-2.3595,-2.3595,-2.3595,-2.3595,-2.3595,-2.4193,-2.5061,-2.5061,-2.5061,-2.5061,-2.5061,-2.4755,-2.4151,-2.2772,-2.2696,-2.3018,-2.2477,-2.2556,-2.2907,-2.3058,-2.3108,-2.3108,-2.3108,-2.3108,-2.3108,-2.3108,-2.3108,-2.3108,-2.3108,-2.3108,-2.3108,-2.3108,-2.3108,-2.3108,-2.3108,-2.3108,-2.3108,-2.3108,-2.3108,-2.3108,-2.3108,-2.3108,-2.3108,-2.3108,-2.3108,-2.3108,-2.3108,-2.297,-2.2581,-2.1907,-2.0993,-2.0264,-1.9823,-1.9798,-1.9798,-1.9798,-1.9798,-1.9798,-1.9798,-1.9798,-1.9798,-1.9798,-1.9798,-1.9798,0.0,0.0,0.0,-1.8057,0.0,0.0,0.0,0.0,-1.6681,0.0,0.0,0.0,0.0,0.0,0.0,0.0,0.0,0.0,0.0,0.0,0.0,0.0,0.0,0.0,0.0,-1.409,-1.4004,0.0,-1.4979,-1.5307,-1.8538,-1.8747,-1.9361,-2.0658,-2.0733,-2.1395,-2.2688,-2.2718,-2.3032,-2.3595,-2.3595,-2.3595,-2.3595,-2.3595,-2.3595,-2.3595,-2.3595,-2.3595,-2.3595,-2.3595,-2.3595,-2.3595,-2.3595,-2.3625,-2.3655,-2.3655,-2.3655,-2.3655,-2.3655,-2.3612,-2.3325,-2.2064,-2.1996,-2.2425,-2.2334,-2.2293,-2.2418,-2.2957,-2.3108,-2.3108,-2.3108,-2.3108,-2.3108,-2.3108,-2.3108,-2.3108,-2.3108,-2.3108,-2.3108,-2.3108,-2.3108,-2.3108,-2.3108,-2.3108,-2.3108,-2.3108,-2.3108,-2.3108,-2.3108,-2.3108,-2.3108,-2.3108,-2.3108,-2.3108,-2.3108,-2.2619,-2.1882,-2.0817,-2.0189,-1.9823,-1.9798,-1.9798,-1.9798,-1.9798,-1.9798,-1.9798,-1.9798,-1.9798,-1.9798,-1.9798,-1.9798,-1.9798,-1.9708,-1.9708,-1.9465,-1.8597,-1.8027,0.0,0.0,0.0,0.0,0.0,0.0,0.0,0.0,0.0,0.0,0.0,0.0,0.0,0.0,0.0,0.0,0.0,0.0,0.0,0.0,0.0,0.0,-1.471,-1.4992,0.0,-1.7938,-1.8882,-1.957,-2.0019,-2.0483,-2.1141,-2.2044,-2.2478,-2.3002,-2.3595,-2.3595,-2.3595,-2.3595,-2.3595,-2.3595,-2.3595,-2.3595,-2.3595,-2.3595,-2.3595,-2.3595,-2.3595,-2.3595,-2.3595,-2.3595,-2.3595,-2.3595,-2.3551,-2.3143,-2.2997,-2.2826,-2.1956,-2.2002,-2.2402,-2.2365,-2.2563,-2.2869,-2.3058,-2.3108,-2.3108,-2.3108,-2.3108,-2.3108,-2.3108,-2.3108,-2.3108,-2.3108,-2.3108,-2.3108,-2.3108,-2.3108,-2.3108,-2.3108,-2.3108,-2.3108,-2.3108,-2.3108,-2.3108,-2.3108,-2.3108,-2.3108,-2.3108,-2.3108,-2.3108,-2.3108,-2.2297,-2.1455,-2.0742,-2.0125,-1.9798,-1.9798,-1.9798,-1.9798,-1.9798,-1.9798,-1.9798,-1.9798,-1.9798,-1.9798,-1.9798,-1.9798,-1.9798,-1.9708,-1.9708,-1.9543,-1.8867,-1.8371,-1.7878,-1.7219,0.0,-1.7413,0.0,0.0,0.0,0.0,0.0,0.0,0.0,0.0,0.0,0.0,-1.0464,0.0,0.0,0.0,0.0,0.0,0.0,-1.2703,-1.3391,-1.4017,0.0,0.0,-1.8386,-1.9211,-1.9693,-2.0124,-2.0677,-2.1335,-2.1769,-2.2293,-2.2921,-2.3182,-2.3266,-2.3302,-2.349,-2.3595,-2.3595,-2.3595,-2.3595,-2.3595,-2.3595,-2.3595,-2.3595,-2.3595,-2.3595,-2.3595,-2.3595,-2.3595,-2.3551,-2.3143,-2.3009,-2.286,-2.1993,-2.1907,-2.2152,-2.2083,-2.2283,-2.2606,-2.2995,-2.3108,-2.3108,-2.3108,-2.3108,-2.3108,-2.3108,-2.3108,-2.3108,-2.3108,-2.3108,-2.3108,-2.3108,-2.3108,-2.3108,-2.3108,-2.3108,-2.3108,-2.3108,-2.3108,-2.3108,-2.3108,-2.3108,-2.3108,-2.3108,-2.3108,-2.2945,-2.2556,-2.1895,-2.1194,-2.0427,-2.0012,-1.9798,-1.9798,-1.9798,-1.9798,-1.9798,-1.9798,-1.9798,-1.9798,-1.9798,-1.9798,-1.9798,-1.9798,-1.9798]},{"header":{"parameterUnit":"m.s-1","parameterCategory":1,"la1":30.6,"la2":29.2853,"lo1":-89.7004,"lo2":-87.6739,"dy":0.0162,"dx":0.0183,"nx":112,"ny":82,"refTime":"2024-07-26T12:00:00:Z","depth":0,"parameterNumber":3,"parameterNumberName":"V-component_of_WINDS"},"data":[0.0,0.0,0.0,0.0,0.0,0.0,0.0,0.0,0.0,0.0,0.0,0.0,0.0,0.0,0.0,0.0,0.0,0.0,0.0,0.0,0.0,0.0,0.0,0.0,0.0,0.0,0.0,0.0,0.0,0.0,0.0,0.0,0.0,0.0,0.0,0.0,0.0,0.0,0.0,0.0,0.0,0.0,0.0,0.0,0.0,0.0,0.0,0.0,0.0,0.0,0.0,0.0,0.0,0.0,0.0,0.0,0.0,0.0,0.0,0.0,0.0,0.0,0.0,0.0,0.0,0.0,0.0,0.0,0.0,0.0,0.0,0.0,0.0,0.0,0.0,0.0,0.0,0.0,0.0,0.0,0.0,0.0,0.0,0.0,0.0,0.0,0.0,0.0,0.0,0.0,0.0,-1.719,-2.0331,-2.2296,-2.2296,-2.1617,-1.965,-1.6011,0.0,0.0,0.0,0.0,0.0,0.0,0.0,0.0,0.0,0.0,0.0,0.0,0.0,0.0,0.0,0.0,0.0,0.0,0.0,0.0,0.0,0.0,0.0,0.0,0.0,0.0,0.0,0.0,0.0,0.0,0.0,0.0,0.0,0.0,0.0,0.0,0.0,0.0,0.0,0.0,0.0,0.0,0.0,0.0,0.0,0.0,0.0,0.0,0.0,0.0,0.0,0.0,0.0,0.0,0.0,0.0,0.0,0.0,0.0,0.0,0.0,0.0,0.0,0.0,0.0,0.0,0.0,0.0,0.0,0.0,0.0,0.0,0.0,0.0,0.0,0.0,0.0,0.0,0.0,0.0,0.0,0.0,0.0,0.0,0.0,0.0,0.0,0.0,0.0,0.0,0.0,0.0,0.0,0.0,0.0,0.0,0.0,0.0,0.0,0.0,0.0,0.0,0.0,0.0,-1.6052,-2.009,-2.1583,-2.2296,-2.2296,-2.1617,-1.9853,-1.6722,0.0,0.0,0.0,0.0,0.0,0.0,0.0,0.0,0.0,0.0,0.0,0.0,0.0,0.0,0.0,0.0,0.0,0.0,0.0,0.0,0.0,0.0,0.0,0.0,0.0,0.0,0.0,0.0,0.0,0.0,0.0,0.0,0.0,0.0,0.0,0.0,0.0,0.0,0.0,0.0,0.0,0.0,0.0,0.0,0.0,0.0,0.0,0.0,0.0,0.0,0.0,0.0,0.0,0.0,0.0,0.0,0.0,0.0,0.0,0.0,0.0,0.0,0.0,0.0,0.0,0.0,0.0,0.0,0.0,0.0,0.0,0.0,0.0,0.0,0.0,0.0,0.0,0.0,0.0,0.0,0.0,0.0,0.0,0.0,0.0,0.0,0.0,0.0,0.0,0.0,0.0,0.0,0.0,0.0,0.0,0.0,0.0,0.0,0.0,0.0,0.0,0.0,0.0,-1.5528,-1.7253,-2.1363,-2.2107,-2.2296,-2.2296,-2.1214,-1.9283,-1.6299,-1.4725,0.0,0.0,0.0,0.0,0.0,0.0,0.0,0.0,0.0,0.0,0.0,0.0,0.0,0.0,0.0,0.0,0.0,0.0,0.0,0.0,0.0,0.0,0.0,0.0,0.0,0.0,0.0,0.0,0.0,0.0,0.0,0.0,0.0,0.0,0.0,0.0,0.0,0.0,0.0,0.0,0.0,0.0,0.0,0.0,0.0,0.0,0.0,0.0,0.0,0.0,0.0,0.0,0.0,0.0,0.0,0.0,0.0,0.0,0.0,0.0,0.0,0.0,0.0,0.0,0.0,0.0,0.0,0.0,0.0,0.0,0.0,0.0,0.0,0.0,0.0,0.0,0.0,0.0,0.0,0.0,0.0,0.0,0.0,0.0,0.0,0.0,0.0,0.0,0.0,0.0,0.0,0.0,0.0,0.0,0.0,0.0,0.0,0.0,0.0,0.0,0.0,0.0,-1.7405,-1.8724,-2.1941,-2.2296,-2.2296,-2.2296,-2.0724,-1.856,-1.5781,-1.4048,0.0,0.0,0.0,0.0,0.0,0.0,0.0,0.0,0.0,0.0,0.0,0.0,0.0,0.0,0.0,0.0,0.0,0.0,0.0,0.0,0.0,0.0,0.0,0.0,0.0,0.0,0.0,0.0,0.0,0.0,0.0,0.0,0.0,0.0,0.0,0.0,0.0,0.0,0.0,0.0,0.0,0.0,0.0,0.0,0.0,0.0,0.0,0.0,0.0,0.0,0.0,0.0,0.0,0.0,0.0,0.0,0.0,0.0,0.0,0.0,0.0,0.0,0.0,0.0,0.0,0.0,0.0,0.0,0.0,0.0,0.0,0.0,0.0,0.0,0.0,0.0,0.0,0.0,0.0,0.0,0.0,0.0,0.0,0.0,0.0,0.0,0.0,0.0,0.0,0.0,0.0,0.0,0.0,0.0,0.0,0.0,0.0,0.0,0.0,0.0,0.0,0.0,-1.8104,-2.042,-2.211,-2.2296,-2.2296,-2.2296,-2.0264,-1.8014,-1.5731,-1.3565,0.0,0.0,0.0,0.0,0.0,0.0,0.0,0.0,0.0,0.0,0.0,0.0,0.0,0.0,0.0,0.0,0.0,0.0,0.0,0.0,0.0,0.0,0.0,0.0,0.0,0.0,0.0,0.0,0.0,0.0,0.0,0.0,0.0,0.0,0.0,0.0,0.0,0.0,0.0,0.0,0.0,0.0,0.0,0.0,0.0,0.0,0.0,0.0,0.0,0.0,0.0,0.0,0.0,0.0,0.0,0.0,0.0,0.0,0.0,0.0,0.0,0.0,0.0,0.0,0.0,0.0,0.0,0.0,0.0,0.0,0.0,0.0,0.0,0.0,0.0,0.0,0.0,0.0,0.0,0.0,0.0,0.0,0.0,0.0,0.0,0.0,0.0,0.0,0.0,0.0,0.0,0.0,0.0,0.0,0.0,0.0,0.0,0.0,0.0,0.0,0.0,0.0,-1.736,-1.9575,0.0,-2.2296,-2.2296,-2.2296,-2.0623,-1.8442,-1.5764,0.0,0.0,0.0,0.0,0.0,0.0,0.0,0.0,0.0,0.0,0.0,0.0,0.0,0.0,0.0,0.0,0.0,0.0,0.0,0.0,0.0,0.0,0.0,0.0,0.0,0.0,0.0,0.0,0.0,0.0,0.0,0.0,0.0,0.0,0.0,0.0,0.0,0.0,0.0,0.0,0.0,0.0,0.0,0.0,0.0,0.0,0.0,0.0,0.0,0.0,0.0,0.0,0.0,0.0,0.0,0.0,0.0,0.0,0.0,0.0,0.0,0.0,0.0,0.0,0.0,0.0,0.0,0.0,0.0,0.0,0.0,0.0,0.0,0.0,0.0,0.0,0.0,0.0,0.0,0.0,0.0,0.0,0.0,0.0,0.0,0.0,0.0,0.0,0.0,0.0,0.0,0.0,0.0,0.0,0.0,0.0,0.0,0.0,0.0,0.0,0.0,0.0,-1.5274,-1.7304,-1.9473,0.0,-2.2296,-2.2296,-2.2296,-2.0471,-1.8239,-1.5764,0.0,0.0,0.0,0.0,0.0,0.0,0.0,0.0,0.0,0.0,0.0,0.0,0.0,0.0,0.0,0.0,0.0,0.0,0.0,0.0,0.0,0.0,0.0,0.0,0.0,0.0,0.0,0.0,0.0,0.0,0.0,0.0,0.0,0.0,0.0,0.0,0.0,0.0,0.0,0.0,0.0,0.0,0.0,0.0,0.0,0.0,0.0,0.0,0.0,0.0,0.0,0.0,0.0,0.0,0.0,0.0,0.0,0.0,0.0,0.0,0.0,0.0,0.0,0.0,0.0,0.0,0.0,0.0,0.0,0.0,0.0,0.0,0.0,0.0,0.0,0.0,0.0,0.0,0.0,0.0,0.0,0.0,0.0,0.0,0.0,0.0,0.0,0.0,0.0,0.0,0.0,0.0,0.0,0.0,0.0,0.0,0.0,0.0,0.0,0.0,0.0,0.0,-1.5409,-1.8172,-2.0589,-2.2144,-2.2296,-2.2296,-2.2296,-1.9541,-1.7191,0.0,0.0,0.0,0.0,0.0,0.0,0.0,0.0,0.0,0.0,0.0,0.0,0.0,0.0,0.0,0.0,0.0,0.0,0.0,0.0,0.0,0.0,0.0,0.0,0.0,0.0,0.0,0.0,0.0,0.0,0.0,0.0,0.0,0.0,0.0,0.0,0.0,0.0,0.0,0.0,0.0,0.0,0.0,0.0,0.0,0.0,0.0,0.0,0.0,0.0,0.0,0.0,0.0,0.0,0.0,0.0,0.0,0.0,0.0,0.0,0.0,0.0,0.0,0.0,0.0,0.0,0.0,0.0,0.0,0.0,0.0,0.0,0.0,0.0,0.0,0.0,0.0,0.0,0.0,0.0,0.0,0.0,0.0,0.0,0.0,0.0,0.0,0.0,0.0,0.0,0.0,0.0,0.0,0.0,0.0,0.0,0.0,0.0,0.0,0.0,0.0,0.0,0.0,-1.5409,-1.8172,-2.0589,-2.2144,-2.2296,-2.2296,-2.2296,-2.0487,-1.8273,-1.5764,0.0,0.0,0.0,0.0,0.0,0.0,0.0,0.0,0.0,0.0,0.0,0.0,0.0,0.0,0.0,0.0,0.0,0.0,0.0,0.0,0.0,0.0,0.0,0.0,0.0,0.0,0.0,0.0,0.0,0.0,0.0,0.0,0.0,0.0,0.0,0.0,0.0,0.0,0.0,0.0,0.0,0.0,0.0,0.0,0.0,0.0,0.0,0.0,0.0,0.0,0.0,0.0,0.0,0.0,0.0,0.0,0.0,0.0,0.0,0.0,0.0,0.0,0.0,0.0,0.0,0.0,0.0,0.0,0.0,0.0,0.0,0.0,0.0,0.0,0.0,0.0,0.0,0.0,0.0,0.0,0.0,0.0,0.0,0.0,0.0,0.0,0.0,0.0,0.0,0.0,0.0,0.0,0.0,0.0,0.0,0.0,0.0,0.0,0.0,0.0,0.0,0.0,-1.5409,-1.8172,-2.0589,-2.2144,-2.2296,-2.2296,-2.2296,-2.0893,-1.8865,-1.6214,0.0,0.0,0.0,0.0,0.0,0.0,0.0,0.0,0.0,0.0,0.0,0.0,0.0,0.0,0.0,0.0,0.0,0.0,0.0,0.0,0.0,0.0,0.0,0.0,0.0,0.0,0.0,0.0,0.0,0.0,0.0,0.0,0.0,0.0,0.0,0.0,0.0,0.0,0.0,0.0,0.0,0.0,0.0,0.0,0.0,0.0,0.0,0.0,0.0,0.0,0.0,0.0,0.0,0.0,0.0,0.0,0.0,0.0,0.0,0.0,0.0,0.0,0.0,0.0,0.0,0.0,0.0,0.0,0.0,0.0,0.0,0.0,0.0,0.0,0.0,0.0,0.0,0.0,0.0,0.0,0.0,0.0,0.0,0.0,0.0,0.0,0.0,0.0,0.0,0.0,0.0,0.0,0.0,0.0,0.0,0.0,0.0,0.0,0.0,0.0,0.0,0.0,-1.5409,-1.8172,-2.0589,-2.2144,-2.2296,-2.2296,-2.2296,-2.0961,-1.9152,-1.6942,0.0,0.0,0.0,0.0,0.0,0.0,0.0,0.0,0.0,0.0,0.0,0.0,0.0,0.0,0.0,0.0,0.0,0.0,0.0,0.0,0.0,0.0,0.0,0.0,0.0,0.0,0.0,0.0,0.0,0.0,0.0,0.0,0.0,0.0,0.0,0.0,0.0,0.0,0.0,0.0,0.0,0.0,0.0,0.0,0.0,0.0,0.0,0.0,0.0,0.0,0.0,0.0,0.0,0.0,0.0,0.0,0.0,0.0,0.0,0.0,-1.4562,0.0,0.0,0.0,0.0,0.0,0.0,0.0,0.0,0.0,0.0,0.0,0.0,0.0,0.0,0.0,0.0,0.0,0.0,0.0,0.0,0.0,0.0,0.0,0.0,0.0,0.0,0.0,0.0,0.0,0.0,0.0,0.0,0.0,0.0,0.0,0.0,0.0,0.0,0.0,0.0,0.0,-1.5409,-1.8172,-2.0589,-2.2144,-2.2296,-2.2296,-2.2296,-2.1465,-1.9989,-1.771,-1.6035,0.0,0.0,0.0,0.0,0.0,0.0,0.0,0.0,0.0,0.0,0.0,0.0,0.0,0.0,0.0,0.0,0.0,0.0,0.0,0.0,0.0,0.0,0.0,0.0,0.0,0.0,0.0,0.0,0.0,0.0,0.0,0.0,0.0,0.0,0.0,0.0,0.0,0.0,0.0,0.0,0.0,0.0,0.0,0.0,0.0,0.0,0.0,0.0,0.0,0.0,0.0,0.0,0.0,0.0,0.0,0.0,0.0,0.0,0.0,0.0,-1.6485,0.0,0.0,0.0,0.0,0.0,0.0,0.0,0.0,0.0,0.0,0.0,0.0,0.0,0.0,0.0,0.0,0.0,0.0,0.0,0.0,0.0,0.0,0.0,0.0,0.0,0.0,0.0,0.0,0.0,0.0,0.0,0.0,0.0,0.0,0.0,0.0,0.0,0.0,0.0,0.0,-1.5944,-1.8724,-2.1025,-2.2178,-2.2296,-2.2296,-2.2296,-2.1617,-2.0378,-1.8454,-1.6931,0.0,0.0,0.0,0.0,0.0,0.0,0.0,0.0,0.0,0.0,0.0,0.0,0.0,0.0,0.0,0.0,0.0,0.0,0.0,0.0,0.0,0.0,0.0,0.0,0.0,0.0,0.0,0.0,0.0,0.0,0.0,0.0,0.0,0.0,0.0,0.0,0.0,0.0,0.0,0.0,0.0,0.0,0.0,0.0,0.0,0.0,0.0,0.0,0.0,0.0,0.0,0.0,0.0,-2.1458,-2.2483,-2.3968,-2.3968,-2.4374,-2.488,-2.116,-2.0263,-2.1207,-1.8199,0.0,0.0,0.0,0.0,0.0,0.0,0.0,0.0,0.0,0.0,0.0,0.0,0.0,0.0,0.0,0.0,0.0,0.0,0.0,0.0,0.0,0.0,-1.7958,-1.8318,-1.9046,-1.8944,-1.6245,0.0,0.0,0.0,0.0,0.0,0.0,0.0,0.0,0.0,0.0,0.0,-1.6705,-1.9413,-2.1478,-2.2212,-2.2296,-2.2296,-2.2296,-2.1735,-2.0801,-1.9396,-1.7907,-1.6126,0.0,0.0,0.0,0.0,0.0,0.0,0.0,0.0,0.0,0.0,0.0,0.0,0.0,0.0,0.0,0.0,0.0,0.0,0.0,0.0,0.0,0.0,0.0,0.0,0.0,0.0,0.0,0.0,0.0,0.0,0.0,0.0,-1.0778,-1.2126,0.0,0.0,0.0,0.0,0.0,0.0,0.0,0.0,0.0,0.0,0.0,0.0,0.0,-2.08,-2.1811,-2.4225,-2.524,-2.4882,-2.6185,-2.6624,-2.6251,-2.6251,-2.6674,-2.7334,-2.6742,0.0,-2.2287,-2.0626,0.0,0.0,0.0,0.0,0.0,0.0,0.0,0.0,0.0,0.0,0.0,0.0,0.0,0.0,0.0,0.0,0.0,0.0,0.0,0.0,0.0,0.0,-2.2223,-2.1021,-2.18,-2.2344,-2.0683,-1.833,-1.6479,-1.6191,-1.5088,0.0,0.0,0.0,0.0,0.0,0.0,0.0,-1.7462,-1.9735,-2.1478,-2.2212,-2.2296,-2.2296,-2.2296,-2.2212,-2.1803,-2.0953,-1.9464,-1.7765,-1.5912,-1.4072,0.0,0.0,0.0,0.0,0.0,0.0,0.0,0.0,0.0,0.0,0.0,0.0,0.0,0.0,0.0,0.0,0.0,0.0,0.0,0.0,0.0,0.0,0.0,0.0,0.0,0.0,0.0,0.0,0.0,-1.0189,-1.1865,-1.3196,-1.3684,-1.3961,0.0,0.0,0.0,0.0,0.0,0.0,0.0,0.0,0.0,-2.1704,-2.3001,-2.4264,-2.5497,-2.6465,-2.7123,-2.752,-2.8278,-2.8632,-2.8619,-2.9042,-2.8977,-2.8593,-2.8593,-2.7106,-2.4636,-2.3214,-2.1617,-1.9877,0.0,0.0,0.0,0.0,-1.7893,-1.7781,-1.8532,-1.8733,-1.8578,-1.8037,0.0,0.0,0.0,0.0,0.0,0.0,0.0,-1.8958,-1.9614,-2.1146,-2.2522,-2.2589,-2.3099,-2.3477,-2.3129,-2.202,-2.0463,-1.8347,-1.7405,-1.6576,-1.5341,0.0,0.0,0.0,0.0,-1.7845,-1.8899,-2.0657,-2.1938,-2.2262,-2.2296,-2.2296,-2.2296,-2.2296,-2.1989,-2.1241,-2.0145,-1.8788,-1.7171,-1.5509,-1.3716,0.0,0.0,0.0,0.0,0.0,0.0,0.0,0.0,0.0,0.0,0.0,0.0,0.0,0.0,0.0,0.0,0.0,0.0,0.0,0.0,0.0,0.0,0.0,0.0,0.0,0.0,0.0,0.0,-1.1745,-1.3181,-1.4872,-1.5638,-1.6136,0.0,0.0,0.0,0.0,0.0,0.0,-1.9883,-2.2184,-2.3925,-2.4913,-2.6286,-2.7484,-2.8471,-2.8632,-2.9176,-3.0125,-3.0279,-3.0567,-3.0951,-3.1512,-3.1227,-3.0273,-3.0273,-2.9301,-2.7552,-2.5544,-2.3901,-2.2504,-2.1122,-2.0347,-2.0105,-2.1205,-2.12,-2.0825,-2.2167,-2.2271,-2.1759,-2.136,-2.0213,-1.8781,-1.7621,0.0,0.0,0.0,0.0,-2.0294,-2.1586,-2.2171,-2.2569,-2.3336,-2.3666,-2.385,-2.4081,-2.4208,-2.3459,-2.0606,-1.9891,-1.9181,-1.7348,0.0,0.0,0.0,0.0,-1.9452,-2.0217,-2.1468,-2.2296,-2.2296,-2.2296,-2.2237,-2.212,-2.212,-2.1843,-2.1189,-2.0338,-1.9332,-1.8126,-1.6574,-1.515,-1.3857,0.0,0.0,0.0,0.0,0.0,0.0,0.0,0.0,0.0,0.0,0.0,0.0,0.0,0.0,0.0,0.0,0.0,0.0,0.0,0.0,0.0,0.0,0.0,0.0,0.0,0.0,0.0,0.0,0.0,-1.8149,-1.8712,0.0,0.0,0.0,0.0,-2.0991,-2.1112,-2.2057,-2.4256,-2.5835,-2.6501,-2.613,-2.9237,-3.0723,-3.0257,-3.2127,-3.3132,-3.3186,-3.3199,-3.3216,-3.3254,-3.3271,-3.325,-3.3195,-3.3195,-3.2448,-3.0966,-2.7392,-2.5596,-2.5064,-2.4728,-2.4351,-2.4025,-2.4086,-2.3813,-2.3398,-2.3503,-2.3518,-2.3571,-2.4178,-2.349,-2.2209,-2.0857,-2.0468,0.0,0.0,-2.1318,-2.2158,-2.2238,-2.3129,-2.3813,-2.3189,-2.3576,-2.39,-2.3225,-2.3417,-2.362,-2.3251,-2.2615,-2.187,-2.1055,0.0,-1.8978,-1.9664,-1.9866,-2.0234,-2.1038,-2.182,-2.2296,-2.2296,-2.2296,-2.212,-2.1673,-2.1643,-2.146,-2.1038,-2.0016,-1.9257,-1.8854,-1.7113,-1.5819,-1.5029,-1.3273,0.0,0.0,0.0,0.0,0.0,0.0,0.0,0.0,0.0,0.0,0.0,0.0,0.0,0.0,0.0,0.0,0.0,0.0,0.0,0.0,0.0,0.0,0.0,0.0,0.0,0.0,0.0,0.0,-1.9717,-2.0832,0.0,-2.2367,-2.1952,-2.2095,-2.3221,-2.4052,-2.5093,-2.6387,-2.8486,-2.9613,-2.95,-3.1094,-3.1671,-3.1052,-3.2181,-3.2752,-3.2752,-3.3198,-3.3406,-3.3406,-3.3406,-3.2949,-3.2184,-3.2184,-3.1462,-3.0181,-2.8868,-2.7713,-2.6665,-2.572,-2.5271,-2.513,-2.513,-2.5018,-2.4896,-2.4896,-2.4896,-2.4866,-2.4664,-2.4291,-2.3759,-2.2847,-2.2871,-2.3125,-2.2697,-2.3146,-2.3679,-2.3262,-2.3452,-2.3805,-2.3877,-2.41,-2.4328,-2.4398,-2.4814,-2.5007,-2.4415,-2.3601,-2.2767,-2.2023,-2.1448,-2.1025,-2.0805,-2.1177,-2.1586,-2.187,-2.2127,-2.2296,-2.2296,-2.2296,-2.2223,-2.2061,-2.1779,-2.1354,-2.0776,-1.97,-1.8828,-1.8278,-1.7387,-1.6266,-1.4864,-1.415,-1.2704,0.0,0.0,0.0,0.0,0.0,0.0,0.0,0.0,0.0,0.0,0.0,0.0,0.0,0.0,0.0,0.0,0.0,0.0,0.0,0.0,0.0,0.0,0.0,0.0,0.0,0.0,-1.9373,-2.1156,-2.2532,-2.3618,-2.4326,-2.452,-2.4911,-2.5654,-2.6567,-2.7482,-2.8405,-3.0043,-3.0991,-3.1032,-3.2161,-3.256,-3.2119,-3.3014,-3.3369,-3.3146,-3.3595,-3.3684,-3.3483,-3.3707,-3.3336,-3.2555,-3.2555,-3.1942,-3.0906,-3.0441,-2.9595,-2.8483,-2.738,-2.6946,-2.6916,-2.6707,-2.6617,-2.6587,-2.6348,-2.6273,-2.6153,-2.5495,-2.5262,-2.5143,-2.4477,-2.4597,-2.4844,-2.4403,-2.4575,-2.4829,-2.4403,-2.4268,-2.4297,-2.4444,-2.4468,-2.4497,-2.4639,-2.507,-2.5303,-2.4763,-2.4381,-2.39,-2.3173,-2.2835,-2.2513,-2.202,-2.2158,-2.2296,-2.2296,-2.2296,-2.2296,-2.2296,-2.2149,-2.2003,-2.1871,-2.1568,-2.108,-2.0334,-1.9422,-1.8628,-1.8023,-1.712,-1.6144,-1.5094,-1.449,-1.3214,-1.1206,0.0,0.0,0.0,0.0,0.0,0.0,0.0,0.0,0.0,0.0,0.0,0.0,0.0,0.0,0.0,0.0,0.0,0.0,0.0,0.0,0.0,0.0,0.0,-1.7893,-1.9537,-2.1321,-2.2628,-2.3924,-2.4709,-2.4724,-2.5929,-2.72,-2.8431,-2.8617,-2.9206,-3.0464,-3.0546,-3.0562,-3.0567,-3.2466,-3.3477,-3.347,-3.4866,-3.5241,-3.4593,-3.4625,-3.4292,-3.364,-3.4284,-3.4552,-3.4528,-3.4528,-3.4161,-3.3431,-3.2123,-3.1182,-3.0477,-2.9834,-2.9606,-2.9532,-2.8861,-2.8622,-2.8532,-2.7869,-2.763,-2.7525,-2.6866,-2.6641,-2.6497,-2.5869,-2.5674,-2.5674,-2.5644,-2.563,-2.563,-2.5615,-2.5615,-2.545,-2.4784,-2.4619,-2.4425,-2.3774,-2.4027,-2.441,-2.441,-2.5029,-2.5341,-2.4613,-2.3887,-2.3382,-2.3382,-2.2758,0.0,-2.2316,-2.2313,-2.2296,-2.2296,-2.1884,-2.143,-2.1039,-2.0991,-2.06,-1.9719,-1.9155,-1.8644,-1.8177,-1.6365,-1.5499,-1.5819,-1.4372,-1.3105,-1.2043,0.0,0.0,0.0,0.0,0.0,0.0,0.0,0.0,0.0,0.0,0.0,0.0,0.0,0.0,0.0,0.0,0.0,0.0,0.0,0.0,0.0,-1.9735,-2.1186,-2.003,-2.1989,-2.3842,-2.4702,-2.5959,-2.6961,-2.7455,-2.8263,-2.891,-2.926,-2.9713,-3.0356,-3.1254,-3.1709,-3.1954,-3.2013,-3.2557,-3.2806,-3.2785,-3.4228,-3.4816,-3.4526,-3.5119,-3.5018,-3.4308,-3.4011,-3.3608,-3.3145,-3.3145,-3.2745,-3.2061,-3.1669,-3.1411,-3.1122,-3.0028,-2.9606,-2.9592,-2.9397,-2.9337,-2.922,-2.8547,-2.8323,-2.8203,-2.754,-2.733,-2.7285,-2.7106,-2.7061,-2.6956,-2.6452,-2.6318,-2.6213,-2.5734,-2.5615,-2.5555,-2.5367,-2.4948,-2.4545,-2.4365,-2.4356,-2.441,-2.441,-2.4891,-2.5076,-2.4343,-2.3593,-2.3122,-2.3122,-2.2768,0.0,-2.2512,-2.2381,-2.2296,-2.2296,-2.1884,-2.1568,-2.1445,-2.0862,-1.9994,-1.8838,-1.8297,-1.7744,-1.7151,-1.6872,-1.6653,-1.646,-1.4804,-1.3659,0.0,0.0,0.0,0.0,0.0,0.0,0.0,0.0,0.0,0.0,0.0,0.0,0.0,0.0,0.0,0.0,0.0,0.0,0.0,0.0,0.0,0.0,-2.2173,-2.3729,-2.3251,-2.4492,-2.5689,-2.6363,-2.7375,-2.8289,-2.8951,-2.9594,-2.9968,-2.9968,-3.0549,-3.1235,-3.1949,-3.2307,-3.2643,-3.2957,-3.327,-3.3383,-3.3347,-3.4502,-3.4885,-3.4496,-3.4975,-3.4827,-3.4151,-3.4034,-3.3779,-3.338,-3.3085,-3.2726,-3.2302,-3.1716,-3.1511,-3.1436,0.0,0.0,0.0,0.0,-2.9831,-2.952,-2.9146,-2.9011,-2.8951,-2.8573,-2.8259,-2.8034,-2.8034,-2.7824,-2.7525,-2.7136,-2.7031,-2.6941,-2.6527,-2.6437,-2.6363,-2.6093,-2.5734,-2.5352,-2.5068,-2.4737,-2.4475,-2.4475,-2.4508,0.0,-2.3958,-2.3642,-2.3458,-2.3458,-2.284,-2.2362,-2.2362,-2.2012,-2.1751,-2.1751,-2.1337,-2.107,-2.107,-2.0584,0.0,0.0,0.0,-1.7908,-1.6756,-1.6925,0.0,0.0,0.0,0.0,0.0,0.0,0.0,0.0,-1.4517,-1.4848,0.0,0.0,0.0,0.0,0.0,0.0,0.0,0.0,0.0,0.0,0.0,0.0,0.0,0.0,0.0,0.0,-2.4148,-2.5974,-2.6722,-2.6811,-2.7061,-2.7645,-2.8353,-2.9041,-2.9651,-3.0253,-3.0657,-3.0731,-3.1271,-3.1899,-3.2587,0.0,0.0,0.0,0.0,-3.4442,-3.4519,-3.5238,-3.5257,-3.4597,-3.4637,-3.4269,-3.3635,-3.4133,-3.4395,-3.4364,-3.3763,-3.3501,-3.3398,-3.213,-3.157,-3.1511,-3.1511,-3.1511,-3.1436,-3.0823,-3.0268,-2.9789,-2.9741,0.0,0.0,-2.9636,-2.919,-2.8697,-2.8622,-2.8173,-2.7705,-2.7615,-2.76,-2.76,-2.76,-2.76,-2.745,-2.6866,-2.6671,-2.6437,-2.5839,-2.5128,-2.4605,-2.4605,-2.4073,-2.3595,-2.3595,-2.3849,-2.4046,-2.4046,-2.2957,-2.2118,-2.2038,-2.1501,-2.1087,-2.1007,-2.0583,0.0,-2.0297,-2.0263,-2.0041,-1.9606,-1.9428,-1.8605,-1.6996,-1.701,-1.701,-1.6936,-1.6936,-1.7174,-1.7713,-1.7788,-1.8189,-1.8826,-1.6503,-1.6236,0.0,0.0,0.0,0.0,0.0,0.0,0.0,0.0,0.0,0.0,0.0,0.0,0.0,0.0,0.0,-2.4448,-2.5719,-2.6826,-2.8038,-2.8203,-2.8263,-2.8382,-2.943,-3.0178,-3.0313,-3.0913,-3.1525,-3.2049,-3.2213,-3.2617,-3.3275,-3.3305,-3.3365,-3.3499,-3.3637,-3.3939,-3.4497,-3.5243,-3.5491,-3.5309,-3.5354,0.0,-3.4294,-3.3878,-3.3683,-3.3698,-3.3547,-3.3487,-3.3442,-3.2646,-3.1989,-3.1511,-3.1511,-3.1511,-3.1481,-3.1346,-3.1227,-3.1047,-3.0507,-3.0328,-3.0238,-2.9771,-2.9517,-2.9322,-2.8757,-2.8502,0.0,-2.775,-2.76,-2.76,-2.76,-2.76,-2.757,-2.7435,-2.7001,-2.6557,-2.6422,-2.5442,-2.4605,-2.4605,-2.4073,-2.3595,-2.3595,-2.3646,-2.3697,-2.3697,-2.3323,-2.2847,-2.2307,-2.1993,-2.1598,-2.1055,-2.0583,-2.0297,-2.0297,-2.0,-1.9557,-1.8927,-1.8863,-1.8667,-1.8328,-1.8837,-1.8867,-1.8311,-1.8311,-1.8117,-1.7713,-1.8237,-1.8592,-1.873,-1.8332,-1.8958,0.0,0.0,0.0,0.0,0.0,0.0,0.0,0.0,0.0,0.0,0.0,-2.0109,-2.1395,0.0,-2.4687,-2.6318,-2.7425,-2.8349,-2.8996,-2.9355,-2.9549,-2.9549,-3.0118,-3.0642,-3.0957,-3.16,-3.2123,-3.2452,-3.2826,-3.329,-3.3948,-3.3978,-3.4143,-3.4487,-3.4502,-3.4651,-3.4996,-3.5363,-3.553,-3.5504,-3.553,-3.5363,-3.4981,-3.4651,-3.4502,-3.4472,-3.4143,-3.3978,-3.3933,-3.3275,-3.2617,-3.1989,-3.1989,-3.1795,-3.1511,-3.1511,-3.1511,-3.1451,-3.1107,-3.0987,-3.0943,-3.0657,-3.0328,-2.9983,-2.9654,-2.9116,-2.8532,-2.8188,-2.7869,-2.76,-2.76,-2.76,-2.76,-2.76,-2.7345,-2.7106,-2.7106,-2.6303,-2.551,-2.5158,-2.456,-2.3999,-2.3655,-2.3595,-2.3595,-2.3595,-2.3266,-2.2884,-2.255,-2.2121,-2.1595,-2.0914,-2.0643,-2.0363,-2.003,-1.9818,-1.9573,-1.9211,-1.9196,-1.9196,-1.9196,-1.9528,-1.9543,-1.9211,-1.9196,-1.9031,-1.8702,-1.9031,-1.9303,-1.9514,-1.9799,-2.0355,0.0,0.0,0.0,0.0,0.0,0.0,0.0,0.0,-1.9193,-2.0393,-2.2044,-2.3452,-2.4073,-2.56,-2.7061,-2.7854,-2.8903,-2.9651,-2.9771,-3.0193,-3.0552,-3.0687,-3.0702,-3.0898,-3.1451,-3.2108,-3.2557,-3.2691,-3.332,-3.3978,-3.4668,-3.4698,-3.4936,-3.5489,-3.5504,-3.5504,-3.5504,-3.5504,-3.5504,-3.5504,-3.5504,-3.5504,-3.5504,-3.5504,-3.5504,-3.5474,-3.4921,-3.4638,-3.4474,-3.3934,-3.3305,-3.2706,-3.2706,-3.2273,-3.1675,-3.1555,-3.1511,-3.1511,-3.1511,-3.1511,-3.1511,-3.1511,-3.1122,-3.0672,-3.0552,-2.9789,-2.8921,-2.8667,-2.8203,-2.7764,-2.763,-2.76,-2.76,-2.76,-2.76,-2.76,-2.76,-2.7076,-2.6437,-2.5899,-2.5143,-2.4425,-2.3894,-2.3684,-2.3595,-2.3595,-2.3197,-2.2838,-2.2718,-2.2239,-2.159,-2.0778,-2.0703,-2.0438,-1.9768,-1.9708,-1.9708,-1.9708,-1.9708,-1.9708,-1.9708,-1.9708,-1.9708,-1.9708,-1.9708,-1.9708,-1.9708,-1.9708,-1.9874,-2.0177,-2.0565,-2.0878,-1.4676,-1.4526,-1.5141,-1.755,-1.8208,-1.9193,0.0,0.0,-2.3161,-2.3902,-2.4694,-2.548,-2.6138,-2.6941,-2.7899,-2.9172,-2.9517,-2.9774,-3.0313,-3.0462,-3.0731,-3.1316,-3.1391,-3.1421,-3.1496,-3.2108,-3.2766,-3.3335,-3.3993,-3.4666,-3.5355,-3.5385,-3.5429,-3.5504,-3.5504,-3.5504,-3.5504,-3.5504,-3.5504,-3.5504,-3.5504,-3.5504,-3.5504,-3.5504,-3.5504,-3.5504,-3.5429,-3.504,-3.4503,-3.4429,-3.3978,-3.338,-3.338,-3.2976,-3.2303,-3.172,-3.1511,-3.1511,-3.1511,-3.1511,-3.1511,-3.1511,-3.1451,-3.1271,-3.0687,-3.0402,-3.0058,-2.8921,-2.8547,-2.8353,-2.775,-2.76,-2.76,-2.76,-2.76,-2.76,-2.76,-2.7076,-2.6572,-2.6497,-2.548,-2.459,-2.45,-2.3999,-2.3595,-2.3595,-2.3535,-2.3295,-2.2763,-2.2628,-2.2104,-2.0838,-2.0703,-2.0438,-1.9768,-1.9708,-1.9708,-1.9708,-1.9708,-1.9708,-1.9708,-1.9708,-1.9708,-1.9708,-1.9708,-1.9708,-1.9708,-1.9708,-1.9711,-1.9764,-1.9818,-2.0448,-1.7626,0.0,0.0,0.0,-2.1306,-2.2572,-2.4231,-2.4679,-2.4956,-2.563,-2.6303,-2.6866,-2.7136,-2.8049,-2.8963,0.0,-3.0223,-3.0778,-3.1032,-3.0761,-3.0612,-3.0868,-3.0913,-3.1062,-3.1466,-3.2452,-3.32,-3.3469,-3.4472,-3.519,-3.5489,-3.5504,-3.5504,-3.5504,-3.5504,-3.5504,-3.5504,-3.5504,-3.5504,-3.5504,-3.5504,-3.5504,-3.5504,-3.5504,-3.5504,-3.5504,-3.5504,-3.534,-3.507,-3.507,-3.4681,-3.4068,-3.4068,-3.3425,-3.2482,-3.2183,-3.1839,-3.1511,-3.1511,-3.1511,-3.1511,-3.1511,-3.1511,-3.1451,-3.1167,-3.0821,-3.0387,-2.9864,-2.9175,-2.8532,-2.8248,-2.7899,-2.76,-2.76,-2.76,-2.76,-2.76,-2.7375,-2.7076,-2.6686,-2.6153,-2.5525,-2.4739,-2.4365,-2.4059,-2.3655,-2.3595,-2.3505,-2.3272,-2.3206,-2.2733,-2.1425,-2.0927,-2.0438,-1.9768,-1.9708,-1.9708,-1.9708,-1.9708,-1.9708,-1.9708,-1.9708,-1.9708,-1.9708,-1.9708,-1.9708,-1.9708,-1.9708,-1.9708,-1.9708,-1.9929,-2.0331,-1.9839,0.0,0.0,-2.2368,-2.3849,-2.5187,-2.5382,-2.5959,-2.6572,-2.7051,-2.7405,-2.766,-2.7839,-2.8678,-2.943,-2.9774,-3.0627,-3.1286,-3.1481,-3.0913,-3.0567,-3.0761,-3.0612,-3.0748,-3.1436,-3.2557,-3.3305,-3.3484,-3.4562,-3.5295,-3.5489,-3.5504,-3.5504,-3.5504,-3.5504,-3.5504,-3.5504,-3.5504,-3.5504,-3.5504,-3.5504,-3.5504,-3.5504,-3.5504,-3.5504,-3.5504,-3.5504,-3.5504,-3.5504,-3.5504,-3.5205,-3.4788,-3.4788,-3.4068,-3.3036,-3.2856,-3.2228,-3.1511,-3.1511,-3.1511,-3.1511,-3.1511,-3.1511,-3.1511,-3.1511,-3.1152,-3.0746,-3.0552,-2.9834,-2.9041,-2.8697,-2.8233,-2.7839,-2.7645,-2.76,-2.76,-2.76,-2.76,-2.7465,-2.6986,-2.6746,-2.6228,-2.5068,-2.4724,-2.4365,-2.3699,-2.3595,-2.3595,-2.3595,-2.3445,-2.2996,-2.2054,-2.1216,-2.0513,-2.0019,-1.9813,-1.9708,-1.9708,-1.9708,-1.9708,-1.9708,-1.9708,-1.9708,-1.9708,-1.9708,-1.9708,-1.9708,-1.9708,-1.9708,-1.9708,-2.0198,-2.047,0.0,0.0,-2.2158,-2.4036,-2.554,-2.6692,-2.736,-2.8034,-2.8517,-2.8547,-2.8049,-2.7809,-2.8442,-2.8607,-2.9026,-3.0268,-3.0507,-3.0776,-3.1406,-3.0913,-3.0746,-3.1391,-3.0883,-3.0748,0.0,-3.2108,-3.2811,-3.344,-3.4159,-3.4801,-3.5474,-3.5504,-3.5504,-3.5504,-3.5504,-3.5504,-3.5504,-3.5504,-3.5504,-3.5504,-3.5504,-3.5504,-3.5504,-3.5504,-3.5504,-3.5504,-3.5504,-3.5504,-3.5504,-3.5504,-3.5489,-3.5474,-3.5474,-3.504,-3.4369,-3.3709,-3.2647,-3.1511,-3.1511,-3.1511,-3.1511,-3.1511,-3.1511,-3.1511,-3.1511,-3.1496,-3.1331,-3.0687,-3.0477,-3.0163,-2.8921,-2.8577,-2.8412,-2.775,-2.76,-2.76,-2.76,-2.76,-2.7585,-2.757,-2.7046,-2.6378,-2.5689,-2.5023,-2.4365,-2.3699,-2.3595,-2.3595,-2.3595,-2.3092,-2.2703,-2.2673,-2.1485,-2.0688,-2.0658,-2.0064,-1.9708,-1.9708,-1.9708,-1.9708,-1.9708,-1.9708,-1.9708,-1.9708,-1.9708,-1.9708,-1.9708,-1.9708,-1.9708,-1.9723,-2.0382,-2.0894,0.0,0.0,-2.4552,-2.5659,-2.6931,-2.8098,-2.8783,-2.8742,-2.8472,-2.8034,-2.7405,-2.6881,-2.6647,-2.7335,-2.8229,-2.9101,-2.9953,-3.0746,-3.1406,-3.1316,-3.1077,-3.0853,-3.1017,0.0,0.0,0.0,0.0,-3.344,-3.4098,-3.4771,-3.5474,-3.5504,-3.5504,-3.5504,-3.5504,-3.5504,-3.5504,-3.5504,-3.5504,-3.5504,-3.5504,-3.5504,-3.5504,-3.5504,-3.5504,-3.5504,-3.5504,-3.5504,-3.5504,-3.5504,-3.5504,-3.5504,-3.5504,-3.5085,-3.4474,-3.4264,-3.3305,-3.2093,-3.1645,-3.1511,-3.1511,-3.1511,-3.1511,-3.1511,-3.1511,-3.1511,-3.1451,-3.1227,-3.0823,-3.0313,-2.9475,-2.8921,-2.8427,-2.7764,-2.76,-2.76,-2.76,-2.76,-2.76,-2.76,-2.742,-2.7061,-2.6378,-2.5719,-2.4874,-2.3774,-2.3595,-2.3595,-2.3595,-2.3415,-2.3152,-2.2748,-2.2298,-2.1844,-2.1395,-2.0752,-2.0363,-2.0363,-1.9962,-1.9708,-1.9708,-1.9708,-1.9708,-1.9708,-1.9708,-1.9708,-1.9708,-2.0154,-2.0363,-2.0378,-2.1051,-2.1448,0.0,-2.5001,-2.6228,-2.738,-2.8472,-2.934,-2.9535,-2.9071,-2.8338,-2.7435,-2.6512,-2.5689,-2.5016,-2.5585,-2.6641,-2.8008,-2.8921,-3.0013,-3.163,-3.1645,-3.1511,-3.1569,-3.1735,-3.178,0.0,0.0,0.0,-3.3469,-3.4098,-3.4771,-3.5474,-3.5504,-3.5504,-3.5504,-3.5504,-3.5504,-3.5504,-3.5504,-3.5504,-3.5504,-3.5504,-3.5504,-3.5504,-3.5504,-3.5504,-3.5504,-3.5504,-3.5504,-3.5504,-3.5504,-3.5504,-3.5504,-3.5504,-3.5235,-3.4816,-3.4593,-3.3784,-3.2766,-3.2079,-3.1705,-3.1511,-3.1511,-3.1511,-3.1511,-3.1511,-3.1511,-3.1511,-3.1511,-3.1182,-3.0717,-3.0073,-2.943,-2.8786,-2.8124,-2.7779,-2.76,-2.76,-2.76,-2.76,-2.76,-2.76,-2.739,-2.6731,-2.5854,-2.4948,-2.4103,-2.3759,-2.3595,-2.3595,-2.3595,-2.3445,-2.3062,-2.2823,-2.2523,-2.2084,-2.144,-2.1066,-2.1066,-2.0647,-2.0408,-2.0408,-2.0408,-2.0408,-2.0408,-2.0408,-2.0408,-2.0427,-2.0857,-2.1066,-2.1062,-2.1739,-2.2074,-2.5937,-2.6686,-2.7215,-2.9172,-3.0043,-3.0298,-2.9714,-2.9026,-2.8113,-2.6767,-2.5435,-2.4291,0.0,0.0,-2.4492,-2.7076,-2.76,-2.8843,-3.2063,-3.1974,-3.2064,0.0,0.0,0.0,0.0,0.0,0.0,-3.3544,0.0,-3.4771,-3.5474,-3.5504,-3.5504,-3.5504,-3.5504,-3.5504,-3.5504,-3.5504,-3.5504,-3.5504,-3.5504,-3.5504,-3.5504,-3.5504,-3.5504,-3.5504,-3.5504,-3.5504,-3.5504,-3.5504,-3.5504,-3.5504,-3.5504,-3.5504,-3.5429,-3.4771,-3.4144,-3.3455,-3.2826,-3.2108,-3.1511,-3.1511,-3.1511,-3.1511,-3.1511,-3.1511,-3.1511,-3.1511,-3.1511,-3.1346,-3.0687,-3.0043,-2.9442,-2.8757,-2.8094,-2.76,-2.76,-2.76,-2.76,-2.76,-2.76,-2.739,-2.6731,-2.5531,-2.4679,-2.4619,-2.4073,-2.364,-2.3595,-2.3595,-2.3595,-2.3595,-2.3092,-2.2748,-2.2748,-2.2113,-2.1739,-2.1739,-2.1724,-2.1695,-2.1695,-2.1695,-2.1695,-2.1695,-2.1695,-2.1695,-2.1695,-2.1724,-2.1739,-2.1754,-2.2448,-2.2748,-2.6408,-2.7679,-2.9082,-3.0028,-3.0043,-2.9774,-2.9651,-2.8293,-2.6722,-2.5382,-2.4088,-2.2817,-2.1665,0.0,0.0,-2.5914,-2.7794,0.0,-3.2183,-3.2796,0.0,0.0,0.0,-3.3844,-3.3529,-3.3933,0.0,0.0,-3.4414,-3.4771,-3.5474,-3.5504,-3.5504,-3.5504,-3.5504,-3.5504,-3.5504,-3.5504,-3.5504,-3.5504,-3.5504,-3.5504,-3.5504,-3.5504,-3.5504,-3.5504,-3.5504,-3.5504,-3.5504,-3.5504,-3.5504,-3.5504,-3.5504,-3.5504,-3.5489,-3.531,-3.4816,-3.4234,-3.4038,-3.2901,-3.1511,-3.1511,-3.1511,-3.1511,-3.1511,-3.1511,-3.1511,-3.1511,-3.1511,-3.1346,-3.0687,-3.0043,-2.9442,-2.8757,-2.8094,-2.76,-2.76,-2.76,-2.76,-2.76,-2.76,-2.739,-2.6731,-2.6318,-2.5749,-2.4754,-2.4455,-2.4156,-2.367,-2.3595,-2.3595,-2.3595,-2.346,-2.337,-2.337,-2.2808,-2.2448,-2.2448,-2.1984,-2.1695,-2.1695,-2.1695,-2.1695,-2.1695,-2.1695,-2.1695,-2.1695,-2.2209,-2.2448,-2.2463,-2.3071,-2.337,-2.7993,-2.9131,-3.0148,-3.0791,-3.0462,-2.9759,-2.8918,-2.738,-2.554,-2.3334,-2.2084,0.0,-1.9627,0.0,0.0,0.0,0.0,0.0,-3.2108,-3.308,-3.3724,0.0,-3.4696,0.0,-3.4412,-3.4711,-3.4921,0.0,-3.4921,-3.51,-3.5489,-3.5504,-3.5504,-3.5504,-3.5504,-3.5504,-3.5504,-3.5504,-3.5504,-3.5504,-3.5504,-3.5504,-3.5504,-3.5504,-3.5504,-3.5504,-3.5504,-3.5504,-3.5504,-3.5504,-3.5504,-3.5504,-3.5504,-3.5504,-3.5504,-3.5504,-3.507,-3.4474,-3.4174,-3.3125,-3.1929,-3.1929,-3.1735,-3.1511,-3.1511,-3.1511,-3.1511,-3.1511,-3.1511,-3.1406,-3.1032,-3.0477,-2.9894,-2.952,-2.8712,-2.8049,-2.8049,-2.7809,-2.76,-2.76,-2.76,-2.748,-2.7106,-2.6782,-2.6333,-2.56,-2.4978,-2.447,-2.4081,-2.3789,-2.3595,-2.3595,-2.3595,-2.3595,-2.3595,-2.3302,-2.3092,-2.3092,-2.2742,-2.2532,-2.2532,-2.2532,-2.2532,-2.2532,-2.2532,-2.2532,-2.2532,-2.2912,-2.3092,-2.3107,-2.343,-2.3595,-2.9759,-3.0507,-3.0761,-3.1241,-3.0793,-2.9744,-2.7779,-2.6153,-2.4223,-2.1201,0.0,-1.9046,-1.7803,0.0,-2.0636,-2.3071,0.0,-2.7949,-3.1809,-3.2946,-3.3858,-3.522,-3.5444,-3.5504,-3.5504,-3.5504,-3.5504,-3.5504,-3.5504,-3.5504,-3.5504,-3.5504,-3.5504,-3.5504,-3.5504,-3.5504,-3.5504,-3.5504,-3.5504,-3.5504,-3.5504,-3.5504,-3.5504,-3.5504,-3.5504,-3.5504,-3.5504,-3.5504,-3.5504,-3.5504,-3.5504,-3.5504,-3.5504,-3.5504,-3.5504,-3.5504,-3.507,-3.4429,-3.3829,-3.314,-3.2497,-3.2392,-3.1974,-3.1511,-3.1511,-3.1511,-3.1511,-3.1511,-3.1511,-3.1511,-3.1511,-3.0987,-3.0477,-3.0402,-2.9475,-2.8577,-2.8487,-2.8019,-2.76,-2.76,-2.76,-2.76,-2.76,-2.7121,-2.6692,-2.6602,-2.5516,-2.4709,-2.4619,-2.4007,-2.3595,-2.3595,-2.3595,-2.3595,-2.3595,-2.3595,-2.3595,-2.3595,-2.3595,-2.3595,-2.3595,-2.3595,-2.3595,-2.3595,-2.3595,-2.3595,-2.3595,-2.3595,-2.3595,-2.3595,-2.3595,-2.3595,-2.9636,-3.0537,-3.1212,-3.0791,-2.9804,-2.8412,-2.6408,-2.4088,0.0,0.0,0.0,-1.7818,-1.7025,-1.8879,0.0,-2.2598,0.0,0.0,0.0,0.0,-3.317,0.0,0.0,0.0,0.0,0.0,0.0,0.0,0.0,-3.5504,-3.5504,-3.5504,-3.5504,-3.5504,-3.5504,-3.5504,-3.5504,-3.5504,-3.5504,-3.5504,-3.5504,-3.5504,-3.5504,-3.5504,-3.5504,-3.5504,-3.5504,-3.5504,-3.5504,-3.5504,-3.5504,-3.5504,-3.5504,-3.5504,-3.5504,-3.5504,-3.507,-3.4488,-3.4384,-3.3514,-3.2392,-3.1854,-3.16,-3.1511,-3.1511,-3.1511,-3.1511,-3.1511,-3.1511,-3.1511,-3.1511,-3.0987,-3.0372,-2.9864,-2.916,-2.8442,-2.7899,-2.7675,-2.76,-2.76,-2.76,-2.76,-2.76,-2.7495,-2.724,-2.6677,-2.5929,-2.5217,-2.4679,-2.4007,-2.3595,-2.3595,-2.3595,-2.3595,-2.3595,-2.3595,-2.3595,-2.3595,-2.3595,-2.3595,-2.3595,-2.3595,-2.3595,-2.3595,-2.3595,-2.3595,-2.3595,-2.3595,-2.3595,-2.3595,-2.3595,-2.3595,-2.9879,-3.0776,-3.1346,-3.0672,-2.928,-2.7455,-2.5106,0.0,0.0,0.0,0.0,-1.6503,-1.583,0.0,0.0,0.0,0.0,0.0,0.0,0.0,0.0,0.0,0.0,0.0,0.0,0.0,0.0,0.0,0.0,-3.5504,-3.5504,-3.5504,-3.5504,-3.5504,-3.5504,-3.5504,-3.5504,-3.5504,-3.5504,-3.5504,-3.5504,-3.5504,-3.5504,-3.5504,-3.5504,-3.5504,-3.5504,-3.5504,-3.5504,-3.5504,-3.5504,-3.5504,-3.5504,-3.5504,-3.5504,-3.5504,-3.507,-3.4459,-3.4114,-3.332,-3.2378,-3.172,-3.1511,-3.1511,-3.1511,-3.1511,-3.1511,-3.1511,-3.1511,-3.1511,-3.1511,-3.1256,-3.0866,-3.0223,-2.931,-2.8412,-2.775,-2.76,-2.76,-2.76,-2.76,-2.76,-2.76,-2.76,-2.748,-2.718,-2.6243,-2.5472,-2.5158,-2.4238,-2.3595,-2.3595,-2.3595,-2.3595,-2.3595,-2.3595,-2.3595,-2.3595,-2.3595,-2.3595,-2.3595,-2.3595,-2.3595,-2.3595,-2.3595,-2.3595,-2.3595,-2.3595,-2.3595,-2.3595,-2.3595,-2.3595,-2.9747,-3.0687,-3.1122,-3.0477,-2.8816,-2.6686,-2.4036,-2.1261,0.0,0.0,0.0,-1.541,-1.4901,0.0,0.0,0.0,0.0,0.0,0.0,0.0,0.0,0.0,0.0,0.0,0.0,0.0,0.0,0.0,0.0,0.0,-3.5504,-3.5504,-3.5504,-3.5504,-3.5504,-3.5504,-3.5504,-3.5504,-3.5504,-3.5504,-3.5504,-3.5504,-3.5504,-3.5504,-3.5504,-3.5504,-3.5504,-3.5504,-3.5504,-3.5504,-3.5504,-3.5504,-3.5504,-3.5504,-3.5504,-3.5504,-3.4981,-3.4219,-3.3679,-3.2976,-3.2183,-3.1675,-3.1511,-3.1511,-3.1511,-3.1511,-3.1511,-3.1511,-3.1511,-3.1511,-3.1511,-3.1391,-3.1077,-3.0283,-2.922,-2.8233,-2.7705,-2.76,-2.76,-2.76,-2.76,-2.76,-2.76,-2.76,-2.76,-2.76,-2.6572,-2.5764,-2.563,-2.4567,-2.3759,-2.361,-2.3595,-2.3595,-2.3595,-2.3595,-2.3595,-2.3595,-2.3595,-2.3595,-2.3595,-2.3595,-2.3595,-2.3595,-2.3595,-2.3595,-2.3595,-2.3595,-2.3595,-2.3595,-2.3595,-2.3595,-2.8405,-2.9669,-3.0447,-2.9846,-2.8184,-2.6012,-2.3377,0.0,0.0,0.0,-1.5319,-1.4871,-1.4811,0.0,0.0,0.0,0.0,0.0,0.0,0.0,0.0,0.0,0.0,0.0,0.0,0.0,0.0,0.0,0.0,0.0,-3.5504,-3.5504,-3.5504,-3.5504,-3.5504,-3.5504,-3.5504,-3.5504,-3.5504,-3.5504,-3.5504,-3.5504,-3.5504,-3.5504,-3.5504,-3.5504,-3.5504,-3.5504,-3.5504,-3.5504,-3.5504,-3.5504,-3.5504,-3.5504,-3.5504,-3.5504,-3.4696,-3.3574,-3.3514,-3.2677,-3.1585,-3.1525,-3.1511,-3.1511,-3.1511,-3.1511,-3.1511,-3.1511,-3.1511,-3.1511,-3.1511,-3.1032,-3.0283,-2.9056,-2.8229,-2.7675,-2.76,-2.76,-2.76,-2.76,-2.76,-2.76,-2.76,-2.76,-2.76,-2.76,-2.6986,-2.6288,-2.5689,-2.4948,-2.4276,-2.367,-2.3595,-2.3595,-2.3595,-2.3595,-2.3595,-2.3595,-2.3595,-2.3595,-2.3595,-2.3595,-2.3595,-2.3595,-2.3595,-2.3595,-2.3595,-2.3595,-2.3595,-2.3595,-2.3595,-2.3595,-2.7552,-2.8978,-2.9789,-2.9146,-2.7186,-2.4822,-2.2592,0.0,0.0,-1.547,-1.499,-1.4811,-1.4811,-1.553,-1.6667,0.0,-1.8715,0.0,0.0,0.0,0.0,0.0,0.0,0.0,0.0,0.0,0.0,0.0,0.0,0.0,-3.5504,-3.5504,-3.5504,-3.5504,-3.5504,-3.5504,-3.5504,-3.5504,-3.5504,-3.5504,-3.5504,-3.5504,-3.5504,-3.5504,-3.5504,-3.5504,-3.5504,-3.5504,-3.5504,-3.5504,-3.5504,-3.5504,-3.5504,-3.5504,-3.5459,-3.504,-3.4292,-3.344,-3.3036,-3.2273,-3.1511,-3.1511,-3.1511,-3.1511,-3.1511,-3.1511,-3.1511,-3.1511,-3.1511,-3.1511,-3.1511,-3.0746,-2.9819,-2.931,-2.8378,-2.76,-2.76,-2.76,-2.76,-2.76,-2.76,-2.76,-2.76,-2.76,-2.76,-2.76,-2.7031,-2.6363,-2.5689,-2.5008,-2.4335,-2.367,-2.3595,-2.3595,-2.3595,-2.3595,-2.3595,-2.3595,-2.3595,-2.3595,-2.3595,-2.3595,-2.3595,-2.3595,-2.3595,-2.3595,-2.3595,-2.3595,-2.3595,-2.3595,-2.3595,-2.3595,-2.5977,-2.7563,-2.8618,-2.8128,-2.6153,-2.3797,0.0,0.0,-1.6338,-1.5052,-1.4811,-1.4811,-1.4811,-1.535,-1.6144,0.0,-1.7563,-1.879,-2.1969,0.0,0.0,0.0,0.0,0.0,0.0,0.0,0.0,0.0,0.0,-3.5504,-3.5504,-3.5504,-3.5504,-3.5504,-3.5504,-3.5504,-3.5504,-3.5504,-3.5504,-3.5504,-3.5504,-3.5504,-3.5504,-3.5504,-3.5504,-3.5504,-3.5504,-3.5504,-3.5504,-3.5504,-3.5504,-3.5504,-3.5504,-3.5385,-3.5145,-3.4651,-3.3933,-3.314,-3.2677,-3.2049,-3.1511,-3.1511,-3.1511,-3.1511,-3.1511,-3.1511,-3.1511,-3.1511,-3.1511,-3.1451,-3.1256,-3.0417,-2.9562,-2.9367,-2.8438,-2.76,-2.76,-2.76,-2.76,-2.76,-2.76,-2.76,-2.76,-2.76,-2.76,-2.76,-2.721,-2.6632,-2.5989,-2.5307,-2.4634,-2.3984,-2.3729,-2.3595,-2.3595,-2.3595,-2.3595,-2.3595,-2.3595,-2.3595,-2.3595,-2.3595,-2.3595,-2.3595,-2.3595,-2.3595,-2.3595,-2.3595,-2.3595,-2.3595,-2.3595,-2.3595,-2.3351,-2.5206,-2.6641,-2.6617,-2.5091,-2.3101,0.0,-1.8623,-1.6338,-1.5052,-1.4811,-1.4811,-1.4811,-1.535,-1.6009,-1.6622,-1.7264,-1.864,0.0,0.0,0.0,0.0,0.0,0.0,0.0,0.0,0.0,0.0,0.0,0.0,-3.5504,-3.5504,-3.5504,-3.5504,-3.5504,-3.5504,-3.5504,-3.5504,-3.5504,-3.5504,-3.5504,-3.5504,-3.5504,-3.5504,-3.5504,-3.5504,-3.5504,-3.5504,-3.5504,-3.5504,-3.5504,-3.5504,-3.5504,-3.5085,-3.4518,-3.4503,-3.3649,-3.2497,-3.2512,-3.2049,-3.1511,-3.1511,-3.1511,-3.1511,-3.1511,-3.1511,-3.1511,-3.1511,-3.1511,-3.1346,-3.0687,-3.0058,-2.9415,-2.8771,-2.8094,-2.76,-2.76,-2.76,-2.76,-2.76,-2.76,-2.76,-2.76,-2.76,-2.76,-2.76,-2.7585,-2.7345,-2.6686,-2.6004,-2.5322,-2.4664,-2.4014,-2.3595,-2.3595,-2.3595,-2.3595,-2.3595,-2.3595,-2.3595,-2.3595,-2.3595,-2.3595,-2.3595,-2.3595,-2.3595,-2.3595,-2.3595,-2.3595,-2.3595,-2.3595,-2.3595,-2.0795,-2.2062,-2.296,-2.319,-2.1865,-2.0322,-1.9513,-1.7655,-1.5979,-1.5574,-1.5125,-1.4946,-1.5395,-1.5664,-1.6443,-1.8433,-1.8927,0.0,0.0,0.0,0.0,0.0,0.0,0.0,0.0,0.0,0.0,0.0,0.0,-3.5504,-3.5504,-3.5504,-3.5504,-3.5504,-3.5504,-3.5504,-3.5504,-3.5504,-3.5504,-3.5504,-3.5504,-3.5504,-3.5504,-3.5504,-3.5504,-3.5504,-3.5504,-3.5504,-3.5504,-3.5504,-3.5504,-3.5504,-3.5504,-3.5085,-3.4459,-3.3978,-3.326,-3.2422,-3.1974,-3.1675,-3.1511,-3.1511,-3.1511,-3.1511,-3.1511,-3.1511,-3.1511,-3.1511,-3.1511,-3.1451,-3.1241,-3.0402,-2.9562,-2.9325,-2.8423,-2.76,-2.76,-2.76,-2.76,-2.76,-2.76,-2.76,-2.76,-2.76,-2.76,-2.76,-2.76,-2.736,-2.6701,-2.6019,-2.5337,-2.4679,-2.4014,-2.3595,-2.3595,-2.3595,-2.3595,-2.3595,-2.3595,-2.3595,-2.3595,-2.3595,-2.3595,-2.3595,-2.3595,-2.3595,-2.3595,-2.3595,-2.3595,-2.3595,-2.3595,-2.3595,0.0,-1.9271,-2.0179,-2.0612,-1.9826,-1.8776,-1.8097,-1.6817,-1.5664,-1.5155,-1.4916,-1.4931,-1.535,-1.5634,-1.6398,-1.8268,-1.8777,0.0,0.0,0.0,0.0,0.0,0.0,0.0,0.0,0.0,0.0,0.0,0.0,-3.5504,-3.5504,-3.5504,-3.5504,-3.5504,-3.5504,-3.5504,-3.5504,-3.5504,-3.5504,-3.5504,-3.5504,-3.5504,-3.5504,-3.5504,-3.5504,-3.5504,-3.5504,-3.5504,0.0,-3.5504,-3.5355,-3.5115,-3.5115,-3.4547,-3.3679,-3.3275,-3.2706,-3.2049,-3.1645,-3.1511,-3.1511,-3.1511,-3.1511,-3.1511,-3.1511,-3.1511,-3.1511,-3.1511,-3.1511,-3.1511,-3.1511,-3.0552,-2.9606,-2.9606,-2.8588,-2.76,-2.76,-2.76,-2.76,-2.76,-2.76,-2.76,-2.76,-2.76,-2.76,-2.76,-2.76,-2.745,-2.7031,-2.6168,-2.545,-2.5023,-2.4163,-2.3595,-2.3595,-2.3595,-2.3595,-2.3595,-2.3595,-2.3595,-2.3595,-2.3595,-2.3595,-2.3595,-2.3595,-2.3595,-2.3595,-2.3595,-2.3595,-2.3595,-2.3595,-2.3595,0.0,-1.6591,-1.7934,-1.855,-1.8493,-1.7963,-1.6771,-1.6009,0.0,-1.4049,-1.4303,-1.4767,-1.4902,-1.544,-1.6129,-1.6936,0.0,0.0,0.0,0.0,0.0,0.0,0.0,0.0,0.0,0.0,0.0,0.0,-3.5504,-3.5504,-3.5504,-3.5504,-3.5504,-3.5504,-3.5504,-3.5504,-3.5504,-3.5504,-3.5504,-3.5504,-3.5504,-3.5504,-3.5504,-3.5504,-3.5504,0.0,-3.5504,-3.5504,-3.5504,-3.5504,-3.51,-3.4503,-3.4503,-3.3664,-3.2512,-3.2512,-3.2064,-3.1511,-3.1511,-3.1511,-3.1511,-3.1511,-3.1511,-3.1511,-3.1511,-3.1511,-3.1511,-3.1511,-3.1511,-3.1511,-3.1511,-3.0552,-2.9606,-2.9606,-2.8588,-2.76,-2.76,-2.76,-2.76,-2.76,-2.76,-2.76,-2.76,-2.76,-2.76,-2.76,-2.76,-2.76,-2.76,-2.6467,-2.5659,-2.5615,-2.4448,-2.3655,-2.3595,-2.3595,-2.3595,-2.3595,-2.3595,-2.3595,-2.3595,-2.3595,-2.3595,-2.3595,-2.3595,-2.3595,-2.3595,-2.3595,-2.3595,-2.3595,-2.3595,-2.3595,-1.1602,0.0,-1.3915,-1.4513,-1.4371,-1.4184,0.0,-1.3974,0.0,0.0,0.0,-1.4485,-1.598,-1.6383,-1.737,0.0,0.0,0.0,0.0,0.0,0.0,0.0,0.0,0.0,0.0,0.0,0.0,0.0,-3.5504,-3.5504,-3.5504,-3.5504,-3.5504,-3.5504,-3.5504,-3.5504,-3.5504,-3.5504,-3.5504,-3.5504,-3.5504,-3.5504,-3.5504,-3.5504,-3.5504,-3.5504,-3.5504,-3.5504,-3.5504,-3.5504,-3.51,-3.4503,-3.4503,-3.3664,-3.2512,-3.2512,-3.2064,-3.1511,-3.1511,-3.1511,-3.1511,-3.1511,-3.1511,-3.1511,-3.1511,-3.1511,-3.1511,-3.1511,-3.1511,-3.1511,-3.1511,-3.0552,-2.9606,-2.9606,-2.8588,-2.76,-2.76,-2.76,-2.76,-2.76,-2.76,-2.76,-2.76,-2.76,-2.76,-2.76,-2.76,-2.76,-2.76,-2.6881,-2.6168,-2.5659,-2.4859,-2.4156,-2.364,-2.3595,-2.3595,-2.3595,-2.3595,-2.3595,-2.3595,-2.3595,-2.3595,-2.3595,-2.3595,-2.3595,-2.3595,-2.3595,-2.3595,-2.3595,-2.3595,-2.3595,-1.0244,-1.1483,-1.2878,-1.3726,-1.3856,-1.3927,-1.4571,0.0,0.0,0.0,0.0,0.0,-1.6039,0.0,0.0,0.0,0.0,0.0,0.0,0.0,0.0,0.0,0.0,0.0,0.0,0.0,0.0,-3.5504,-3.5504,-3.5504,-3.5504,-3.5504,-3.5504,-3.5504,-3.5504,-3.5504,-3.5504,-3.5504,-3.5504,-3.5504,-3.5504,-3.5504,-3.5504,-3.5504,-3.5504,-3.5504,-3.5504,-3.5504,-3.5489,-3.516,-3.4637,-3.3993,-3.3694,-3.2961,-3.2034,-3.2034,-3.1809,-3.1511,-3.1511,-3.1511,-3.1511,-3.1511,-3.1511,-3.1511,-3.1511,-3.1511,-3.1511,-3.1511,-3.1511,-3.1511,-3.1511,-3.0552,-2.9606,-2.9606,-2.8588,-2.76,-2.76,-2.76,-2.76,-2.76,-2.76,-2.76,-2.76,-2.76,-2.76,-2.76,-2.76,-2.76,-2.76,-2.7016,-2.6452,-2.6093,-2.5457,-2.4903,-2.4552,-2.4522,-2.4268,-2.364,-2.3595,-2.3595,-2.3595,-2.3595,-2.3595,-2.3595,-2.3595,-2.3595,-2.3595,-2.3595,-2.3595,-2.3595,-2.3595,-2.3759,-1.0106,-1.1563,-1.3234,-1.4064,-1.4602,-1.5045,0.0,0.0,0.0,0.0,0.0,0.0,0.0,0.0,0.0,0.0,0.0,0.0,0.0,0.0,0.0,0.0,0.0,0.0,0.0,0.0,0.0,-3.519,-3.519,-3.519,-3.519,-3.519,-3.525,-3.534,-3.5355,-3.54,-3.5504,-3.5504,-3.5504,-3.5504,-3.5504,-3.5504,-3.5504,-3.5504,-3.5504,-3.5489,-3.5385,-3.5355,-3.5295,-3.4607,-3.3933,-3.329,-3.2736,-3.2079,-3.1511,-3.1511,-3.1511,-3.1511,-3.1511,-3.1511,-3.1511,-3.1511,-3.1511,-3.1511,-3.1511,-3.1511,-3.1511,-3.1511,-3.1436,-3.1346,-3.1346,-3.0402,-2.9457,-2.9457,-2.8498,-2.76,-2.76,-2.76,-2.76,-2.76,-2.76,-2.76,-2.76,-2.76,-2.76,-2.76,-2.76,-2.76,-2.76,-2.7106,-2.6692,-2.6602,-2.6093,-2.5719,-2.5615,-2.5615,-2.5121,-2.3984,-2.3804,-2.3714,-2.3595,-2.3595,-2.3595,-2.3595,-2.3595,-2.3595,-2.3595,-2.3595,-2.3595,-2.3595,-2.3699,-2.4073,-1.1087,-1.2238,-1.3031,-1.2471,-1.347,-1.4642,0.0,0.0,0.0,0.0,0.0,0.0,0.0,0.0,0.0,0.0,0.0,0.0,0.0,0.0,0.0,0.0,0.0,0.0,0.0,0.0,-3.3799,-3.3799,-3.3799,-3.3799,-3.3799,-3.3799,-3.4068,-3.4653,-3.4668,-3.4921,-3.5504,-3.5504,-3.5504,-3.5504,-3.5504,-3.5504,-3.5504,-3.5504,-3.5504,-3.5474,-3.4891,-3.4668,-3.4608,-3.3918,-3.326,-3.2647,-3.2557,-3.2079,-3.1511,-3.1511,-3.1511,-3.1511,-3.1511,-3.1511,-3.1511,-3.1511,-3.1511,-3.1511,-3.1511,-3.1511,-3.1511,-3.1511,-3.1077,-3.0657,-3.0657,-2.9714,-2.8742,-2.8742,-2.8169,-2.76,-2.76,-2.76,-2.76,-2.76,-2.76,-2.76,-2.76,-2.76,-2.76,-2.76,-2.76,-2.76,-2.76,-2.751,-2.7225,-2.6647,-2.6497,-2.6213,-2.5659,-2.5615,-2.5501,-2.5315,-2.4754,-2.4186,-2.3625,-2.3595,-2.3595,-2.3595,-2.3595,-2.3595,-2.3595,-2.3595,-2.3595,-2.361,-2.4171,-2.45,-1.0107,-1.1423,-1.2703,-1.2885,-1.4159,-1.5717,0.0,0.0,0.0,0.0,0.0,0.0,0.0,0.0,0.0,0.0,0.0,0.0,0.0,0.0,0.0,0.0,0.0,0.0,0.0,-3.3499,-3.3499,-3.3499,-3.3499,-3.3499,-3.3499,-3.3499,-3.3634,-3.3933,-3.3948,-3.4098,-3.4412,-3.4412,-3.4786,-3.5504,-3.5504,-3.531,-3.4951,-3.4951,-3.4756,-3.4397,-3.4083,-3.3948,-3.3903,-3.3245,-3.2781,-3.2452,-3.2093,-3.1765,-3.1511,-3.1511,-3.1511,-3.1511,-3.1511,-3.1511,-3.1511,-3.1511,-3.1511,-3.1511,-3.1511,-3.1511,-3.1511,-3.1511,-3.1017,-3.0507,-3.0507,-2.9549,-2.8607,-2.8607,-2.8094,-2.76,-2.76,-2.76,-2.76,-2.76,-2.76,-2.76,-2.76,-2.76,-2.76,-2.76,-2.76,-2.76,-2.76,-2.76,-2.748,-2.718,-2.7151,-2.7031,-2.6692,-2.6686,-2.6363,-2.5659,-2.5307,-2.4829,-2.4156,-2.4141,-2.3984,-2.361,-2.3595,-2.3595,-2.3595,-2.3947,-2.4141,-2.4156,-2.4829,-2.5322,-0.9579,-1.091,-1.2513,-1.3857,0.0,0.0,0.0,0.0,0.0,0.0,0.0,0.0,0.0,0.0,0.0,0.0,0.0,0.0,0.0,0.0,0.0,0.0,0.0,0.0,-3.3036,-3.3036,-3.3036,-3.3036,-3.3036,-3.3036,-3.3036,-3.3036,-3.3095,-3.326,-3.326,-3.3335,-3.3499,-3.3499,-3.4023,-3.504,-3.504,-3.4756,-3.4279,-3.4279,-3.3978,-3.3484,-3.3335,-3.326,-3.3215,-3.2557,-3.2258,-3.2198,-3.1705,-3.1511,-3.1511,-3.1511,-3.1511,-3.1511,-3.1511,-3.1511,-3.1511,-3.1511,-3.1511,-3.1511,-3.1511,-3.1511,-3.1511,-3.1511,-3.1017,-3.0477,-3.0328,-2.9445,-2.8562,-2.8397,-2.7974,-2.76,-2.76,-2.76,-2.76,-2.76,-2.76,-2.76,-2.76,-2.76,-2.76,-2.76,-2.76,-2.76,-2.76,-2.76,-2.76,-2.76,-2.76,-2.76,-2.76,-2.76,-2.7165,-2.6138,-2.5929,-2.5457,-2.4634,-2.4605,-2.4276,-2.361,-2.3595,-2.3684,-2.3849,-2.435,-2.4679,-2.4844,-2.5516,-2.6108,-1.0999,-1.18,-1.2713,-1.4863,0.0,0.0,0.0,0.0,0.0,0.0,0.0,0.0,0.0,0.0,0.0,0.0,0.0,0.0,0.0,0.0,0.0,0.0,0.0,0.0,-3.1645,-3.1645,-3.1645,-3.1645,-3.1645,-3.1645,-3.1645,-3.1645,-3.1929,-3.2557,-3.2557,-3.2886,-3.3484,-3.3499,-3.3544,-3.3634,-3.3634,-3.3619,-3.3559,-3.3559,-3.3544,-3.3469,-3.2841,-3.2557,-3.2512,-3.1854,-3.157,-3.157,-3.1525,-3.1511,-3.1511,-3.1511,-3.1511,-3.1511,-3.1511,-3.1511,-3.1511,-3.1511,-3.1511,-3.1511,-3.1511,-3.1511,-3.1511,-3.1511,-3.1017,-3.0372,-2.9804,-2.9131,-2.8442,-2.7824,-2.763,-2.76,-2.76,-2.76,-2.76,-2.76,-2.76,-2.76,-2.76,-2.76,-2.76,-2.76,-2.76,-2.76,-2.76,-2.76,-2.76,-2.76,-2.76,-2.76,-2.76,-2.76,-2.7555,-2.7465,-2.6881,-2.5959,-2.4649,-2.4605,-2.4276,-2.361,-2.3595,-2.3924,-2.453,-2.459,-2.4918,-2.5531,-2.6213,-2.6542,-0.978,-1.1402,-1.3179,-1.4691,0.0,0.0,0.0,0.0,0.0,0.0,0.0,0.0,0.0,0.0,0.0,0.0,0.0,0.0,0.0,0.0,0.0,0.0,0.0,-3.1511,-3.1511,-3.1511,-3.1511,-3.1511,-3.1511,-3.1511,-3.1511,-3.1511,-3.1615,-3.1869,-3.1869,-3.1989,-3.2243,-3.2243,-3.2243,-3.2258,-3.3095,-3.3275,-3.2886,-3.2886,-3.2662,-3.2228,-3.1989,-3.1869,-3.1854,-3.16,-3.1511,-3.1511,-3.1511,-3.1511,-3.1511,-3.1511,-3.1511,-3.1511,-3.1511,-3.1511,-3.1511,-3.1511,-3.1511,-3.1511,-3.1511,-3.1511,-3.1406,-3.0987,-3.0717,-3.0447,-3.0223,-2.9385,-2.8532,-2.8263,-2.7899,-2.76,-2.76,-2.76,-2.76,-2.76,-2.76,-2.76,-2.76,-2.76,-2.76,-2.76,-2.76,-2.76,-2.76,-2.76,-2.76,-2.76,-2.76,-2.76,-2.76,-2.76,-2.76,-2.76,-2.736,-2.6821,-2.5884,-2.545,-2.5098,-2.4852,-2.4425,-2.4545,-2.5217,-2.5644,-2.5974,-2.6243,-2.6926,-2.7225,-0.9466,-1.1602,-1.3884,0.0,0.0,0.0,0.0,0.0,0.0,0.0,0.0,0.0,0.0,0.0,0.0,0.0,0.0,0.0,0.0,0.0,0.0,0.0,-3.1511,-3.1511,-3.1511,-3.1511,-3.1511,-3.1511,-3.1511,-3.1511,-3.1511,-3.1511,-3.1511,-3.1511,-3.1511,-3.1511,-3.1511,-3.1511,-3.1511,-3.1511,-3.2437,-3.2647,-3.2168,-3.2168,-3.1929,-3.1511,-3.1511,-3.1511,-3.1511,-3.1511,-3.1511,-3.1511,-3.1511,-3.1511,-3.1511,-3.1511,-3.1511,-3.1511,-3.1511,-3.1511,-3.1511,-3.1511,-3.1511,-3.1511,-3.1511,-3.1511,-3.1361,-3.0702,-3.0507,-3.0462,-3.0268,-2.9415,-2.8547,-2.8323,-2.7944,-2.76,-2.76,-2.76,-2.76,-2.76,-2.76,-2.76,-2.76,-2.76,-2.76,-2.76,-2.76,-2.76,-2.76,-2.76,-2.76,-2.76,-2.76,-2.76,-2.76,-2.76,-2.76,-2.76,-2.76,-2.73,-2.6641,-2.6153,-2.5824,-2.5615,-2.5143,-2.5247,-2.5914,-2.6378,-2.6692,-2.6941,-2.739,-2.76,-1.0543,-1.2656,0.0,0.0,0.0,0.0,0.0,0.0,0.0,0.0,0.0,0.0,0.0,0.0,0.0,0.0,0.0,0.0,0.0,0.0,0.0,0.0,-3.1511,-3.1511,-3.1511,-3.1511,-3.1511,-3.1511,-3.1511,-3.1511,-3.1511,-3.1511,-3.1511,-3.1511,-3.1511,-3.1511,-3.1511,-3.1511,-3.1511,-3.1511,-3.1511,-3.1511,-3.1511,-3.1511,-3.1511,-3.1511,-3.1511,-3.1511,-3.1511,-3.1511,-3.1511,-3.1511,-3.1511,-3.1511,-3.1511,-3.1511,-3.1511,-3.1511,-3.1511,-3.1511,-3.1511,-3.1511,-3.1511,-3.1511,-3.1511,-3.1511,-3.1346,-3.0687,-3.0492,-3.0342,-2.9756,-2.9086,-2.8412,-2.7764,-2.76,-2.76,-2.76,-2.76,-2.76,-2.76,-2.76,-2.76,-2.76,-2.76,-2.76,-2.76,-2.76,-2.76,-2.76,-2.76,-2.76,-2.76,-2.76,-2.76,-2.76,-2.76,-2.76,-2.76,-2.76,-2.73,-2.6632,-2.6587,-2.6288,-2.5621,-2.5615,-2.5944,-2.6602,-2.6602,-2.6956,-2.76,-2.76,-2.76,-1.0543,0.0,0.0,0.0,0.0,0.0,0.0,0.0,0.0,0.0,0.0,0.0,0.0,0.0,0.0,0.0,0.0,0.0,0.0,0.0,0.0,0.0,-3.1511,-3.1511,-3.1511,-3.1511,-3.1511,-3.1511,-3.1511,-3.1511,-3.1511,-3.1511,-3.1511,-3.1511,-3.1511,-3.1511,-3.1511,-3.1511,-3.1511,-3.1511,-3.1511,-3.1511,-3.1511,-3.1511,-3.1511,-3.1511,-3.1511,-3.1511,-3.1511,-3.1511,-3.1511,-3.1511,-3.1511,-3.1511,-3.1511,-3.1511,-3.1511,-3.1511,-3.1511,-3.1511,-3.1511,-3.1511,-3.1511,-3.1511,-3.1511,-3.1167,-3.0672,-3.0028,-2.952,-2.9011,-2.8364,-2.8049,-2.7974,-2.8233,-2.7944,-2.76,-2.76,-2.76,-2.76,-2.76,-2.76,-2.76,-2.76,-2.76,-2.76,-2.76,-2.76,-2.76,-2.76,-2.76,-2.76,-2.76,-2.76,-2.76,-2.76,-2.76,-2.76,-2.76,-2.76,-2.751,-2.7315,-2.6866,-2.6746,-2.7001,-2.6527,-2.6617,-2.73,-2.73,-2.7405,-2.76,-2.76,-2.76,-1.142,0.0,0.0,0.0,0.0,0.0,0.0,0.0,0.0,0.0,0.0,0.0,0.0,0.0,0.0,0.0,0.0,0.0,0.0,0.0,0.0,-3.0761,-3.0761,-3.0761,-3.0761,-3.0761,-3.0761,-3.0761,-3.0761,-3.0761,-3.0761,-3.0957,-3.1092,-3.1092,-3.1361,-3.1511,-3.1511,-3.1511,-3.1511,-3.1511,-3.1511,-3.1511,-3.1511,-3.1511,-3.1511,-3.1511,-3.1511,-3.1511,-3.1511,-3.1511,-3.1511,-3.1511,-3.1511,-3.1511,-3.1511,-3.1511,-3.1511,-3.1511,-3.1511,-3.1511,-3.1511,-3.1511,-3.1316,-3.1092,-3.1092,-3.0657,-2.9998,-2.937,-2.8906,-2.8442,-2.7779,-2.76,-2.7705,-2.8124,-2.7899,-2.76,-2.76,-2.76,-2.76,-2.76,-2.76,-2.76,-2.76,-2.76,-2.76,-2.76,-2.76,-2.76,-2.76,-2.76,-2.76,-2.76,-2.76,-2.76,-2.76,-2.76,-2.76,-2.76,-2.76,-2.76,-2.76,-2.721,-2.7195,-2.7585,-2.721,-2.7076,-2.721,-2.7465,-2.7465,-2.721,-2.748,-2.7465,0.0,0.0,0.0,0.0,0.0,0.0,0.0,0.0,0.0,0.0,0.0,0.0,0.0,0.0,0.0,0.0,0.0,0.0,-2.949,-2.9552,0.0,-2.9579,-2.9606,-2.9606,-2.9606,-2.9606,-2.9579,-2.9498,-2.9483,-2.9483,-2.9483,-2.9965,-3.0235,-3.0319,-3.083,-3.1099,-3.1099,-3.1186,-3.123,-3.123,-3.123,-3.1259,-3.1331,-3.1451,-3.1511,-3.1511,-3.1511,-3.1511,-3.1511,-3.1511,-3.1511,-3.1511,-3.1511,-3.1511,-3.1511,-3.1511,-3.1511,-3.1511,-3.1511,-3.1511,-3.1496,-3.1436,-3.0987,-3.0492,-3.0432,-2.9983,-2.937,-2.8771,-2.8562,-2.8368,-2.7764,-2.76,-2.76,-2.76,-2.76,-2.76,-2.76,-2.76,-2.76,-2.76,-2.76,-2.76,-2.76,-2.76,-2.76,-2.76,-2.76,-2.76,-2.76,-2.76,-2.76,-2.76,-2.76,-2.76,-2.76,-2.76,-2.76,-2.76,-2.76,-2.76,-2.76,-2.76,-2.76,-2.76,-2.76,-2.727,-2.6587,-2.721,-2.7165,-2.6512,-2.7136,-2.7091,0.0,0.0,0.0,0.0,0.0,0.0,0.0,0.0,0.0,0.0,0.0,0.0,0.0,0.0,0.0,0.0,0.0,0.0,-2.9421,-2.9055,-2.8887,-2.951,-2.9606,-2.9606,-2.9606,-2.9606,-2.9332,-2.8706,-2.8678,-2.8678,-2.8678,-2.8226,-2.8268,-2.8839,-2.844,-2.8205,-2.8205,-2.8785,-2.9085,-2.9085,-2.9085,-2.9397,-3.0043,-3.1032,-3.1511,-3.1511,-3.1511,-3.1511,-3.1511,-3.1511,-3.1511,-3.1511,-3.1511,-3.1511,-3.1511,-3.1511,-3.1511,-3.1511,-3.1511,-3.1511,-3.1406,-3.0883,-3.0627,-3.0417,-2.9924,-2.9325,-2.8786,-2.8637,-2.8203,-2.7779,-2.763,-2.76,-2.76,-2.76,-2.76,-2.76,-2.76,-2.76,-2.76,-2.76,-2.76,-2.76,-2.76,-2.76,-2.76,-2.76,-2.76,-2.76,-2.76,-2.76,-2.76,-2.76,-2.76,-2.76,-2.76,-2.76,-2.76,-2.76,-2.76,-2.76,-2.76,-2.76,-2.76,-2.76,-2.76,-2.727,-2.6587,-2.6737,-2.6467,-2.5824,-2.5959,-2.5959,0.0,0.0,0.0,0.0,0.0,0.0,0.0,0.0,0.0,0.0,0.0,0.0,0.0,0.0,0.0,0.0,0.0,0.0,-2.7528,-2.724,-2.724,-2.8035,-2.813,-2.8264,-2.8622,-2.8648,-2.8329,-2.7557,-2.7488,-2.7351,-2.6975,-2.6903,-2.7041,-2.7414,-2.7365,-2.7299,-2.7299,-2.768,-2.7867,-2.7867,-2.7867,-2.8282,-2.907,-3.0101,-3.0597,-3.0597,-3.0597,-3.0597,-3.0627,-3.0883,-3.1017,-3.1047,-3.1376,-3.1301,-3.1017,-3.1017,-3.0823,-3.0597,-3.0597,-3.0597,-3.0537,-3.0178,-2.9849,-2.9535,-2.9205,-2.8637,-2.8113,-2.8113,-2.7869,-2.76,-2.76,-2.76,-2.76,-2.76,-2.76,-2.76,-2.76,-2.76,-2.76,-2.76,-2.76,-2.76,-2.76,-2.76,-2.76,-2.76,-2.76,-2.76,-2.76,-2.76,-2.76,-2.76,-2.76,-2.76,-2.76,-2.76,-2.76,-2.76,-2.76,-2.76,-2.76,-2.76,-2.76,-2.76,-2.76,-2.7121,-2.6123,-2.6437,-2.6093,-2.5128,-2.5442,-2.5435,0.0,0.0,0.0,0.0,0.0,0.0,0.0,0.0,0.0,0.0,0.0,0.0,0.0,0.0,0.0,0.0,0.0,0.0,-2.5481,-2.5287,-2.5481,-2.6229,-2.631,-2.6549,-2.7163,-2.7214,-2.6982,-2.6363,-2.6203,-2.5906,-2.5425,-2.5669,-2.5872,-2.6029,-2.6395,-2.6583,-2.6583,-2.6701,-2.6789,-2.6789,-2.7023,-2.7399,-2.7896,-2.884,-2.9382,-2.9606,-2.9606,-2.9606,-2.9651,-3.0133,-3.0342,-3.0402,-3.0943,-3.0823,-3.0342,-3.0342,-3.0028,-2.9606,-2.9606,-2.9606,-2.9592,-2.9472,-2.9041,-2.8577,-2.8457,-2.8049,-2.76,-2.76,-2.76,-2.76,-2.76,-2.76,-2.76,-2.76,-2.76,-2.76,-2.76,-2.76,-2.76,-2.76,-2.76,-2.76,-2.76,-2.76,-2.76,-2.76,-2.76,-2.76,-2.76,-2.76,-2.76,-2.76,-2.76,-2.76,-2.76,-2.76,-2.76,-2.76,-2.76,-2.76,-2.76,-2.76,-2.754,-2.742,-2.742,-2.6811,-2.5615,-2.6033,-2.563,-2.444,-2.5016,-2.4948,0.0,0.0,0.0,0.0,0.0,0.0,0.0,0.0,0.0,0.0,0.0,0.0,0.0,0.0,0.0,0.0,0.0,0.0,-2.5398,-2.4851,-2.4709,-2.5453,-2.5536,-2.5591,-2.5673,-2.5701,-2.5646,-2.5536,-2.4951,-2.4823,-2.537,-2.4229,-2.3841,-2.4571,-2.3977,-2.3658,-2.3658,-2.4357,-2.4707,-2.4707,-2.5993,-2.6322,-2.5855,-2.7231,-2.8498,-2.9606,-2.9606,-2.9606,-2.9621,-2.9696,-2.9726,-2.9741,-2.9804,-2.9789,-2.9726,-2.9726,-2.9681,-2.9606,-2.9606,-2.9606,-2.9517,-2.8921,-2.8667,-2.8487,-2.7914,-2.766,-2.76,-2.76,-2.76,-2.76,-2.76,-2.76,-2.76,-2.76,-2.76,-2.76,-2.76,-2.76,-2.76,-2.76,-2.76,-2.76,-2.76,-2.76,-2.76,-2.76,-2.76,-2.76,-2.76,-2.76,-2.76,-2.76,-2.76,-2.76,-2.76,-2.76,-2.76,-2.76,-2.76,-2.76,-2.76,-2.76,-2.733,-2.6737,-2.6722,-2.6363,-2.5615,-2.5113,-2.447,-2.3744,-2.3834,-2.3819,0.0,0.0,0.0,0.0,0.0,0.0,0.0,0.0,0.0,0.0,0.0,0.0,0.0,0.0,0.0,0.0,0.0,0.0,-2.4179,-2.3813,-2.3914,-2.4709,-2.4794,-2.4951,-2.537,-2.5398,-2.5231,-2.4823,-2.4481,-2.425,-2.4134,-2.3471,-2.3245,-2.3632,-2.3275,-2.3108,-2.3108,-2.3454,-2.3632,-2.3632,-2.4295,-2.4654,-2.4823,-2.5467,-2.6757,-2.8483,-2.8483,-2.8483,-2.8513,-2.8861,-2.9026,-2.9071,-2.9457,-2.9124,-2.8471,-2.8878,-2.8533,-2.79,-2.8338,-2.8483,-2.8438,-2.8139,-2.8049,-2.7989,-2.769,-2.76,-2.76,-2.76,-2.76,-2.76,-2.76,-2.76,-2.76,-2.76,-2.76,-2.76,-2.76,-2.76,-2.76,-2.76,-2.76,-2.76,-2.76,-2.76,-2.76,-2.76,-2.76,-2.76,-2.76,-2.76,-2.76,-2.76,-2.76,-2.76,-2.76,-2.76,-2.76,-2.76,-2.76,-2.76,-2.76,-2.76,-2.7285,-2.6602,-2.6587,-2.6093,-2.5038,-2.4754,-2.4261,-2.3595,-2.3595,-2.3595,0.0,0.0,0.0,0.0,0.0,0.0,0.0,0.0,0.0,0.0,0.0,0.0,0.0,0.0,0.0,0.0,0.0,0.0,0.0,-2.2807,-2.312,-2.3722,-2.391,-2.4221,-2.4753,-2.4809,-2.4667,-2.4321,-2.4118,-2.3826,-2.3424,-2.3215,-2.3108,-2.3108,-2.3108,-2.3108,-2.3108,-2.3108,-2.3108,-2.3108,-2.3305,-2.3708,-2.4321,-2.4481,-2.5467,-2.7045,-2.7045,-2.7045,-2.7089,-2.7776,-2.7956,-2.7853,-2.8542,-2.8167,-2.7324,-2.7862,-2.7527,-2.6852,-2.7408,-2.76,-2.76,-2.76,-2.76,-2.76,-2.76,-2.76,-2.76,-2.76,-2.76,-2.76,-2.76,-2.76,-2.76,-2.76,-2.76,-2.76,-2.76,-2.76,-2.76,-2.76,-2.76,-2.76,-2.76,-2.76,-2.76,-2.76,-2.76,-2.76,-2.76,-2.76,-2.76,-2.76,-2.76,-2.76,-2.76,-2.76,-2.76,-2.76,-2.76,-2.76,-2.76,-2.76,-2.721,-2.6363,-2.6348,-2.5779,-2.4605,-2.4425,-2.4081,-2.3595,-2.3595,-2.3595,0.0,0.0,0.0,0.0,0.0,0.0,0.0,0.0,0.0,0.0,0.0,0.0,0.0,0.0,0.0,0.0,0.0,0.0,0.0,-2.202,-2.2359,-2.2405,-2.2841,-2.3198,-2.3215,-2.3215,-2.3501,-2.4263,-2.3603,-2.3484,-2.4205,-2.3514,-2.3108,-2.3108,-2.3108,-2.3108,-2.3108,-2.3108,-2.3108,-2.3108,-2.3884,-2.4263,-2.4321,-2.5007,-2.5398,-2.5508,-2.5508,-2.5508,-2.5563,-2.6326,-2.6206,-2.5647,-2.6369,-2.6609,-2.6568,-2.6594,-2.7026,-2.7549,-2.76,-2.76,-2.76,-2.76,-2.76,-2.76,-2.76,-2.76,-2.76,-2.76,-2.76,-2.76,-2.76,-2.76,-2.76,-2.76,-2.76,-2.76,-2.76,-2.76,-2.76,-2.76,-2.76,-2.76,-2.76,-2.76,-2.76,-2.76,-2.76,-2.76,-2.76,-2.76,-2.76,-2.76,-2.76,-2.76,-2.76,-2.76,-2.76,-2.76,-2.76,-2.76,-2.76,-2.76,-2.7001,-2.5689,-2.5659,-2.5292,-2.4605,-2.3947,-2.3625,-2.3595,-2.3595,-2.3595,0.0,0.0,0.0,0.0,0.0,0.0,0.0,0.0,0.0,0.0,0.0,0.0,0.0,0.0,0.0,0.0,0.0,0.0,0.0,-2.1656,-2.1782,-2.1782,-2.1958,-2.2083,-2.2083,-2.2083,-2.2185,-2.2485,-2.2242,-2.2185,-2.2498,-2.2242,-2.2234,-2.2569,-2.2581,-2.2744,-2.3108,-2.3108,-2.3108,-2.3108,-2.3395,-2.3543,-2.3543,-2.3813,-2.393,-2.393,-2.393,-2.4496,-2.5425,-2.5673,-2.5646,-2.5481,-2.6203,-2.6203,-2.5906,-2.6864,-2.706,-2.6956,-2.7433,-2.76,-2.76,-2.76,-2.76,-2.76,-2.76,-2.76,-2.76,-2.76,-2.76,-2.76,-2.76,-2.76,-2.76,-2.76,-2.76,-2.76,-2.76,-2.76,-2.76,-2.76,-2.76,-2.76,-2.76,-2.76,-2.76,-2.76,-2.76,-2.76,-2.76,-2.76,-2.76,-2.76,-2.76,-2.76,-2.76,-2.76,-2.76,-2.76,-2.76,-2.76,-2.76,-2.76,-2.6986,-2.563,-2.5615,-2.5076,-2.3969,-2.3729,-2.3595,-2.3595,-2.3595,-2.3595,0.0,0.0,0.0,0.0,0.0,0.0,0.0,0.0,0.0,0.0,0.0,0.0,0.0,0.0,0.0,0.0,0.0,0.0,0.0,-2.1091,-2.1232,-2.1232,-2.1408,-2.1493,-2.1493,-2.1493,-2.1493,-2.1493,-2.1493,-2.1493,-2.1493,-2.1493,-2.1656,-2.202,-2.2221,-2.2456,-2.2832,-2.3007,-2.3108,-2.3108,-2.3108,-2.3108,-2.3108,-2.3108,-2.3108,-2.3108,-2.3108,-2.3666,-2.4639,-2.4922,-2.5035,-2.5091,-2.5837,-2.5987,-2.5892,-2.6878,-2.7086,-2.693,-2.7433,-2.76,-2.756,-2.7306,-2.7408,-2.7534,-2.7306,-2.7408,-2.76,-2.76,-2.76,-2.76,-2.76,-2.76,-2.76,-2.76,-2.76,-2.76,-2.76,-2.76,-2.76,-2.76,-2.76,-2.76,-2.76,-2.76,-2.76,-2.76,-2.76,-2.76,-2.76,-2.76,-2.76,-2.76,-2.76,-2.76,-2.76,-2.76,-2.76,-2.76,-2.76,-2.76,-2.76,-2.76,-2.6986,-2.563,-2.5615,-2.4941,-2.3595,-2.3595,-2.3595,-2.3595,-2.3595,-2.3729,0.0,0.0,0.0,0.0,0.0,0.0,0.0,0.0,0.0,0.0,0.0,0.0,0.0,0.0,0.0,0.0,0.0,0.0,0.0,-2.0314,-2.0666,-2.0666,-2.1131,-2.1443,-2.1443,-2.1443,-2.1443,-2.1443,-2.1443,-2.1443,-2.1443,-2.1455,-2.1496,-2.1496,-2.1995,-2.2284,-2.2284,-2.2794,-2.3058,-2.3058,-2.3058,-2.3058,-2.3083,-2.3083,-2.3095,-2.3108,-2.3108,-2.3108,-2.3155,-2.3943,-2.4263,-2.435,-2.5063,-2.5783,-2.6457,-2.6457,-2.693,-2.7549,-2.7549,-2.7549,-2.7408,-2.6721,-2.6982,-2.7433,-2.6747,-2.7034,-2.76,-2.76,-2.76,-2.76,-2.76,-2.76,-2.76,-2.76,-2.76,-2.76,-2.76,-2.76,-2.76,-2.76,-2.76,-2.76,-2.76,-2.76,-2.76,-2.76,-2.76,-2.76,-2.76,-2.76,-2.76,-2.76,-2.76,-2.76,-2.76,-2.76,-2.76,-2.76,-2.76,-2.76,-2.76,-2.757,-2.6956,-2.563,-2.5585,-2.4926,-2.3595,-2.3595,-2.3595,-2.3595,-2.3595,-2.3984,-0.7553,0.0,0.0,0.0,0.0,0.0,0.0,0.0,0.0,0.0,0.0,0.0,0.0,0.0,0.0,0.0,0.0,0.0,0.0,-1.9936,-2.0037,-2.0037,-2.0175,-2.0263,-2.0263,-2.0263,-2.0263,0.0,-2.0263,-2.0263,-2.0263,-2.0691,-2.0918,-2.0918,-2.143,-2.1719,-2.1719,-2.187,-2.1945,-2.1945,-2.1945,-2.2159,-2.2506,-2.2506,-2.2732,-2.3108,-2.3108,-2.3108,-2.3138,-2.3335,-2.3424,-2.3514,-2.4308,-2.4738,-2.4951,-2.5508,-2.5837,-2.6027,-2.6027,-2.6027,-2.6054,-2.639,-2.6642,-2.6878,-2.7203,-2.7433,-2.76,-2.76,-2.76,-2.76,-2.76,-2.76,-2.76,-2.76,-2.76,-2.76,-2.76,-2.76,-2.76,-2.76,-2.76,-2.76,-2.76,-2.76,-2.76,-2.76,-2.76,-2.76,-2.76,-2.76,-2.76,-2.76,-2.76,-2.76,-2.76,-2.76,-2.76,-2.76,-2.76,-2.76,-2.76,-2.7136,-2.6467,-2.563,-2.5113,-2.4455,-2.3595,-2.3595,-2.3595,-2.3595,-2.3595,-2.4457,0.0,0.0,0.0,0.0,0.0,0.0,0.0,-1.1911,0.0,0.0,0.0,0.0,0.0,0.0,0.0,0.0,0.0,0.0,0.0,0.0,-1.9133,-1.9133,-1.9133,-1.9233,-1.9434,-1.9472,-1.9572,-1.9786,-1.9798,-1.9798,-1.9798,-2.0125,-2.0327,-2.0327,-2.088,-2.1169,-2.1169,-2.1408,-2.1493,-2.1493,-2.1493,-2.1656,-2.197,-2.197,-2.2146,-2.2431,-2.2656,-2.2757,-2.2782,-2.3007,-2.3305,-2.3662,-2.4118,-2.4481,-2.4823,-2.5231,-2.5398,-2.5398,-2.5398,-2.5398,-2.5481,-2.5906,-2.6256,-2.659,-2.7008,-2.7357,-2.76,-2.76,-2.76,-2.76,-2.76,-2.76,-2.76,-2.76,-2.76,-2.76,-2.76,-2.76,-2.76,-2.76,-2.76,-2.76,-2.76,-2.76,-2.76,-2.76,-2.76,-2.76,-2.76,-2.76,-2.76,-2.76,-2.76,-2.76,-2.76,-2.76,-2.76,-2.76,-2.76,-2.7465,-2.7195,-2.6821,-2.6153,-2.5187,-2.4799,-2.4261,-2.3595,-2.3595,-2.3595,-2.3595,-2.3595,-2.4346,0.0,0.0,0.0,0.0,0.0,0.0,-1.2438,-1.2137,-1.1789,0.0,0.0,0.0,0.0,0.0,0.0,0.0,0.0,0.0,0.0,0.0,-1.8204,-1.8204,-1.8204,-1.8392,-1.8857,-1.8907,-1.9108,-1.9597,-1.9685,-1.971,-1.971,-1.9773,-1.9798,-1.9798,-2.0327,-2.0591,-2.0591,-2.1081,-2.1305,-2.1305,-2.1305,-2.1343,-2.1393,-2.1393,-2.143,-2.1546,-2.2008,-2.2221,-2.2259,-2.2782,-2.345,-2.4176,-2.4176,-2.4567,-2.5175,-2.5231,-2.5287,-2.5287,-2.537,-2.5398,-2.5398,-2.5508,-2.5987,-2.651,-2.659,-2.7086,-2.76,-2.76,-2.76,-2.76,-2.76,-2.76,-2.76,-2.76,-2.76,-2.76,-2.76,-2.76,-2.76,-2.76,-2.76,-2.76,-2.76,-2.76,-2.76,-2.76,-2.76,-2.76,-2.76,-2.76,-2.76,-2.76,-2.76,-2.76,-2.76,-2.76,-2.76,-2.76,-2.76,-2.73,-2.6641,-2.6512,-2.5899,-2.4634,-2.453,-2.4201,-2.3595,-2.3595,-2.3595,-2.3595,-2.3595,-2.4013,-1.2215,-1.2659,-1.3166,-1.2043,0.0,0.0,-1.0745,-1.072,-1.1071,0.0,0.0,0.0,0.0,0.0,0.0,0.0,0.0,0.0,0.0,0.0,0.0,-1.8204,-1.8204,-1.8242,-1.8355,-1.8367,-1.8405,-1.8505,-1.8907,-1.9158,-1.9158,-1.9572,-1.9798,-1.9798,-1.9911,-1.9974,-1.9974,-2.0075,-2.0125,-2.0125,-2.0125,-2.0402,-2.0855,-2.0855,-2.1094,-2.1493,-2.1606,-2.1656,-2.1694,-2.2246,-2.2795,-2.3335,-2.3335,-2.3424,-2.3619,-2.4279,-2.4509,-2.4595,-2.5175,-2.5398,-2.5508,-2.6095,-2.6377,-2.6616,-2.7203,-2.7484,-2.76,-2.76,-2.76,-2.76,-2.76,-2.76,-2.76,-2.76,-2.76,-2.76,-2.76,-2.76,-2.76,-2.76,-2.76,-2.76,-2.76,-2.76,-2.76,-2.76,-2.76,-2.76,-2.76,-2.76,-2.76,-2.76,-2.76,-2.76,-2.76,-2.76,-2.76,-2.76,-2.76,-2.73,-2.6641,-2.6078,-2.5435,-2.4619,-2.4066,-2.3729,-2.3595,-2.3595,-2.3595,-2.3595,-2.3595,-2.4221,-1.3878,-1.4054,-1.4299,-1.3451,0.0,0.0,0.0,-1.1334,-1.1387,-1.2241,0.0,0.0,0.0,0.0,0.0,0.0,0.0,0.0,0.0,0.0,0.0,-1.734,-1.734,-1.7476,-1.7765,-1.779,-1.7903,-1.8179,-1.8455,-1.8594,-1.8594,-1.9108,-1.9384,-1.9384,-1.966,-1.9798,-1.9798,-1.9798,-1.9798,-1.9798,-1.9798,-1.9962,-2.0264,-2.0264,-2.0415,-2.0665,-2.0981,-2.1106,-2.1144,-2.1669,-2.2071,-2.2372,-2.2895,-2.3108,-2.3138,-2.356,-2.3708,-2.3738,-2.4134,-2.4237,-2.4381,-2.5147,-2.5646,-2.6081,-2.6826,-2.7306,-2.76,-2.76,-2.76,-2.76,-2.76,-2.76,-2.76,-2.76,-2.76,-2.76,-2.76,-2.76,-2.76,-2.76,-2.76,-2.76,-2.76,-2.76,-2.76,-2.76,-2.76,-2.76,-2.76,-2.76,-2.76,-2.76,-2.76,-2.76,-2.76,-2.76,-2.76,-2.76,-2.7285,-2.6806,-2.6123,-2.5457,-2.4784,-2.4096,-2.3774,-2.3595,-2.3595,-2.3595,-2.3595,-2.3595,-2.3595,-2.3932,0.0,0.0,0.0,0.0,0.0,-1.3561,0.0,0.0,0.0,-1.2764,0.0,0.0,0.0,0.0,0.0,0.0,0.0,0.0,0.0,0.0,0.0,-1.6045,-1.6233,-1.6547,-1.7033,-1.6983,-1.7184,-1.7827,-1.779,-1.7815,-1.8028,-1.8544,-1.8895,-1.9008,-1.9409,-1.9698,-1.9798,-1.9798,-1.9798,-1.9798,-1.9798,-1.9798,-1.9798,-1.9798,-1.9798,-1.9823,-2.0327,-2.0528,-2.0566,-2.1131,-2.1358,-2.143,-2.2393,-2.2782,-2.2824,-2.2959,-2.3006,-2.3035,-2.3169,-2.3315,-2.3531,-2.4325,-2.5135,-2.5919,-2.6522,-2.7126,-2.76,-2.76,-2.76,-2.76,-2.76,-2.76,-2.76,-2.76,-2.76,-2.76,-2.76,-2.76,-2.76,-2.76,-2.76,-2.76,-2.76,-2.76,-2.76,-2.76,-2.76,-2.76,-2.76,-2.76,-2.76,-2.76,-2.76,-2.76,-2.76,-2.76,-2.754,-2.742,-2.6911,-2.6243,-2.545,-2.4754,-2.4141,-2.361,-2.3595,-2.3595,-2.3595,-2.3595,-2.3595,-2.3595,-2.3595,-2.3595,0.0,0.0,0.0,0.0,-1.516,0.0,0.0,0.0,-1.2789,-1.1952,0.0,0.0,0.0,0.0,0.0,0.0,0.0,0.0,0.0,0.0,0.0,0.0,-1.5211,-1.5819,-1.5881,-1.5462,-1.5613,-1.6613,-1.6258,-1.6421,-1.7448,-1.8003,-1.8506,-1.8983,-1.9058,-1.9309,-1.9798,-1.9798,-1.9798,-1.9798,-1.9798,-1.9798,-1.9798,-1.9798,-1.9798,-1.9798,-1.9874,-1.9899,-1.9949,-2.0553,-2.0779,-2.0842,-2.1443,-2.1681,-2.1753,-2.2436,-2.2668,-2.2749,-2.3415,-2.4012,-2.4619,-2.532,-2.636,-2.7382,-2.7458,-2.7534,-2.76,-2.76,-2.76,-2.76,-2.76,-2.76,-2.76,-2.76,-2.76,-2.76,-2.76,-2.76,-2.76,-2.76,-2.76,-2.76,-2.76,-2.76,-2.76,-2.76,-2.76,-2.76,-2.76,-2.76,-2.76,-2.76,-2.76,-2.76,-2.76,-2.76,-2.7345,-2.6761,-2.6632,-2.6033,-2.4769,-2.4066,-2.3684,-2.3595,-2.3595,-2.3595,-2.3595,-2.3595,-2.3595,-2.3595,-2.3595,-2.3595,0.0,0.0,0.0,0.0,0.0,0.0,-1.3664,0.0,-1.3178,0.0,0.0,0.0,0.0,0.0,0.0,0.0,0.0,0.0,0.0,0.0,0.0,0.0,0.0,0.0,-1.4733,-1.4846,-1.5085,-1.553,-1.5361,-1.5588,-1.6358,-1.7237,-1.784,-1.8066,-1.8669,-1.9108,-1.9321,-1.9648,-1.9798,-1.9798,-1.9798,-1.9798,-1.9798,-1.9798,-1.9798,-1.9798,-1.9798,-1.9798,-1.9823,-2.0062,-2.0189,-2.0188,-2.0426,-2.0903,-2.1536,-2.1856,-2.1953,-2.2008,-2.2322,-2.283,-2.3537,-2.4647,-2.5633,-2.6446,-2.6892,-2.7285,-2.76,-2.76,-2.76,-2.76,-2.76,-2.76,-2.76,-2.76,-2.76,-2.76,-2.76,-2.76,-2.76,-2.76,-2.76,-2.76,-2.76,-2.76,-2.76,-2.76,-2.76,-2.76,-2.76,-2.76,-2.76,-2.76,-2.76,-2.76,-2.76,-2.76,-2.7315,-2.6632,-2.5869,-2.4993,-2.4073,-2.3744,-2.3595,-2.3595,-2.3595,-2.3595,-2.3595,-2.3595,-2.3595,-2.3595,-2.3595,-2.3595,-1.65,0.0,0.0,0.0,0.0,0.0,0.0,0.0,0.0,0.0,0.0,0.0,0.0,0.0,0.0,0.0,0.0,0.0,0.0,0.0,0.0,0.0,0.0,0.0,0.0,-1.379,-1.4004,-1.4639,-1.4261,-1.4494,-1.563,-1.6471,-1.7084,-1.7398,-1.8154,-1.8694,-1.9008,-1.9397,-1.966,-1.9798,-1.9798,-1.9798,-1.9798,-1.9798,-1.9798,-1.9798,-1.9798,-1.9798,-1.9798,-1.9798,-1.9798,-1.9798,-1.9798,-2.03,-2.1029,-2.1029,-2.1029,-2.1029,-2.1029,-2.1567,-2.2472,-2.384,-2.4714,-2.5452,-2.6317,-2.6941,-2.736,-2.754,-2.76,-2.76,-2.76,-2.76,-2.76,-2.76,-2.76,-2.76,-2.76,-2.76,-2.76,-2.76,-2.76,-2.76,-2.76,-2.76,-2.76,-2.76,-2.76,-2.76,-2.76,-2.76,-2.76,-2.76,-2.76,-2.76,-2.76,-2.7435,-2.6971,-2.6108,-2.4963,-2.4096,-2.3625,-2.3595,-2.3595,-2.3595,-2.3595,-2.3595,-2.3595,-2.3595,-2.3595,-2.3595,-2.3595,-2.3595,0.0,0.0,0.0,-1.5185,0.0,0.0,0.0,0.0,-1.4091,0.0,0.0,0.0,0.0,0.0,0.0,0.0,0.0,0.0,0.0,0.0,0.0,0.0,0.0,0.0,0.0,-1.177,-1.1751,0.0,-1.2625,-1.2872,-1.5555,-1.5731,-1.6245,-1.7373,-1.7436,-1.7953,-1.8995,-1.902,-1.9284,-1.9798,-1.9798,-1.9798,-1.9798,-1.9798,-1.9798,-1.9798,-1.9798,-1.9798,-1.9798,-1.9798,-1.9798,-1.9798,-1.9798,-1.9823,-1.9849,-1.9849,-1.9849,-1.9849,-1.9849,-2.0708,-2.2038,-2.3301,-2.4163,-2.496,-2.6208,-2.6626,-2.6776,-2.742,-2.76,-2.76,-2.76,-2.76,-2.76,-2.76,-2.76,-2.76,-2.76,-2.76,-2.76,-2.76,-2.76,-2.76,-2.76,-2.76,-2.76,-2.76,-2.76,-2.76,-2.76,-2.76,-2.76,-2.76,-2.76,-2.76,-2.76,-2.7016,-2.6078,-2.4754,-2.4007,-2.3625,-2.3595,-2.3595,-2.3595,-2.3595,-2.3595,-2.3595,-2.3595,-2.3595,-2.3595,-2.3595,-2.3595,-2.3595,-1.65,-1.65,-1.6333,-1.5605,-1.516,0.0,0.0,0.0,0.0,0.0,0.0,0.0,0.0,0.0,0.0,0.0,0.0,0.0,0.0,0.0,0.0,0.0,0.0,0.0,0.0,0.0,0.0,-1.2398,-1.258,0.0,-1.5085,-1.5844,-1.6421,-1.6798,-1.7187,-1.7739,-1.8456,-1.882,-1.9259,-1.9798,-1.9798,-1.9798,-1.9798,-1.9798,-1.9798,-1.9798,-1.9798,-1.9798,-1.9798,-1.9798,-1.9798,-1.9798,-1.9798,-1.9798,-1.9798,-1.9798,-1.9798,-1.985,-2.0295,-2.0752,-2.1286,-2.21,-2.344,-2.4771,-2.5224,-2.6243,-2.7315,-2.754,-2.76,-2.76,-2.76,-2.76,-2.76,-2.76,-2.76,-2.76,-2.76,-2.76,-2.76,-2.76,-2.76,-2.76,-2.76,-2.76,-2.76,-2.76,-2.76,-2.76,-2.76,-2.76,-2.76,-2.76,-2.76,-2.76,-2.76,-2.6572,-2.557,-2.4664,-2.3984,-2.3595,-2.3595,-2.3595,-2.3595,-2.3595,-2.3595,-2.3595,-2.3595,-2.3595,-2.3595,-2.3595,-2.3595,-2.3595,-1.65,-1.65,-1.6362,-1.5831,-1.5449,-1.5035,-1.4513,0.0,-1.4676,0.0,0.0,0.0,0.0,0.0,0.0,0.0,0.0,0.0,0.0,-0.88,0.0,0.0,0.0,0.0,0.0,0.0,-1.0659,-1.1236,-1.1736,0.0,0.0,-1.5462,-1.612,-1.6488,-1.6886,-1.735,-1.7903,-1.8267,-1.8706,-1.9233,-1.9409,-1.9522,-1.9509,-1.971,-1.9798,-1.9798,-1.9798,-1.9798,-1.9798,-1.9798,-1.9798,-1.9798,-1.9798,-1.9798,-1.9798,-1.9798,-1.9798,-1.985,-2.0295,-2.0446,-2.0584,-2.1424,-2.2586,-2.3807,-2.4742,-2.5918,-2.7001,-2.7465,-2.76,-2.76,-2.76,-2.76,-2.76,-2.76,-2.76,-2.76,-2.76,-2.76,-2.76,-2.76,-2.76,-2.76,-2.76,-2.76,-2.76,-2.76,-2.76,-2.76,-2.76,-2.76,-2.76,-2.76,-2.76,-2.7405,-2.6941,-2.6093,-2.5202,-2.4291,-2.3849,-2.3595,-2.3595,-2.3595,-2.3595,-2.3595,-2.3595,-2.3595,-2.3595,-2.3595,-2.3595,-2.3595,-2.3595,-2.3595]}]]